[[{"header":{"parameterUnit":"m.s-1","parameterCategory":1,"la1":31.0,"la2":29.5877,"lo1":-88.7671,"lo2":-86.6584,"dy":0.0162,"dx":0.0185,"nx":115,"ny":88,"refTime":"2024-04-05T06:00:00:Z","depth":0,"parameterNumber":2,"parameterNumberName":"U-component_of_WINDS"},"data":[0.0,0.0,0.0,0.0,0.0,0.0,0.0,0.0,0.0,0.0,0.0,0.0,0.0,0.0,0.0,0.0,0.0,0.0,0.0,0.0,0.0,0.0,0.0,0.0,0.0,0.0,0.0,0.0,0.0,0.0,0.0,0.0,0.0,0.0,0.0,0.0,0.0,0.0,0.0,0.0,0.0,0.0,0.0,0.0,0.0,0.0,0.0,0.0,0.0,0.0,0.0,0.0,0.0,0.0,0.0,0.0,0.0,0.0,0.0,0.0,0.0,0.0,0.0,0.0,0.0,0.0,0.0,0.0,0.0,0.0,0.0,0.0,0.0,0.0,0.0,0.0,0.0,0.0,0.0,0.0,0.0,0.0,0.0,0.0,0.0,0.0,0.0,0.0,0.0,0.0,0.0,0.0,0.0,0.0,0.0,0.0,0.0,0.0,0.0,0.0,0.0,0.0,0.0,0.0,0.0,0.0,0.0,0.0,0.0,0.0,0.0,0.0,0.0,0.0,0.0,0.0,0.0,0.0,0.0,0.0,0.0,0.0,0.0,0.0,0.0,0.0,0.0,0.0,0.0,0.0,0.0,0.0,0.0,0.0,0.0,0.0,0.0,0.0,0.0,0.0,0.0,0.0,0.0,0.0,0.0,0.0,0.0,0.0,0.0,0.0,0.0,0.0,0.0,0.0,0.0,0.0,0.0,0.0,0.0,0.0,0.0,0.0,0.0,0.0,0.0,0.0,0.0,0.0,0.0,0.0,0.0,0.0,0.0,0.0,0.0,0.0,0.0,0.0,0.0,0.0,0.0,0.0,0.0,0.0,0.0,0.0,0.0,0.0,0.0,0.0,0.0,0.0,0.0,0.0,0.0,0.0,0.0,0.0,0.0,0.0,0.0,0.0,0.0,0.0,0.0,0.0,0.0,0.0,0.0,0.0,0.0,0.0,0.0,0.0,0.0,0.0,0.0,0.0,0.0,0.0,0.0,0.0,0.0,0.0,0.0,0.0,0.0,0.0,0.0,0.0,0.0,0.0,0.0,0.0,0.0,0.0,0.0,0.0,0.0,0.0,0.0,0.0,0.0,0.0,0.0,0.0,0.0,0.0,0.0,0.0,0.0,0.0,0.0,0.0,0.0,0.0,0.0,0.0,0.0,0.0,0.0,0.0,0.0,0.0,0.0,0.0,0.0,0.0,0.0,0.0,0.0,0.0,0.0,0.0,0.0,0.0,0.0,0.0,0.0,0.0,0.0,0.0,0.0,0.0,0.0,0.0,0.0,0.0,0.0,0.0,0.0,0.0,0.0,0.0,0.0,0.0,0.0,0.0,0.0,0.0,0.0,0.0,0.0,0.0,0.0,0.0,0.0,0.0,0.0,0.0,0.0,0.0,0.0,0.0,0.0,0.0,0.0,0.0,0.0,0.0,0.0,0.0,0.0,0.0,0.0,0.0,0.0,0.0,0.0,0.0,0.0,0.0,0.0,0.0,0.0,0.0,0.0,0.0,0.0,0.0,0.0,0.0,0.0,0.0,0.0,0.0,0.0,0.0,0.0,0.0,0.0,0.0,0.0,0.0,0.0,0.0,0.0,0.0,0.0,0.0,0.0,0.0,0.0,0.0,0.0,0.0,0.0,0.0,0.0,0.0,0.0,0.0,0.0,0.0,0.0,0.0,0.0,0.0,0.0,0.0,0.0,0.0,0.0,0.0,0.0,0.0,0.0,0.0,0.0,0.0,0.0,0.0,0.0,0.0,0.0,0.0,0.0,0.0,0.0,0.0,0.0,0.0,0.0,0.0,0.0,0.0,0.0,0.0,0.0,0.0,0.0,0.0,0.0,0.0,0.0,0.0,0.0,0.0,0.0,0.0,0.0,0.0,0.0,0.0,0.0,0.0,0.0,0.0,0.0,0.0,0.0,0.0,0.0,0.0,0.0,0.0,0.0,0.0,0.0,0.0,0.0,0.0,0.0,0.0,0.0,0.0,0.0,0.0,0.0,0.0,0.0,0.0,0.0,0.0,0.0,0.0,0.0,0.0,0.0,0.0,0.0,0.0,0.0,0.0,0.0,0.0,0.0,0.0,0.0,0.0,0.0,0.0,0.0,0.0,0.0,0.0,0.0,0.0,0.0,0.0,0.0,0.0,0.0,0.0,0.0,0.0,0.0,0.0,0.0,0.0,0.0,0.0,0.0,0.0,0.0,0.0,0.0,0.0,0.0,0.0,0.0,0.0,0.0,0.0,0.0,0.0,0.0,0.0,0.0,0.0,0.0,0.0,0.0,0.0,0.0,0.0,0.0,0.0,0.0,0.0,0.0,0.0,0.0,0.0,0.0,0.0,0.0,0.0,0.0,0.0,0.0,0.0,0.0,0.0,0.0,0.0,0.0,0.0,0.0,0.0,0.0,0.0,0.0,0.0,0.0,0.0,0.0,0.0,0.0,0.0,0.0,0.0,0.0,0.0,0.0,0.0,0.0,0.0,0.0,0.0,0.0,0.0,0.0,0.0,0.0,0.0,0.0,0.0,0.0,0.0,0.0,0.0,0.0,0.0,0.0,0.0,0.0,0.0,0.0,0.0,0.0,0.0,0.0,0.0,0.0,0.0,0.0,0.0,0.0,0.0,0.0,0.0,0.0,0.0,0.0,0.0,0.0,0.0,0.0,0.0,0.0,0.0,0.0,0.0,0.0,0.0,0.0,0.0,0.0,0.0,0.0,0.0,0.0,0.0,0.0,0.0,0.0,0.0,0.0,0.0,0.0,0.0,0.0,0.0,0.0,0.0,0.0,0.0,0.0,0.0,0.0,0.0,0.0,0.0,0.0,0.0,0.0,0.0,0.0,0.0,0.0,0.0,0.0,0.0,0.0,0.0,0.0,0.0,0.0,0.0,0.0,0.0,0.0,0.0,0.0,0.0,0.0,0.0,0.0,0.0,0.0,0.0,0.0,0.0,0.0,0.0,0.0,0.0,0.0,0.0,0.0,0.0,0.0,0.0,0.0,0.0,0.0,0.0,0.0,0.0,0.0,0.0,0.0,0.0,0.0,0.0,0.0,0.0,0.0,0.0,0.0,0.0,0.0,0.0,0.0,0.0,0.0,0.0,0.0,0.0,0.0,0.0,0.0,0.0,0.0,0.0,0.0,0.0,0.0,0.0,0.0,0.0,0.0,0.0,0.0,0.0,0.0,0.0,0.0,0.0,0.0,0.0,0.0,0.0,0.0,0.0,0.0,0.0,0.0,0.0,0.0,0.0,0.0,0.0,0.0,0.0,0.0,0.0,0.0,0.0,0.0,0.0,0.0,0.0,0.0,0.0,0.0,0.0,0.0,0.0,0.0,0.0,0.0,0.0,0.0,0.0,0.0,0.0,0.0,0.0,0.0,0.0,0.0,0.0,0.0,0.0,0.0,0.0,0.0,0.0,0.0,0.0,0.0,0.0,0.0,0.0,0.0,0.0,0.0,0.0,0.0,0.0,0.0,0.0,0.0,0.0,0.0,0.0,0.0,0.0,0.0,0.0,0.0,0.0,0.0,0.0,0.0,0.0,0.0,0.0,0.0,0.0,0.0,0.0,0.0,0.0,0.0,0.0,0.0,0.0,0.0,0.0,0.0,0.0,0.0,0.0,0.0,0.0,0.0,0.0,0.0,0.0,0.0,0.0,0.0,0.0,0.0,0.0,0.0,0.0,0.0,0.0,0.0,0.0,0.0,0.0,0.0,0.0,0.0,0.0,0.0,0.0,0.0,0.0,0.0,0.0,0.0,0.0,0.0,0.0,0.0,0.0,0.0,0.0,0.0,0.0,0.0,0.0,0.0,0.0,0.0,0.0,0.0,0.0,0.0,0.0,0.0,0.0,0.0,0.0,0.0,0.0,0.0,0.0,0.0,0.0,0.0,0.0,0.0,0.0,0.0,0.0,0.0,0.0,0.0,0.0,0.0,0.0,0.0,0.0,0.0,0.0,0.0,0.0,0.0,0.0,0.0,0.0,0.0,0.0,0.0,0.0,0.0,0.0,0.0,0.0,0.0,0.0,0.0,0.0,0.0,0.0,0.0,0.0,0.0,0.0,0.0,0.0,0.0,0.0,0.0,0.0,0.0,0.0,0.0,0.0,0.0,0.0,0.0,0.0,0.0,0.0,0.0,0.0,0.0,0.0,0.0,0.0,0.0,0.0,0.0,0.0,0.0,0.0,0.0,0.0,0.0,0.0,0.0,0.0,0.0,0.0,0.0,0.0,0.0,0.0,0.0,0.0,0.0,0.0,0.0,0.0,0.0,0.0,0.0,0.0,-0.9199,0.0,0.0,0.0,0.0,0.0,0.0,0.0,0.0,0.0,0.0,0.0,0.0,0.0,0.0,0.0,0.0,0.0,0.0,0.0,0.0,0.0,0.0,0.0,0.0,0.0,0.0,0.0,0.0,0.0,0.0,0.0,0.0,0.0,0.0,0.0,0.0,0.0,0.0,0.0,0.0,0.0,0.0,0.0,0.0,0.0,0.0,0.0,0.0,0.0,0.0,0.0,0.0,0.0,0.0,0.0,0.0,0.0,0.0,0.0,0.0,0.0,0.0,0.0,0.0,0.0,0.0,0.0,0.0,0.0,0.0,0.0,0.0,0.0,0.0,0.0,0.0,0.0,0.0,0.0,0.0,0.0,0.0,0.0,0.0,0.0,0.0,0.0,0.0,0.0,0.0,0.0,0.0,0.0,0.0,0.0,0.0,0.0,0.0,0.0,0.0,0.0,0.0,0.0,0.0,0.0,0.0,0.0,0.0,0.0,0.0,-0.9483,-0.9358,-0.9274,-0.9204,-0.9158,0.0,0.0,0.0,0.0,0.0,0.0,0.0,0.0,0.0,0.0,0.0,0.0,0.0,0.0,0.0,0.0,0.0,0.0,0.0,0.0,0.0,0.0,0.0,0.0,0.0,0.0,0.0,0.0,0.0,0.0,0.0,0.0,0.0,0.0,0.0,0.0,0.0,0.0,0.0,0.0,0.0,0.0,0.0,0.0,0.0,0.0,0.0,0.0,0.0,0.0,0.0,0.0,0.0,0.0,0.0,0.0,0.0,0.0,0.0,0.0,0.0,0.0,0.0,0.0,0.0,0.0,0.0,0.0,0.0,0.0,0.0,0.0,0.0,0.0,0.0,0.0,0.0,0.0,0.0,0.0,0.0,0.0,0.0,0.0,0.0,0.0,0.0,0.0,0.0,0.0,0.0,0.0,0.0,0.0,0.0,0.0,0.0,0.0,0.0,0.0,0.0,0.0,0.0,0.0,0.0,0.0,0.0,0.0,0.0,0.0,0.0,0.0,-0.9234,-0.9181,-0.913,0.0,0.0,0.0,0.0,0.0,0.0,0.0,0.0,0.0,0.0,0.0,0.0,0.0,0.0,0.0,0.0,0.0,0.0,0.0,0.0,0.0,0.0,0.0,0.0,0.0,0.0,0.0,0.0,0.0,0.0,0.0,0.0,0.0,0.0,0.0,0.0,0.0,0.0,0.0,0.0,0.0,0.0,0.0,0.0,0.0,0.0,0.0,0.0,0.0,0.0,0.0,0.0,0.0,0.0,0.0,0.0,0.0,0.0,0.0,0.0,0.0,0.0,0.0,0.0,0.0,0.0,0.0,0.0,0.0,0.0,0.0,0.0,0.0,0.0,0.0,0.0,0.0,0.0,0.0,0.0,0.0,0.0,0.0,0.0,0.0,0.0,0.0,0.0,0.0,0.0,0.0,0.0,0.0,0.0,0.0,0.0,0.0,0.0,0.0,0.0,0.0,0.0,0.0,0.0,0.0,0.0,0.0,0.0,0.0,0.0,-0.9448,-0.931,-0.9241,0.0,-0.9178,0.0,0.0,0.0,0.0,0.0,0.0,0.0,0.0,0.0,0.0,0.0,0.0,0.0,0.0,0.0,0.0,0.0,0.0,0.0,0.0,0.0,0.0,0.0,0.0,0.0,0.0,0.0,0.0,0.0,0.0,0.0,0.0,0.0,0.0,0.0,0.0,0.0,0.0,0.0,0.0,0.0,0.0,0.0,0.0,0.0,0.0,0.0,0.0,0.0,0.0,0.0,0.0,0.0,0.0,0.0,0.0,0.0,0.0,0.0,0.0,0.0,0.0,0.0,0.0,0.0,0.0,0.0,0.0,0.0,0.0,0.0,0.0,0.0,0.0,0.0,0.0,0.0,0.0,0.0,0.0,0.0,0.0,0.0,0.0,0.0,0.0,0.0,0.0,0.0,0.0,0.0,0.0,0.0,0.0,0.0,0.0,0.0,0.0,0.0,0.0,0.0,0.0,0.0,0.0,0.0,0.0,0.0,0.0,0.0,0.0,-0.9385,-0.9311,-0.9212,-0.9168,0.0,0.0,0.0,0.0,0.0,0.0,0.0,0.0,0.0,0.0,0.0,0.0,0.0,0.0,0.0,0.0,0.0,0.0,0.0,0.0,0.0,0.0,0.0,0.0,0.0,0.0,0.0,0.0,0.0,0.0,0.0,0.0,0.0,0.0,0.0,0.0,0.0,0.0,0.0,0.0,0.0,0.0,0.0,0.0,0.0,0.0,0.0,0.0,0.0,0.0,0.0,0.0,0.0,0.0,0.0,0.0,0.0,0.0,0.0,0.0,0.0,0.0,0.0,0.0,0.0,0.0,0.0,0.0,0.0,0.0,0.0,0.0,0.0,0.0,0.0,0.0,0.0,0.0,0.0,0.0,0.0,0.0,0.0,0.0,0.0,0.0,0.0,0.0,0.0,0.0,0.0,0.0,0.0,0.0,0.0,0.0,0.0,0.0,0.0,0.0,0.0,0.0,0.0,0.0,0.0,0.0,0.0,0.0,0.0,0.0,-0.9475,-0.9367,-0.9266,-0.9184,-0.9158,-0.9178,0.0,0.0,0.0,0.0,0.0,0.0,0.0,0.0,0.0,0.0,0.0,0.0,0.0,0.0,0.0,0.0,0.0,0.0,0.0,0.0,0.0,0.0,0.0,0.0,0.0,0.0,0.0,0.0,0.0,0.0,0.0,0.0,0.0,0.0,0.0,0.0,0.0,0.0,0.0,0.0,0.0,0.0,0.0,0.0,0.0,0.0,0.0,0.0,0.0,0.0,0.0,0.0,0.0,0.0,0.0,0.0,0.0,0.0,0.0,0.0,0.0,0.0,0.0,0.0,0.0,0.0,0.0,0.0,0.0,0.0,0.0,0.0,0.0,0.0,0.0,0.0,0.0,0.0,0.0,0.0,0.0,0.0,0.0,0.0,0.0,0.0,0.0,0.0,0.0,0.0,0.0,0.0,0.0,0.0,0.0,0.0,0.0,0.0,0.0,0.0,0.0,0.0,0.0,0.0,0.0,0.0,0.0,0.0,-0.9605,-0.9536,-0.9394,-0.9226,-0.9177,-0.9191,0.0,0.0,0.0,0.0,0.0,0.0,0.0,0.0,0.0,0.0,0.0,0.0,0.0,0.0,0.0,0.0,0.0,0.0,0.0,0.0,0.0,0.0,0.0,0.0,0.0,0.0,0.0,0.0,0.0,0.0,0.0,0.0,0.0,0.0,0.0,0.0,0.0,0.0,0.0,0.0,0.0,0.0,0.0,0.0,0.0,0.0,0.0,0.0,0.0,0.0,0.0,0.0,0.0,0.0,0.0,0.0,0.0,0.0,0.0,0.0,0.0,0.0,0.0,0.0,0.0,0.0,0.0,0.0,0.0,0.0,0.0,0.0,0.0,0.0,0.0,0.0,0.0,0.0,0.0,0.0,0.0,0.0,0.0,0.0,0.0,0.0,0.0,0.0,0.0,0.0,0.0,0.0,0.0,0.0,0.0,0.0,0.0,0.0,0.0,0.0,0.0,0.0,0.0,0.0,0.0,0.0,0.0,0.0,0.0,-0.9591,-0.9543,-0.943,-0.9257,-0.9263,-0.9251,0.0,0.0,0.0,0.0,0.0,0.0,0.0,0.0,0.0,0.0,0.0,0.0,0.0,0.0,0.0,0.0,0.0,0.0,0.0,0.0,0.0,0.0,0.0,0.0,0.0,0.0,0.0,0.0,0.0,0.0,0.0,0.0,0.0,0.0,0.0,0.0,0.0,0.0,0.0,0.0,0.0,0.0,0.0,0.0,0.0,0.0,0.0,0.0,0.0,0.0,0.0,0.0,0.0,0.0,0.0,0.0,0.0,0.0,0.0,0.0,0.0,0.0,0.0,0.0,0.0,0.0,0.0,0.0,0.0,0.0,0.0,0.0,0.0,0.0,0.0,0.0,0.0,0.0,0.0,0.0,0.0,0.0,0.0,0.0,0.0,0.0,0.0,0.0,0.0,0.0,0.0,0.0,0.0,0.0,0.0,0.0,0.0,0.0,0.0,0.0,0.0,0.0,0.0,0.0,0.0,0.0,0.0,0.0,0.0,-0.9589,0.0,-0.9457,-0.9358,-0.9339,-0.9301,0.0,0.0,0.0,0.0,0.0,0.0,0.0,0.0,0.0,0.0,0.0,0.0,0.0,0.0,0.0,0.0,0.0,0.0,0.0,0.0,0.0,0.0,0.0,0.0,0.0,0.0,0.0,0.0,0.0,0.0,0.0,0.0,0.0,0.0,0.0,0.0,0.0,0.0,0.0,0.0,0.0,0.0,0.0,0.0,0.0,0.0,0.0,0.0,0.0,0.0,0.0,0.0,0.0,0.0,0.0,0.0,0.0,0.0,0.0,0.0,0.0,0.0,0.0,0.0,0.0,0.0,0.0,0.0,0.0,0.0,0.0,0.0,0.0,0.0,0.0,0.0,0.0,0.0,0.0,0.0,0.0,0.0,0.0,0.0,0.0,0.0,0.0,0.0,0.0,0.0,0.0,0.0,0.0,0.0,0.0,0.0,0.0,0.0,0.0,0.0,0.0,0.0,0.0,0.0,0.0,0.0,0.0,0.0,-0.9693,-0.9591,-0.9534,-0.9518,-0.9492,-0.9439,-0.9366,0.0,0.0,0.0,0.0,0.0,0.0,0.0,0.0,0.0,0.0,0.0,0.0,0.0,0.0,0.0,0.0,0.0,0.0,0.0,0.0,0.0,0.0,0.0,0.0,0.0,0.0,0.0,0.0,0.0,0.0,0.0,0.0,0.0,0.0,0.0,0.0,0.0,0.0,0.0,0.0,0.0,0.0,0.0,0.0,0.0,0.0,0.0,0.0,0.0,0.0,0.0,0.0,0.0,0.0,0.0,0.0,0.0,0.0,0.0,0.0,0.0,0.0,0.0,0.0,0.0,0.0,0.0,0.0,0.0,0.0,0.0,0.0,0.0,0.0,0.0,0.0,0.0,0.0,0.0,0.0,0.0,0.0,0.0,0.0,0.0,0.0,0.0,0.0,0.0,0.0,0.0,0.0,0.0,0.0,0.0,0.0,0.0,0.0,0.0,0.0,0.0,0.0,0.0,0.0,0.0,0.0,0.0,0.0,0.0,-0.9625,-0.9573,-0.9567,-0.9562,-0.9509,-0.9439,0.0,0.0,0.0,0.0,0.0,0.0,0.0,0.0,0.0,0.0,0.0,0.0,0.0,0.0,0.0,0.0,0.0,0.0,0.0,0.0,0.0,0.0,0.0,0.0,0.0,0.0,0.0,0.0,0.0,0.0,0.0,0.0,0.0,0.0,0.0,0.0,0.0,0.0,0.0,0.0,0.0,0.0,0.0,0.0,0.0,0.0,0.0,0.0,0.0,0.0,0.0,0.0,0.0,0.0,0.0,0.0,0.0,0.0,0.0,0.0,0.0,0.0,0.0,0.0,0.0,0.0,0.0,0.0,0.0,0.0,0.0,0.0,0.0,0.0,0.0,0.0,0.0,0.0,0.0,0.0,0.0,0.0,0.0,0.0,0.0,0.0,0.0,0.0,0.0,0.0,0.0,0.0,0.0,0.0,0.0,0.0,0.0,0.0,0.0,0.0,0.0,0.0,0.0,0.0,0.0,0.0,0.0,0.0,0.0,-1.0528,-1.0546,-1.0374,-1.0038,-1.0004,-0.9816,-0.9448,0.0,0.0,0.0,0.0,0.0,0.0,0.0,0.0,0.0,0.0,0.0,0.0,0.0,0.0,0.0,0.0,0.0,0.0,0.0,0.0,0.0,0.0,0.0,0.0,0.0,0.0,0.0,0.0,0.0,0.0,0.0,0.0,0.0,0.0,0.0,0.0,0.0,0.0,0.0,0.0,0.0,0.0,0.0,0.0,0.0,0.0,0.0,0.0,0.0,0.0,0.0,0.0,0.0,0.0,0.0,0.0,0.0,0.0,0.0,0.0,0.0,0.0,0.0,0.0,0.0,0.0,0.0,0.0,0.0,0.0,0.0,0.0,0.0,0.0,0.0,0.0,0.0,0.0,0.0,0.0,0.0,0.0,0.0,0.0,0.0,0.0,0.0,0.0,0.0,0.0,0.0,0.0,0.0,0.0,0.0,0.0,0.0,0.0,0.0,0.0,0.0,0.0,0.0,0.0,0.0,0.0,0.0,0.0,-1.215,-1.2204,-1.1791,-1.0894,-1.0822,-1.0422,0.0,0.0,0.0,0.0,0.0,0.0,0.0,0.0,0.0,0.0,0.0,0.0,0.0,0.0,0.0,0.0,0.0,0.0,0.0,0.0,0.0,0.0,0.0,0.0,0.0,0.0,0.0,0.0,0.0,0.0,0.0,0.0,0.0,0.0,0.0,0.0,0.0,0.0,0.0,0.0,0.0,0.0,0.0,0.0,0.0,0.0,0.0,0.0,0.0,0.0,0.0,0.0,0.0,0.0,0.0,0.0,0.0,0.0,0.0,0.0,0.0,0.0,0.0,0.0,0.0,0.0,0.0,0.0,0.0,0.0,0.0,0.0,0.0,0.0,0.0,0.0,0.0,0.0,0.0,0.0,0.0,0.0,0.0,0.0,0.0,0.0,0.0,0.0,0.0,0.0,0.0,0.0,0.0,0.0,0.0,0.0,0.0,0.0,0.0,0.0,0.0,0.0,0.0,0.0,0.0,0.0,0.0,0.0,0.0,-1.2968,-1.3571,-1.3204,-1.181,-1.115,-1.0703,0.0,0.0,0.0,0.0,0.0,0.0,0.0,0.0,0.0,0.0,0.0,0.0,0.0,0.0,0.0,0.0,0.0,0.0,0.0,0.0,0.0,0.0,0.0,0.0,0.0,0.0,0.0,0.0,0.0,0.0,0.0,0.0,0.0,0.0,0.0,0.0,0.0,0.0,0.0,0.0,0.0,0.0,0.0,0.0,0.0,0.0,0.0,0.0,0.0,0.0,0.0,0.0,0.0,0.0,0.0,0.0,0.0,0.0,0.0,0.0,0.0,0.0,0.0,0.0,0.0,0.0,0.0,0.0,0.0,0.0,0.0,0.0,0.0,0.0,0.0,0.0,0.0,0.0,0.0,0.0,0.0,0.0,0.0,0.0,0.0,0.0,0.0,0.0,0.0,0.0,0.0,0.0,0.0,0.0,0.0,0.0,0.0,0.0,0.0,0.0,0.0,0.0,0.0,0.0,0.0,0.0,0.0,0.0,-1.2645,-1.3783,-1.4261,-1.4059,-1.3123,-1.1957,-1.1169,0.0,0.0,0.0,0.0,0.0,0.0,0.0,0.0,0.0,0.0,0.0,0.0,0.0,0.0,0.0,0.0,0.0,0.0,0.0,0.0,0.0,0.0,0.0,0.0,0.0,0.0,0.0,0.0,0.0,0.0,0.0,0.0,0.0,0.0,0.0,0.0,0.0,0.0,0.0,0.0,0.0,0.0,0.0,0.0,0.0,0.0,0.0,0.0,0.0,0.0,0.0,0.0,0.0,0.0,0.0,0.0,0.0,0.0,0.0,0.0,0.0,0.0,0.0,0.0,0.0,0.0,0.0,0.0,0.0,0.0,0.0,0.0,0.0,0.0,0.0,0.0,0.0,0.0,0.0,0.0,0.0,0.0,0.0,0.0,0.0,0.0,0.0,0.0,0.0,0.0,0.0,0.0,0.0,0.0,0.0,0.0,0.0,0.0,0.0,0.0,0.0,0.0,0.0,0.0,0.0,0.0,0.0,0.0,-1.2957,-1.4451,-1.4488,-1.4488,-1.4451,-1.3031,-1.182,0.0,0.0,0.0,0.0,0.0,0.0,0.0,0.0,0.0,0.0,0.0,0.0,0.0,0.0,0.0,0.0,0.0,0.0,0.0,0.0,0.0,0.0,0.0,0.0,0.0,0.0,0.0,0.0,0.0,0.0,0.0,0.0,0.0,0.0,0.0,0.0,0.0,0.0,0.0,0.0,0.0,0.0,0.0,0.0,0.0,0.0,0.0,0.0,0.0,0.0,0.0,0.0,0.0,0.0,0.0,0.0,0.0,0.0,0.0,0.0,0.0,0.0,0.0,0.0,0.0,0.0,0.0,0.0,0.0,0.0,0.0,0.0,0.0,0.0,0.0,0.0,0.0,0.0,0.0,0.0,0.0,0.0,0.0,0.0,0.0,0.0,0.0,0.0,0.0,0.0,0.0,0.0,0.0,0.0,0.0,0.0,0.0,0.0,0.0,0.0,0.0,0.0,0.0,0.0,0.0,0.0,0.0,0.0,-1.3519,-1.4451,-1.4488,-1.4488,-1.4488,-1.3545,-1.2674,0.0,0.0,0.0,0.0,0.0,0.0,0.0,0.0,0.0,0.0,0.0,0.0,0.0,0.0,0.0,0.0,0.0,0.0,0.0,0.0,0.0,0.0,0.0,0.0,0.0,0.0,0.0,0.0,0.0,0.0,0.0,0.0,0.0,0.0,0.0,0.0,0.0,0.0,0.0,0.0,0.0,0.0,0.0,0.0,0.0,0.0,0.0,0.0,-0.623,0.0,0.0,0.0,0.0,0.0,0.0,0.0,0.0,0.0,0.0,0.0,0.0,0.0,0.0,0.0,0.0,0.0,0.0,0.0,0.0,0.0,0.0,0.0,0.0,0.0,0.0,0.0,0.0,0.0,0.0,0.0,0.0,0.0,0.0,0.0,0.0,0.0,0.0,0.0,0.0,0.0,0.0,0.0,0.0,0.0,0.0,0.0,0.0,0.0,0.0,0.0,0.0,0.0,0.0,0.0,0.0,0.0,0.0,0.0,-1.3886,-1.5013,-1.4701,-1.4671,-1.4995,-1.3923,-1.2931,0.0,0.0,0.0,0.0,0.0,0.0,0.0,0.0,0.0,0.0,0.0,0.0,0.0,0.0,0.0,0.0,0.0,0.0,0.0,0.0,0.0,0.0,0.0,0.0,0.0,0.0,0.0,0.0,0.0,0.0,0.0,0.0,0.0,0.0,0.0,0.0,0.0,0.0,0.0,0.0,0.0,0.0,0.0,0.0,0.0,0.0,0.0,0.0,0.0,0.0,0.0,0.0,0.0,0.0,0.0,0.0,0.0,0.0,0.0,0.0,0.0,0.0,0.0,0.0,0.0,0.0,0.0,0.0,0.0,0.0,0.0,0.0,0.0,0.0,0.0,0.0,0.0,0.0,0.0,0.0,0.0,0.0,0.0,0.0,0.0,0.0,0.0,0.0,0.0,0.0,0.0,0.0,0.0,0.0,0.0,0.0,0.0,0.0,0.0,0.0,0.0,0.0,0.0,0.0,0.0,0.0,0.0,-1.3133,-1.4327,-1.56,-1.5031,-1.5013,-1.5655,-1.4143,-1.2931,-1.2113,0.0,0.0,0.0,0.0,0.0,0.0,0.0,0.0,0.0,0.0,0.0,0.0,0.0,0.0,0.0,0.0,0.0,0.0,0.0,0.0,0.0,0.0,0.0,0.0,0.0,0.0,0.0,0.0,0.0,0.0,0.0,0.0,0.0,0.0,0.0,0.0,0.0,0.0,-0.511,-0.6497,0.0,0.0,0.0,0.0,0.0,0.0,0.0,0.0,-0.8163,0.0,0.0,0.0,0.0,0.0,0.0,0.0,0.0,0.0,0.0,0.0,0.0,0.0,0.0,0.0,0.0,0.0,0.0,0.0,0.0,0.0,0.0,0.0,0.0,0.0,0.0,0.0,0.0,0.0,0.0,0.0,0.0,0.0,0.0,0.0,0.0,0.0,0.0,0.0,0.0,0.0,0.0,0.0,0.0,0.0,0.0,0.0,0.0,0.0,0.0,0.0,0.0,0.0,0.0,0.0,0.0,-1.2113,-1.4205,-1.5429,-1.5692,-1.5564,-1.5564,-1.5637,-1.4143,-1.2913,-1.2132,0.0,0.0,0.0,0.0,0.0,0.0,0.0,0.0,0.0,0.0,0.0,0.0,0.0,0.0,0.0,0.0,0.0,0.0,0.0,0.0,0.0,0.0,0.0,0.0,0.0,0.0,0.0,0.0,0.0,0.0,0.0,0.0,0.0,0.0,0.0,0.0,0.0,0.0,0.0,-0.6874,-0.7757,0.0,0.0,0.0,0.0,0.0,0.0,0.0,0.0,-0.9784,0.0,0.0,0.0,0.0,0.0,0.0,0.0,0.0,0.0,0.0,0.0,0.0,0.0,0.0,0.0,0.0,0.0,0.0,0.0,0.0,0.0,0.0,0.0,0.0,0.0,0.0,0.0,0.0,0.0,0.0,0.0,0.0,0.0,0.0,0.0,0.0,0.0,0.0,0.0,0.0,0.0,0.0,0.0,0.0,0.0,0.0,0.0,0.0,0.0,0.0,0.0,0.0,0.0,0.0,0.0,-1.2802,-1.4694,-1.6127,-1.6885,-1.6114,-1.5894,-1.6261,-1.3978,-1.249,0.0,0.0,0.0,0.0,0.0,0.0,0.0,0.0,0.0,0.0,0.0,0.0,0.0,0.0,0.0,0.0,0.0,0.0,0.0,0.0,0.0,0.0,0.0,0.0,0.0,0.0,0.0,0.0,0.0,0.0,0.0,0.0,0.0,0.0,0.0,0.0,0.0,0.0,0.0,0.0,-0.758,-0.8268,-0.8707,0.0,0.0,0.0,0.0,0.0,0.0,-0.973,-1.0151,0.0,0.0,0.0,0.0,0.0,0.0,0.0,0.0,0.0,0.0,0.0,0.0,0.0,0.0,0.0,0.0,0.0,0.0,0.0,0.0,0.0,0.0,0.0,0.0,0.0,0.0,0.0,0.0,0.0,0.0,0.0,0.0,0.0,0.0,0.0,0.0,0.0,0.0,0.0,0.0,0.0,0.0,0.0,0.0,0.0,0.0,0.0,0.0,0.0,0.0,0.0,0.0,0.0,0.0,0.0,-1.3555,-1.5123,-1.6628,-1.7986,-1.6848,-1.6408,-1.6817,-1.3949,-1.226,0.0,0.0,0.0,0.0,0.0,0.0,0.0,0.0,0.0,0.0,0.0,0.0,0.0,0.0,0.0,0.0,0.0,0.0,0.0,0.0,0.0,0.0,0.0,0.0,0.0,0.0,0.0,0.0,0.0,0.0,0.0,0.0,0.0,0.0,0.0,0.0,0.0,0.0,0.0,0.0,0.0,-0.8755,-0.8945,-0.9615,0.0,0.0,0.0,0.0,-0.96,-1.0089,0.0,0.0,0.0,0.0,0.0,0.0,0.0,0.0,0.0,0.0,0.0,0.0,0.0,0.0,0.0,0.0,0.0,0.0,0.0,0.0,0.0,0.0,0.0,0.0,0.0,0.0,0.0,0.0,0.0,0.0,0.0,0.0,0.0,0.0,0.0,0.0,0.0,0.0,0.0,0.0,0.0,0.0,0.0,0.0,0.0,0.0,0.0,0.0,0.0,0.0,0.0,0.0,0.0,0.0,0.0,0.0,-1.4359,-1.5955,-1.7202,-1.806,-1.7931,-1.7527,-1.6908,-1.4462,-1.2821,0.0,0.0,0.0,0.0,0.0,0.0,0.0,0.0,0.0,0.0,0.0,0.0,0.0,0.0,0.0,0.0,0.0,0.0,0.0,0.0,0.0,0.0,0.0,0.0,0.0,0.0,0.0,0.0,0.0,0.0,0.0,0.0,0.0,0.0,0.0,0.0,0.0,0.0,0.0,0.0,0.0,-0.8973,-0.9758,-0.9982,-1.0052,0.0,0.0,-1.1328,-1.1216,-1.131,0.0,0.0,0.0,0.0,0.0,0.0,0.0,0.0,0.0,0.0,0.0,0.0,0.0,0.0,0.0,0.0,0.0,0.0,0.0,0.0,0.0,0.0,0.0,0.0,0.0,0.0,0.0,0.0,0.0,0.0,0.0,0.0,0.0,0.0,0.0,0.0,0.0,0.0,0.0,0.0,0.0,0.0,0.0,0.0,0.0,0.0,0.0,0.0,0.0,0.0,0.0,0.0,0.0,0.0,0.0,-1.3574,-1.5197,-1.7215,-1.8665,-1.9402,-1.9014,-1.839,-1.7601,-1.4793,-1.2931,0.0,0.0,0.0,0.0,0.0,0.0,0.0,0.0,0.0,0.0,0.0,0.0,0.0,0.0,0.0,0.0,0.0,0.0,0.0,0.0,0.0,0.0,0.0,0.0,0.0,0.0,0.0,0.0,0.0,0.0,0.0,0.0,0.0,0.0,0.0,0.0,0.0,0.0,0.0,0.0,0.0,0.0,-0.9963,-1.0077,0.0,0.0,0.0,-1.1617,-1.2103,0.0,0.0,0.0,0.0,0.0,0.0,0.0,0.0,0.0,0.0,0.0,0.0,0.0,0.0,0.0,0.0,0.0,0.0,0.0,0.0,0.0,0.0,0.0,0.0,0.0,0.0,0.0,0.0,0.0,0.0,0.0,0.0,0.0,0.0,0.0,0.0,0.0,0.0,0.0,0.0,0.0,0.0,0.0,0.0,0.0,0.0,0.0,0.0,0.0,0.0,0.0,0.0,0.0,0.0,0.0,0.0,0.0,-1.6004,-1.8203,-1.9675,-2.0448,-1.9913,-1.9124,-1.8096,-1.5362,0.0,0.0,0.0,0.0,0.0,0.0,0.0,0.0,0.0,0.0,0.0,0.0,0.0,0.0,0.0,0.0,0.0,0.0,0.0,0.0,0.0,0.0,0.0,0.0,0.0,0.0,0.0,-0.5091,0.0,0.0,0.0,0.0,0.0,0.0,0.0,0.0,0.0,0.0,0.0,0.0,0.0,0.0,-1.001,-1.0016,-1.0072,-1.0404,0.0,0.0,-1.2022,-1.2888,-1.2347,-1.1803,0.0,0.0,0.0,0.0,0.0,0.0,0.0,0.0,0.0,0.0,0.0,0.0,0.0,0.0,0.0,0.0,0.0,0.0,0.0,0.0,0.0,0.0,0.0,0.0,0.0,0.0,0.0,0.0,0.0,0.0,0.0,0.0,0.0,0.0,0.0,0.0,0.0,0.0,0.0,0.0,0.0,0.0,0.0,0.0,0.0,0.0,0.0,0.0,0.0,0.0,0.0,0.0,0.0,0.0,-1.5203,-1.6817,-1.8463,-1.9711,-2.0466,-2.0466,-1.9677,-1.8133,-1.6426,-1.4437,0.0,0.0,0.0,0.0,0.0,0.0,0.0,0.0,0.0,0.0,0.0,0.0,0.0,0.0,0.0,0.0,0.0,0.0,0.0,0.0,0.0,0.0,0.0,0.0,0.0,0.0,0.0,0.0,0.0,0.0,0.0,0.0,0.0,0.0,0.0,0.0,0.0,0.0,0.0,0.0,0.0,-1.0016,-1.0092,-1.01,-1.0409,0.0,-1.2093,-1.2916,-1.3778,-1.317,-1.2618,-1.261,0.0,0.0,0.0,0.0,0.0,0.0,0.0,0.0,0.0,0.0,0.0,0.0,0.0,0.0,0.0,0.0,0.0,0.0,0.0,0.0,0.0,0.0,0.0,0.0,0.0,0.0,0.0,0.0,0.0,0.0,0.0,0.0,0.0,0.0,0.0,0.0,0.0,0.0,0.0,0.0,0.0,0.0,0.0,0.0,0.0,0.0,0.0,0.0,0.0,0.0,0.0,0.0,0.0,-1.5784,-1.6908,-1.951,-2.0739,-2.0539,-2.1015,-2.0262,-1.8151,-1.6054,-1.4092,0.0,0.0,0.0,0.0,0.0,0.0,0.0,0.0,0.0,0.0,0.0,0.0,0.0,0.0,0.0,0.0,0.0,0.0,0.0,0.0,0.0,0.0,0.0,0.0,0.0,0.0,0.0,0.0,-0.4472,-0.4158,-0.4419,0.0,0.0,0.0,0.0,0.0,0.0,0.0,0.0,0.0,0.0,-1.0067,-1.01,-1.0097,0.0,0.0,-1.1684,-1.2208,-1.307,-1.2477,-1.1906,-1.1914,-1.0926,0.0,0.0,0.0,0.0,0.0,0.0,0.0,0.0,0.0,0.0,0.0,0.0,0.0,0.0,0.0,0.0,0.0,0.0,0.0,0.0,0.0,0.0,0.0,0.0,0.0,0.0,0.0,0.0,0.0,0.0,0.0,0.0,0.0,0.0,0.0,0.0,0.0,0.0,0.0,0.0,0.0,0.0,0.0,0.0,0.0,0.0,0.0,0.0,0.0,0.0,0.0,0.0,-1.6321,-1.6908,-1.9877,-2.1125,-2.0503,-2.1106,-2.0354,-1.8151,-1.6011,-1.4022,0.0,0.0,0.0,0.0,0.0,0.0,0.0,0.0,0.0,0.0,0.0,0.0,0.0,0.0,0.0,0.0,0.0,0.0,0.0,0.0,0.0,0.0,0.0,0.0,0.0,0.0,0.0,0.0,-0.4375,-0.4352,-0.5489,0.0,0.0,0.0,0.0,0.0,0.0,0.0,0.0,0.0,0.0,-1.0104,-1.0093,-1.0109,-1.0421,-1.1276,-1.1406,-1.1723,-1.2579,-1.2194,-1.1789,-1.1778,0.0,0.0,0.0,0.0,0.0,0.0,0.0,0.0,0.0,0.0,0.0,0.0,0.0,0.0,0.0,0.0,0.0,0.0,0.0,0.0,0.0,0.0,0.0,0.0,0.0,0.0,0.0,-1.502,0.0,0.0,-1.4092,0.0,0.0,0.0,0.0,0.0,0.0,0.0,0.0,0.0,0.0,0.0,0.0,0.0,0.0,0.0,0.0,0.0,0.0,0.0,0.0,0.0,0.0,-1.689,-1.6945,-1.9311,-2.0521,-2.0484,-2.0521,-1.9751,-1.8115,-1.6507,-1.4574,-1.2216,0.0,0.0,0.0,0.0,0.0,0.0,0.0,0.0,0.0,0.0,0.0,0.0,0.0,0.0,0.0,0.0,0.0,0.0,0.0,0.0,0.0,0.0,0.0,0.0,0.0,0.0,-0.5135,-0.5097,-0.5501,0.0,0.0,0.0,0.0,0.0,0.0,0.0,0.0,0.0,0.0,-1.0097,-1.0116,-1.0116,-1.0125,-1.0479,-1.131,-1.1425,-1.1714,-1.2584,-1.268,-1.2661,0.0,0.0,0.0,0.0,0.0,0.0,0.0,0.0,0.0,0.0,0.0,0.0,0.0,0.0,0.0,0.0,0.0,0.0,0.0,0.0,0.0,0.0,0.0,0.0,0.0,0.0,0.0,-1.6062,-1.5848,0.0,0.0,0.0,0.0,0.0,0.0,0.0,0.0,0.0,0.0,0.0,-1.9256,-1.8739,0.0,0.0,0.0,0.0,0.0,0.0,0.0,0.0,0.0,0.0,0.0,0.0,-1.6908,-1.7018,-1.9292,-2.0228,-1.9748,-2.0228,-1.9476,-1.7348,-1.6318,-1.4167,-1.0796,0.0,0.0,0.0,0.0,0.0,0.0,0.0,0.0,0.0,0.0,0.0,0.0,0.0,0.0,0.0,0.0,0.0,0.0,0.0,0.0,0.0,0.0,0.0,0.0,0.0,-0.5329,0.0,0.0,0.0,0.0,0.0,0.0,0.0,0.0,0.0,0.0,0.0,-1.0166,-1.0152,-1.0629,-1.0964,-1.0959,-1.1464,-1.1949,0.0,0.0,0.0,0.0,0.0,0.0,0.0,0.0,0.0,0.0,0.0,0.0,0.0,0.0,-1.1177,-1.1032,-1.0511,-0.9968,-0.9579,0.0,0.0,0.0,0.0,0.0,0.0,0.0,0.0,0.0,0.0,0.0,0.0,0.0,0.0,-1.8086,0.0,-1.7417,0.0,0.0,0.0,0.0,0.0,0.0,0.0,0.0,-1.962,-2.0097,-2.131,-2.0556,-2.0317,0.0,-1.9785,-1.8684,0.0,0.0,0.0,0.0,0.0,0.0,0.0,0.0,-1.7344,-1.7385,-1.9127,-1.9822,-1.9344,-1.9803,-1.9201,-1.7367,-1.6054,-1.378,-1.0399,-0.9506,-0.8706,0.0,0.0,0.0,0.0,0.0,0.0,0.0,0.0,0.0,0.0,0.0,0.0,0.0,0.0,0.0,0.0,0.0,0.0,0.0,0.0,0.0,0.0,0.0,-0.5448,0.0,0.0,0.0,0.0,0.0,0.0,0.0,0.0,0.0,-0.986,-1.0022,-1.0296,-1.0628,-1.1077,-1.1504,-1.1819,0.0,0.0,0.0,0.0,0.0,0.0,0.0,-1.3118,-1.3118,-1.3344,-1.3396,-1.3108,-1.3391,-1.3237,-1.2027,0.0,0.0,-1.1039,-1.0469,-1.0044,-0.9952,-0.9819,-0.9611,-0.9278,-0.8702,-0.804,0.0,0.0,0.0,0.0,0.0,0.0,0.0,0.0,-2.2175,-2.1737,0.0,-1.9573,0.0,0.0,0.0,0.0,0.0,-1.9415,0.0,0.0,-2.1894,-2.2336,-2.3052,-2.2336,-2.2336,-2.2997,-2.2244,-2.14,-2.0448,-1.821,0.0,0.0,0.0,0.0,0.0,0.0,-1.8096,-1.8096,-1.8904,-1.9305,-1.9286,-1.9305,-1.8886,-1.8023,-1.5827,-1.3501,-1.1193,-1.0345,-0.9538,-0.8754,-0.791,0.0,0.0,0.0,0.0,0.0,0.0,0.0,0.0,0.0,0.0,0.0,0.0,0.0,0.0,0.0,0.0,0.0,0.0,0.0,0.0,-0.5132,0.0,0.0,0.0,0.0,0.0,0.0,0.0,0.0,0.0,0.0,-0.9461,-0.987,-1.059,-1.1431,0.0,0.0,0.0,0.0,-1.2796,-1.2796,-1.2796,-1.2801,-1.2815,-1.342,-1.3876,-1.3876,0.0,0.0,-1.3973,-1.3863,-1.3531,-1.2699,-1.1897,-1.1115,-1.0268,-1.0082,-0.9996,-0.9987,-0.9943,-0.9823,-0.9631,-0.9314,-0.896,-3.0504,0.0,0.0,0.0,0.0,-2.4707,-2.4769,-2.4724,-2.4189,-2.3791,-2.3489,-2.2126,0.0,0.0,0.0,0.0,0.0,0.0,-2.2501,-2.3511,-2.4117,-2.4795,-2.5527,-2.5328,-2.5052,-2.4667,-2.3878,-2.3088,-2.2245,-2.1015,-1.951,-1.7784,0.0,0.0,0.0,0.0,-1.8096,-1.8151,-1.8886,-1.9286,-1.9286,-1.9286,-1.8643,-1.7348,-1.5551,-1.399,-1.2762,-1.1977,-1.0967,-0.961,-0.8767,0.0,0.0,0.0,0.0,0.0,0.0,0.0,0.0,0.0,0.0,0.0,0.0,0.0,0.0,0.0,0.0,0.0,0.0,0.0,-0.5091,-0.5877,-0.664,0.0,0.0,0.0,0.0,0.0,0.0,0.0,0.0,0.0,-1.1867,-1.1934,-1.2148,0.0,0.0,-1.333,-1.3585,-1.413,-1.4481,-1.4464,-1.4484,0.0,-1.4484,-1.4151,-1.3876,-1.3876,-1.3637,-1.3335,-1.3084,-1.3041,-1.2748,-1.1897,-1.1537,-1.1057,-1.023,-1.0015,-0.9981,-0.9941,-0.9913,-0.9843,-0.9714,-0.9538,-0.9556,-3.5709,-3.2802,-3.0056,-2.881,-2.8737,-2.8651,-2.8688,-2.873,-2.7651,-2.7184,-2.6997,-2.496,-2.413,-2.416,-2.3142,0.0,0.0,0.0,-2.4392,-2.5162,-2.564,-2.63,-2.7034,-2.6759,-2.6355,-2.586,-2.5052,-2.4245,-2.3474,-2.2666,-2.1528,-2.006,0.0,0.0,-1.8867,-1.9326,-1.9583,-1.9583,-2.0023,-2.0115,-1.9767,-1.9143,-1.8221,-1.6985,-1.5711,-1.4648,-1.3861,-1.3105,-1.2118,-1.0889,-0.9455,-0.8301,0.0,0.0,0.0,0.0,0.0,0.0,0.0,0.0,0.0,0.0,0.0,-0.6345,-0.5194,0.0,0.0,0.0,-0.5091,-0.5239,-0.5582,-0.6267,0.0,0.0,0.0,0.0,0.0,0.0,0.0,-1.3281,-1.3378,-1.3515,-1.3846,-1.3843,-1.3697,-1.3352,-1.3733,-1.4152,-1.4463,0.0,-1.5204,-1.5207,-1.5195,-1.5074,-1.4747,-1.4247,-1.378,-1.3459,-1.3027,-1.2546,-1.2238,-1.218,-1.1863,-1.1125,-1.0861,-1.066,-1.0104,-0.9979,-0.9963,-0.9912,-0.9882,-0.983,-0.971,-0.9887,-1.0186,-3.9991,-3.9589,-3.5078,-3.3086,-3.2876,-3.2666,-3.2946,-3.3452,-3.1954,-3.1266,-3.0984,-2.8021,-2.6695,-2.6622,-2.5216,0.0,-2.5605,-2.566,-2.6043,-2.6686,-2.6759,-2.7163,-2.7842,-2.7145,-2.6759,-2.6686,-2.5878,-2.5071,-2.4281,-2.3492,-2.3088,-2.307,-2.2409,-2.2023,-2.1894,-2.1877,-2.1931,-2.1987,-2.1931,-2.1455,-2.0503,-1.8996,-1.7784,-1.6927,-1.6175,-1.5392,-1.4522,-1.379,-1.3067,-1.2279,-1.0062,-0.8427,-0.7673,0.0,0.0,0.0,0.0,0.0,0.0,0.0,0.0,0.0,0.0,0.0,0.0,0.0,0.0,0.0,-0.5157,0.0,-0.6324,-0.6578,0.0,0.0,0.0,-1.1171,-1.2832,-1.2988,-1.3301,-1.4102,0.0,0.0,-1.5293,-1.541,-1.5095,-1.4309,-1.4204,-1.4464,-1.5209,-1.5251,-1.5201,-1.519,-1.5111,-1.4805,-1.4113,-1.3747,-1.3286,-1.2541,-1.2493,-1.2122,-1.1464,-1.1291,-1.0974,-1.0296,-1.0105,-1.0078,-1.0017,-0.9946,-0.9887,-0.9888,-0.9838,-0.9796,-0.9751,-1.0251,-1.0749,-4.1702,-4.1556,-3.9795,-3.7986,-3.6168,-3.548,-3.5246,-3.5218,-3.4313,-3.3502,-3.2783,-3.0925,-2.9472,-2.8388,-2.8022,-2.7622,-2.7255,-2.786,-2.7915,-2.7567,-2.8154,-2.8517,-2.87,-2.8539,-2.8117,-2.7493,-2.6704,-2.5897,-2.5089,-2.43,-2.3914,-2.3933,-2.4318,-2.3914,-2.2776,-2.2703,-2.3033,-2.3621,-2.3015,-2.2006,-2.0556,-1.9528,-1.8353,-1.6945,-1.6725,-1.5955,-1.4554,-1.4327,-1.3629,-1.2356,-1.1147,-0.9906,-0.8555,-0.7871,0.0,0.0,0.0,0.0,0.0,0.0,0.0,0.0,0.0,-0.6899,-0.5234,0.0,-0.51,0.0,-0.5704,-0.6173,-0.6392,-0.8189,0.0,0.0,-1.148,-1.2674,-1.3711,-1.3809,-1.4141,-1.5,-1.5098,-1.5156,-1.5371,-1.541,-1.5331,-1.511,-1.5077,-1.5126,-1.5295,-1.5283,-1.5265,-1.5157,-1.4649,-1.4151,-1.3824,-1.2805,-1.1733,-1.0844,-1.0729,-1.0637,-1.046,-1.0406,-1.034,-1.0131,-1.011,-1.0078,-1.0014,-0.9946,-0.9894,-0.9832,-0.9805,-0.9782,-0.9721,-1.0352,-1.1093,-4.2818,-4.2763,-4.1974,-4.0639,-3.8975,-3.8151,-3.7522,-3.7095,-3.6321,-3.5718,-3.5159,-3.3268,-3.1543,-3.0099,-3.0063,-2.9824,-2.942,-2.9494,-2.9292,-2.8888,-2.898,-2.8975,-2.8975,-2.8975,-2.8594,-2.7805,-2.7346,-2.6722,-2.5933,-2.5493,-2.5273,-2.5291,-2.5695,-2.5658,-2.5144,-2.4795,-2.4814,-2.5254,-2.4135,-2.274,-2.1106,-1.9913,-1.8684,-1.7477,-1.6725,-1.5955,-1.5068,-1.4694,-1.4006,-1.289,-1.2031,-1.1077,-0.9919,-0.9386,-0.9319,0.0,0.0,0.0,0.0,0.0,0.0,0.0,0.0,0.0,0.0,0.0,-0.5855,-0.6223,-0.6691,-0.7275,-0.8015,-0.9385,-1.0719,-1.1878,-1.2842,-1.3764,-1.4569,-1.4687,-1.4863,-1.5332,-1.541,-1.541,-1.541,-1.541,-1.541,-1.5409,-1.5403,-1.5366,-1.5351,-1.5334,-1.5162,-1.4705,-1.4246,-1.3623,-1.2964,-1.1695,-1.0671,-1.021,-1.0094,-1.0094,-1.0094,-1.0094,-1.0094,-1.0097,-1.01,-1.0073,-1.0015,-0.9979,-0.9935,-0.9882,-0.9838,-0.9798,-0.9724,-1.0357,-1.1164,-4.3479,-4.3424,-4.2745,-4.1992,-4.1203,-4.0396,-3.9533,-3.8652,-3.7936,-3.7588,-3.7379,-3.511,-3.3293,-3.1861,-3.1861,-3.1751,-3.1494,-3.0834,-3.0448,-3.032,-2.9531,-2.914,-2.914,-2.9049,-2.8608,-2.7952,-2.7842,-2.742,-2.6759,-2.6649,-2.6612,-2.6612,-2.6722,-2.7108,-2.775,-2.72,-2.6814,-2.6594,-2.5107,-2.3529,-2.1839,-2.0262,-1.9014,-1.8096,-1.6738,-1.5949,-1.5839,-1.5086,-1.4324,-1.3662,-1.2816,-1.2111,-1.1553,-1.145,-1.1506,0.0,-1.2432,0.0,0.0,0.0,0.0,0.0,0.0,0.0,0.0,-0.6663,-0.7129,-0.8096,-0.829,-0.895,-1.039,-1.0727,-1.1713,-1.3794,-1.4196,-1.4579,-1.5289,-1.5409,-1.541,-1.541,-1.541,-1.541,-1.541,-1.541,-1.541,-1.541,-1.5408,-1.5401,-1.5401,-1.5349,-1.5024,-1.4128,-1.3797,-1.295,-1.1635,-1.0664,-1.0167,-1.0121,-1.0125,-1.0121,-1.0125,-1.0121,-1.0098,-1.0105,-1.0093,-1.0072,-1.0025,-0.9996,-0.9979,-0.9929,-0.99,-0.9857,-0.984,-1.0369,-1.1132,-4.3479,-4.3479,-4.3314,-4.28,-4.2011,-4.1222,-4.0047,-3.8689,-3.8542,-3.8102,-3.7404,-3.6303,-3.5275,-3.433,-3.4321,-3.3605,-3.2375,-3.2228,-3.1788,-3.1127,-3.0356,-2.9971,-2.9953,-2.9329,-2.8902,-2.8741,-2.8117,-2.7714,-2.7548,-2.6924,-2.6612,-2.6612,-2.7236,-2.7658,-2.7824,0.0,0.0,0.0,-2.564,-2.4061,-2.1894,-2.0813,-1.9567,-1.817,-1.7803,0.0,-1.6688,-1.5912,-1.5134,-1.441,-1.3615,0.0,0.0,0.0,0.0,0.0,0.0,0.0,0.0,0.0,0.0,0.0,-1.1323,-0.9831,-0.769,-0.8047,-0.9048,-1.056,-1.1334,-1.1875,-1.2193,-1.3512,-1.4256,-1.4131,-1.472,-1.5227,-1.5397,-1.5408,-1.541,-1.541,-1.541,-1.541,-1.541,-1.541,-1.541,-1.541,-1.541,-1.5408,-1.5404,-1.5358,-1.5028,-1.4127,-1.2831,-1.1609,-1.0573,-1.028,-1.0164,-1.0167,-1.0186,-1.0183,-1.0177,-1.0173,-1.0166,-1.011,-1.0094,-1.0101,-1.0076,-1.0025,-1.0001,-0.9979,-0.9941,-0.99,-0.9882,-1.0501,-1.1119,-4.3479,0.0,-4.3479,-4.302,0.0,-4.1864,-4.0781,-3.9276,-3.8872,-3.8248,-3.7489,-3.7055,-3.6413,-3.5624,-3.5192,-3.455,-3.3725,-3.2963,-3.2375,-3.1953,-3.1164,-3.0779,-3.0779,-3.0375,-3.0191,-3.0173,-2.9787,-2.9609,-2.9531,-2.876,-2.8374,-2.8393,-2.8393,-2.8393,-2.8411,-2.8815,-2.8205,-2.6631,-2.619,-2.463,-2.195,-2.1382,-2.0354,-1.8757,-1.8298,0.0,0.0,0.0,0.0,0.0,0.0,0.0,0.0,-1.5363,0.0,-1.6052,-1.6496,-1.6593,-1.6255,-1.5914,-1.5344,-1.4585,-1.3788,-1.244,-1.0331,-1.1276,-1.2371,-1.3185,-1.3691,-1.4111,-1.4545,-1.5028,-1.5313,-1.5319,-1.5333,-1.5363,-1.5403,-1.5421,-1.5408,-1.5409,-1.541,-1.541,-1.541,-1.541,-1.541,-1.541,-1.541,-1.541,-1.5369,-1.5023,-1.4309,-1.2969,-1.1712,-1.0692,-1.0321,-1.0186,-1.0186,-1.0183,-1.0186,-1.0202,-1.0199,-1.0196,-1.0186,-1.0143,-1.0129,-1.0098,-1.0093,-1.0076,-1.0039,-1.0054,-1.0024,-1.0009,-0.9998,-1.0305,-1.0697,-4.3479,-4.3479,-4.3479,-4.313,-4.2506,-4.2359,-4.1387,-3.9845,0.0,0.0,0.0,-3.7698,-3.7257,-3.6468,-3.5789,-3.5357,-3.5137,-3.388,-3.3183,-3.2999,-3.221,-3.1733,-3.1623,-3.1458,-3.1403,-3.1403,-3.1403,-3.1403,-3.1366,-3.0723,-3.0411,-3.0338,-2.9604,-2.914,-2.8994,-2.8975,-2.8187,-2.6704,-2.6612,-2.5107,-2.2134,-2.2006,-2.1272,-1.9782,-1.9106,-1.8757,-1.8739,-1.7972,-1.7578,-1.7628,-1.757,-1.7609,-1.7739,-1.7814,-1.7956,-1.8146,-1.805,-1.8025,-1.8137,-1.7284,-1.68,-1.6856,-1.6535,-1.5485,-1.3545,-1.4637,-1.5554,-1.5857,-1.5876,-1.6179,-1.6862,-1.6378,-1.6168,-1.6755,-1.609,-1.5621,-1.5632,-1.5678,-1.5692,-1.5463,-1.5408,-1.541,-1.541,-1.541,-1.541,-1.541,-1.541,-1.5312,-1.5097,-1.4387,-1.3432,-1.218,-1.1103,-1.0241,-1.0212,-1.0232,-1.0207,-1.0212,-1.0212,-1.0207,-1.0202,-1.0197,-1.0202,-1.0183,-1.0147,-1.0129,-1.0109,-1.0101,-1.0108,-1.011,-1.0101,-1.0101,-1.0101,-1.0063,-1.0307,-4.3479,-4.3479,-4.3479,-4.3424,-4.3259,-4.2598,-4.1387,-3.9845,-3.9056,-3.8634,-3.8542,-3.8524,-3.8083,-3.7294,-3.7184,-3.6762,-3.6101,-3.5862,-3.5385,-3.4623,-3.3844,-3.3109,-3.2412,-3.1715,-3.1403,-3.1403,-3.1403,-3.1403,-3.1384,-3.1292,-3.1219,-3.1146,-3.043,-2.9696,-2.9053,-2.8975,-2.8205,-2.6649,-2.6612,-2.5383,-2.2923,-2.2832,-2.2409,-2.151,-2.1325,-2.1272,-2.1272,-2.0427,-2.0023,-2.0089,-1.9505,-1.9475,-2.0137,-2.0276,-2.0732,-2.1405,-2.0922,-2.063,-2.0716,-1.9371,-1.8563,-1.8698,-1.9918,-1.936,-1.6309,-1.6179,-1.6906,-1.8262,-1.8377,-1.8493,-1.8633,-1.8493,-1.8121,-1.767,-1.7106,-1.6701,-1.6472,-1.6642,-1.6432,-1.5591,-1.5403,-1.5407,-1.541,-1.541,-1.541,-1.541,-1.541,-1.5156,-1.4413,-1.3551,-1.296,-1.2486,-1.1293,-1.0413,-1.0272,-1.0295,-1.0272,-1.0275,-1.0293,-1.0268,-1.0222,-1.0193,-1.0198,-1.0191,-1.019,-1.0154,-1.0113,-1.0094,-1.0101,-1.0112,-1.0108,-1.0104,-1.0116,-1.0108,-1.0368,-4.3479,-4.3479,-4.3479,-4.3479,-4.3424,-4.2653,-4.1882,-4.113,-4.0359,-3.9515,-3.8726,-3.8707,-3.8487,-3.812,-3.7679,-3.7305,-3.6927,-3.6486,-3.6083,-3.5697,-3.533,-3.4963,-3.4559,-3.3752,-3.3605,-3.4009,-3.3568,-3.3587,-3.3935,-3.3146,-3.2706,-3.2577,-3.1054,-3.0008,-2.9659,-2.9214,-2.8205,-2.6667,-2.6612,-2.5417,-2.3088,-2.3015,-2.263,-2.1821,-2.1785,-2.1785,-2.1785,-2.1418,-2.1216,-2.1252,-2.0965,-2.0976,-2.1343,-2.147,-2.1745,-2.2111,-2.1905,-2.1815,-2.1897,-2.1301,-2.1001,-2.1097,-2.179,-2.1609,-2.0058,-1.9461,-1.9365,-1.9665,-1.9684,-1.9704,-1.9677,-1.9288,-1.8852,-1.8493,-1.8101,-1.7708,-1.7302,-1.7081,-1.6781,-1.613,-1.566,-1.5419,-1.5406,-1.5407,-1.5409,-1.541,-1.541,-1.5078,-1.4219,-1.3398,-1.2654,-1.2144,-1.1106,-1.0422,-1.0323,-1.0323,-1.0323,-1.0322,-1.0322,-1.0281,-1.0258,-1.025,-1.0234,-1.021,-1.0191,-1.0193,-1.0154,-1.0155,-1.0167,-1.0171,-1.0152,-1.0155,-1.0189,-1.0501,-1.0976,-4.3479,-4.3479,-4.3479,-4.3497,-4.3408,-4.2803,-4.2454,-4.2164,-4.1559,-4.0547,-3.93,-3.9208,-3.9258,-3.9166,-3.8395,-3.8028,-3.7918,-3.7202,-3.6743,-3.6578,-3.656,-3.6468,-3.6248,-3.5587,-3.5661,-3.6174,-3.5624,-3.5661,-3.6064,-3.4981,-3.4156,-3.366,-3.1916,-3.076,-3.0191,-2.9604,-2.8484,-2.6979,-2.6869,-2.5713,-2.3382,-2.3272,-2.2978,-2.2409,-2.2336,-2.2335,-2.2336,-2.2354,-2.2336,-2.2354,-2.2387,-2.2438,-2.2454,-2.2569,-2.2644,-2.2671,-2.2619,-2.2539,-2.2474,-2.2993,-2.3304,-2.3361,-2.3543,-2.3581,-2.3331,-2.2581,-2.1754,-2.1004,-2.0889,-2.0889,-2.085,-2.0339,-1.9865,-1.9846,-1.9499,-1.9058,-1.844,-1.7829,-1.72,-1.67,-1.6041,-1.5652,-1.5452,-1.5419,-1.5404,-1.5409,-1.541,-1.5098,-1.4453,-1.3574,-1.2636,-1.1933,-1.0994,-1.0349,-1.0308,-1.0308,-1.0308,-1.0308,-1.0308,-1.0307,-1.0305,-1.0299,-1.0289,-1.0232,-1.0193,-1.0197,-1.0199,-1.0186,-1.0203,-1.0183,-1.0193,-1.0183,-1.0224,-1.0632,-1.1238,-4.3479,-4.3479,-4.3479,-4.3481,-4.3411,-4.332,-4.2792,-4.2118,-4.2079,-4.1583,-4.0793,-4.084,-4.0873,-4.0763,-4.001,-3.9625,-3.957,-3.8836,-3.8102,-3.7477,-3.7367,-3.7,-3.6468,-3.6248,-3.6229,-3.6358,-3.6266,-3.6303,-3.6431,-3.6156,-3.5275,-3.3954,-3.3568,-3.2339,-3.0503,-3.0155,-2.9292,-2.7732,-2.7677,-2.6521,-2.4263,-2.408,-2.4061,-2.3988,-2.3951,-2.3969,-2.3878,-2.3988,-2.3951,-2.3969,-2.3934,-2.3989,-2.4063,-2.4185,-2.4318,-2.4376,-2.3842,-2.3221,-2.2806,-2.4117,-2.5051,-2.5119,-2.5764,-2.5822,-2.5091,-2.4312,-2.3514,-2.2754,-2.2562,-2.2427,-2.2562,-2.237,-2.2186,-2.207,-2.1597,-2.1005,-2.0113,-1.9368,-1.8322,-1.6754,-1.6561,-1.6233,-1.564,-1.5442,-1.5413,-1.5404,-1.5408,-1.5292,-1.4941,-1.3789,-1.2812,-1.2441,-1.1387,-1.043,-1.0312,-1.0312,-1.0312,-1.0312,-1.0312,-1.0312,-1.031,-1.0307,-1.0282,-1.0274,-1.0242,-1.0202,-1.0193,-1.02,-1.0191,-1.02,-1.019,-1.02,-1.0201,-1.0321,-1.0658,-4.3479,-4.3479,-4.3479,-4.3481,-4.3394,-4.3394,-4.3158,-4.2704,-4.2776,-4.2611,-4.2406,-4.2441,-4.1962,-4.1111,-4.0763,-4.0616,-4.0598,-4.0267,-3.9955,-3.9643,-3.9625,-3.9203,-3.845,-3.7918,-3.7716,-3.7716,-3.7716,-3.7734,-3.7643,-3.7239,-3.6395,-3.5257,-3.4321,-3.3275,-3.2302,-3.1384,-3.0118,-2.8576,-2.8521,-2.7567,-2.5823,-2.5144,-2.4685,-2.4245,-2.419,-2.419,-2.419,-2.419,-2.419,-2.419,-2.4191,-2.421,-2.4247,-2.4411,-2.453,-2.4596,-2.4934,-2.501,-2.4877,-2.6025,-2.6723,-2.6776,-2.7116,-2.6954,-2.6128,-2.5745,-2.5197,-2.4351,-2.3408,-2.2793,-2.2831,-2.2793,-2.2793,-2.2763,-2.2502,-2.1971,-2.1159,-2.0318,-1.9342,-1.8194,-1.7171,-1.6497,-1.6126,-1.5691,-1.544,-1.5412,-1.54,-1.5248,-1.4703,-1.359,-1.2732,-1.2107,-1.1053,-1.041,-1.0312,-1.0312,-1.0312,-1.0312,-1.0312,-1.0312,-1.0312,-1.0311,-1.0308,-1.0324,-1.0278,-1.023,-1.0185,-1.0201,-1.0197,-1.0199,-1.0227,-1.0257,-1.0263,-1.0265,-1.0458,-4.3463,-4.3481,-4.3463,-4.3393,-4.3323,-4.3323,-4.3233,-4.3105,-4.3105,-4.3142,-4.3269,-4.3305,-4.2754,-4.1797,-4.1519,-4.1442,-4.1423,-4.1203,-4.1097,-4.1097,-4.1097,-4.0781,-4.0194,-3.9662,-3.935,-3.9368,-3.9368,-3.9368,-3.9276,-3.8542,-3.7734,-3.6853,-3.5514,-3.4468,-3.3733,-3.2577,-3.1256,-2.9806,-2.9434,-2.865,-2.7346,-2.6465,-2.5566,-2.4649,-2.452,-2.4428,-2.4208,-2.419,-2.419,-2.419,-2.4209,-2.421,-2.421,-2.4375,-2.461,-2.4916,-2.5631,-2.6266,-2.6656,-2.7529,-2.8045,-2.8096,-2.8114,-2.7869,-2.7324,-2.7031,-2.6553,-2.5687,-2.4543,-2.3851,-2.3505,-2.3485,-2.3485,-2.3485,-2.3331,-2.2821,-2.201,-2.1163,-2.0207,-1.9156,-1.7991,-1.6985,-1.6546,-1.5893,-1.5363,-1.537,-1.5381,-1.5235,-1.4516,-1.3756,-1.29,-1.2041,-1.1202,-1.06,-1.037,-1.0312,-1.0312,-1.0312,-1.0312,-1.0312,-1.0312,-1.0312,-1.0311,-1.0309,-1.0308,-1.0305,-1.0243,-1.0223,-1.0304,-1.0268,-1.029,-1.035,-1.0293,-1.0293,-1.0293,-4.3376,-4.3376,-4.3394,-4.3287,-4.3104,-4.3104,-4.303,-4.286,-4.2822,-4.286,-4.2975,-4.3123,-4.325,-4.3138,-4.2493,-4.2249,-4.2158,-4.1552,-4.1244,-4.1244,-4.1207,-4.1111,-4.1056,-4.102,-4.0965,-4.0799,-4.0855,-4.091,-4.0891,-4.012,-3.9386,-3.856,-3.7551,-3.6083,-3.4284,-3.377,-3.2889,-3.1403,-3.0613,-2.9751,-2.8883,-2.8099,-2.6961,-2.5605,-2.5366,-2.4997,-2.4355,-2.4208,-2.4208,-2.4208,-2.4209,-2.419,-2.4229,-2.4358,-2.4889,-2.5745,-2.6072,-2.6507,-2.7346,-2.8284,-2.8831,-2.8864,-2.8899,-2.8894,-2.8619,-2.8092,-2.7404,-2.6601,-2.637,-2.5967,-2.5236,-2.4937,-2.4976,-2.4957,-2.4428,-2.3687,-2.284,-2.207,-2.0762,-1.9507,-1.8885,-1.8069,-1.6753,-1.5795,-1.5474,-1.5414,-1.5413,-1.5351,-1.5136,-1.4502,-1.3646,-1.2828,-1.1971,-1.1175,-1.0521,-1.031,-1.0312,-1.0312,-1.0312,-1.0312,-1.0312,-1.0312,-1.0312,-1.0371,-1.0527,-1.0526,-1.0369,-1.0351,-1.0488,-1.0508,-1.0488,-1.0487,-1.0328,-1.0306,-1.0284,-4.3233,-4.3215,-4.3251,-4.3142,-4.2994,-4.3067,-4.2992,-4.2783,-4.2783,-4.284,-4.286,-4.2975,-4.3068,-4.3196,-4.3101,-4.3041,-4.3039,-4.2713,-4.2551,-4.2569,-4.2463,-4.2242,-4.1818,-4.18,-4.1541,-4.1207,-4.1644,-4.1882,-4.1699,-4.0561,-3.9753,-3.9294,-3.812,-3.6982,-3.6119,-3.5092,-3.4009,-3.2981,-3.2155,-3.1109,-2.9898,-2.9475,-2.8576,-2.7034,-2.6429,-2.5768,-2.5017,-2.498,-2.4722,-2.4226,-2.419,-2.4209,-2.4265,-2.4782,-2.5301,-2.585,-2.687,-2.7685,-2.8145,-2.8998,-2.9554,-2.9551,-2.9646,-2.9417,-2.8981,-2.8664,-2.8245,-2.7577,-2.7418,-2.7044,-2.6255,-2.5649,-2.5303,-2.5255,-2.5043,-2.4505,-2.3821,-2.3321,-2.2513,-2.0897,-1.975,-1.8538,-1.7548,-1.6598,-1.6082,-1.6014,-1.5652,-1.54,-1.519,-1.4571,-1.3933,-1.3448,-1.242,-1.1397,-1.1192,-1.0592,-1.0308,-1.031,-1.0311,-1.0311,-1.0311,-1.0312,-1.0312,-1.0448,-1.0643,-1.1131,-1.1131,-1.1479,-1.1436,-1.112,-1.1079,-1.0687,-1.0347,-1.0344,-1.0281,-4.3068,-4.303,-4.3068,-4.2975,-4.2824,-4.2899,-4.2878,-4.2724,-4.2667,-4.2627,-4.2649,-4.2691,-4.2824,-4.2956,-4.316,-4.3305,-4.3376,-4.3376,-4.3394,-4.334,-4.3233,-4.2905,-4.2557,-4.2519,-4.2244,-4.1928,-4.2294,-4.2569,-4.2475,-4.1266,-4.0547,-4.0162,-3.8891,-3.8003,-3.7349,-3.6101,-3.5018,-3.4174,-3.3164,-3.2027,-3.1035,-3.0448,-2.9714,-2.865,-2.7805,-2.6722,-2.5495,-2.5384,-2.5016,-2.4337,-2.419,-2.419,-2.4283,-2.504,-2.5671,-2.6135,-2.7419,-2.8465,-2.8836,-2.9452,-2.9825,-2.9859,-2.9943,-2.9722,-2.9216,-2.926,-2.8938,-2.8413,-2.8219,-2.7896,-2.705,-2.6205,-2.559,-2.538,-2.5313,-2.4966,-2.4225,-2.4091,-2.3225,-2.1658,-2.0281,-1.9172,-1.8293,-1.7427,-1.6866,-1.6563,-1.5985,-1.5656,-1.5274,-1.4833,-1.4271,-1.3981,-1.3117,-1.2371,-1.1899,-1.1322,-1.0609,-1.0478,-1.0307,-1.0307,-1.0306,-1.0308,-1.0366,-1.0518,-1.0964,-1.1605,-1.2127,-1.2512,-1.2386,-1.2007,-1.1538,-1.1129,-1.0768,-1.039,-1.0518,-4.2862,-4.2783,-4.2862,-4.2786,-4.2591,-4.2609,-4.2548,-4.2486,-4.2458,-4.2471,-4.2489,-4.2499,-4.2669,-4.2663,-4.293,-4.301,-4.3086,-4.3233,-4.3251,-4.3178,-4.3141,-4.3049,-4.2995,-4.3014,-4.3032,-4.2977,-4.3142,-4.316,-4.3032,-4.2282,-4.1567,-4.0888,-4.0093,-3.8982,-3.7588,-3.678,-3.5881,-3.4926,-3.3605,-3.2706,-3.2412,-3.1127,-3.0301,-2.9989,-2.931,-2.786,-2.5642,-2.5495,-2.5144,-2.4392,-2.4208,-2.419,-2.4412,-2.5149,-2.5927,-2.6782,-2.7734,-2.8594,-2.9324,-2.9589,-2.9683,-2.9701,-2.9774,-2.9786,-2.9739,-2.9867,-2.9665,-2.9109,-2.897,-2.867,-2.7865,-2.7098,-2.6296,-2.5466,-2.538,-2.4976,-2.4409,-2.411,-2.3447,-2.1908,-2.0812,-1.9965,-1.9126,-1.8293,-1.7549,-1.6862,-1.6455,-1.6066,-1.5448,-1.5135,-1.4873,-1.4308,-1.3724,-1.3229,-1.2641,-1.2035,-1.1278,-1.0659,-1.0415,-1.0282,-1.0279,-1.0278,-1.0275,-1.0464,-1.1357,-1.2037,-1.3177,-1.3481,-1.3217,-1.2817,-1.2229,-1.1773,-1.1467,-1.1244,-1.114,-4.2512,-4.2468,-4.2552,-4.2454,-4.2287,-4.2351,-4.2369,-4.2399,-4.2774,-4.2939,-4.2942,-4.3411,-4.3358,-4.2974,-4.3096,-4.2996,-4.2649,-4.2804,-4.2918,-4.2938,-4.2842,-4.2822,-4.286,-4.2862,-4.2938,-4.3123,-4.3123,-4.3068,-4.2868,-4.2341,-4.1813,-4.1411,-4.0379,-3.9566,-3.8925,-3.7778,-3.6707,-3.5881,-3.4835,-3.3743,-3.2698,-3.2137,-3.1347,-3.0283,-2.9934,-2.8925,-2.7203,-2.6521,-2.5841,-2.5052,-2.4483,-2.4448,-2.5035,-2.5807,-2.6657,-2.7511,-2.8389,-2.8971,-2.9275,-2.9411,-2.9433,-2.9453,-2.9531,-2.9626,-2.9682,-2.9822,-2.9804,-2.962,-2.966,-2.9379,-2.8635,-2.8267,-2.7485,-2.6261,-2.5648,-2.5254,-2.4889,-2.4456,-2.361,-2.2562,-2.1639,-2.0812,-1.9965,-1.9146,-1.8306,-1.7459,-1.6888,-1.6239,-1.5507,-1.5281,-1.5204,-1.4852,-1.4414,-1.4005,-1.3537,-1.297,-1.2261,-1.1499,-1.103,-1.0575,-1.0475,-1.0258,-1.0254,-1.0831,-1.1704,-1.2692,-1.3833,-1.4251,-1.4004,-1.3737,-1.3319,-1.2877,-1.2451,-1.2149,-1.1905,-4.2632,-4.2572,-4.2311,-4.2145,-4.1995,-4.2037,-4.2019,-4.2143,-4.2784,-4.2988,-4.3075,-4.3645,-4.3511,-4.2914,-4.2953,-4.2711,-4.2181,-4.231,-4.2472,-4.2534,-4.2512,-4.253,-4.2609,-4.2591,-4.2652,-4.2804,-4.2783,-4.2688,-4.2577,-4.226,-4.1976,-4.1542,-4.0903,-4.0233,-3.9699,-3.8566,-3.7551,-3.6707,-3.5587,-3.4495,-3.3605,-3.2926,-3.2137,-3.1164,-3.0522,-2.9714,-2.8668,-2.764,-2.6686,-2.586,-2.5071,-2.5052,-2.5786,-2.6337,-2.6982,-2.7834,-2.8614,-2.916,-2.92,-2.9265,-2.9267,-2.9289,-2.9351,-2.9433,-2.9492,-2.9645,-2.9753,-2.9786,-2.9851,-2.9728,-2.9254,-2.8833,-2.828,-2.7472,-2.6397,-2.5666,-2.5351,-2.487,-2.4005,-2.3043,-2.2274,-2.1485,-2.0504,-1.9908,-1.9126,-1.8299,-1.7465,-1.6638,-1.5888,-1.5401,-1.5311,-1.5176,-1.4835,-1.4544,-1.4414,-1.3885,-1.3257,-1.2491,-1.1783,-1.1272,-1.0906,-1.046,-1.0263,-1.1479,-1.2465,-1.3395,-1.4497,-1.4861,-1.4848,-1.4579,-1.4188,-1.3658,-1.3074,-1.2656,-1.2467,-4.3121,-4.3015,-4.2308,-4.2053,-4.1965,-4.1824,-4.1762,-4.1815,-4.2472,-4.2765,-4.28,-4.3506,-4.3336,-4.2658,-4.2713,-4.2317,-4.1762,-4.1874,-4.2065,-4.2101,-4.2246,-4.2347,-4.2264,-4.2269,-4.2292,-4.2315,-4.221,-4.2103,-4.2068,-4.2185,-4.206,-4.1528,-4.1615,-4.1245,-4.0072,-3.9127,-3.8328,-3.7429,-3.6017,-3.521,-3.4935,-3.3615,-3.2761,-3.2559,-3.1274,-3.0375,-2.9806,-2.8613,-2.7475,-2.6631,-2.5823,-2.5823,-2.6502,-2.6686,-2.7108,-2.7938,-2.868,-2.9016,-2.9112,-2.9134,-2.9178,-2.9178,-2.9222,-2.9304,-2.933,-2.9453,-2.957,-2.9589,-2.97,-2.9735,-2.9528,-2.9147,-2.8704,-2.8495,-2.7192,-2.6132,-2.5427,-2.5264,-2.4514,-2.3351,-2.2774,-2.2216,-2.068,-2.0342,-1.9773,-1.9049,-1.8222,-1.7491,-1.6676,-1.6061,-1.5465,-1.5247,-1.5203,-1.4908,-1.4741,-1.453,-1.3964,-1.3628,-1.2848,-1.2131,-1.1501,-1.0979,-1.103,-1.2208,-1.3034,-1.4043,-1.4767,-1.5106,-1.525,-1.5003,-1.4566,-1.4129,-1.3792,-1.3455,-1.331,-4.3388,-4.3371,-4.3161,-4.3074,-4.2969,-4.2358,-4.2079,-4.223,-4.2749,-4.293,-4.3195,-4.4234,-4.4165,-4.3494,-4.2959,-4.2455,-4.1938,-4.1562,-4.1831,-4.2296,-4.2447,-4.2291,-4.1998,-4.1874,-4.1856,-4.1881,-4.1796,-4.1727,-4.1596,-4.1796,-4.1842,-4.1772,-4.1636,-4.1468,-4.1016,-3.9935,-3.8976,-3.8172,-3.7247,-3.6333,-3.5721,-3.4871,-3.4055,-3.3421,-3.246,-3.1384,-3.032,-2.9237,-2.8007,-2.6722,-2.6429,-2.6649,-2.7383,-2.7475,-2.7769,-2.8521,-2.8833,-2.9021,-2.9021,-2.9044,-2.9044,-2.9062,-2.9112,-2.9156,-2.9156,-2.9304,-2.9368,-2.939,-2.9394,-2.9435,-2.9416,-2.9326,-2.9062,-2.8515,-2.7399,-2.6232,-2.555,-2.5264,-2.486,-2.3852,-2.3189,-2.2334,-2.1385,-2.0617,-2.0,-1.9258,-1.8739,-1.833,-1.7471,-1.6676,-1.6087,-1.5837,-1.5658,-1.53,-1.5025,-1.4929,-1.4756,-1.4629,-1.3975,-1.3137,-1.2469,-1.1795,-1.2305,-1.3242,-1.3407,-1.4167,-1.4747,-1.5201,-1.5209,-1.5177,-1.4967,-1.4571,-1.4672,-1.4511,-1.4373,-4.3798,-4.3679,-4.3385,-4.3247,-4.3126,-4.2337,-4.2009,-4.2078,-4.2324,-4.2687,-4.3134,-4.4076,-4.409,-4.332,-4.2894,-4.2364,-4.1746,-4.1526,-4.1912,-4.2549,-4.2718,-4.2462,-4.202,-4.1663,-4.1436,-4.1328,-4.1328,-4.1226,-4.1163,-4.1328,-4.149,-4.1682,-4.1747,-4.169,-4.1486,-4.0908,-3.987,-3.8867,-3.8045,-3.7307,-3.6553,-3.5809,-3.5034,-3.4229,-3.3433,-3.2324,-3.0889,-3.0265,-2.9274,-2.7952,-2.7365,-2.7475,-2.8172,-2.7952,-2.8172,-2.8902,-2.8975,-2.8998,-2.8975,-2.8975,-2.8975,-2.9017,-2.904,-2.9062,-2.9085,-2.9171,-2.9218,-2.9218,-2.9243,-2.9267,-2.927,-2.9353,-2.9101,-2.8498,-2.7717,-2.6833,-2.5895,-2.548,-2.4867,-2.4138,-2.3524,-2.2767,-2.1646,-2.0995,-2.0344,-1.9643,-1.9107,-1.8712,-1.8202,-1.7447,-1.6857,-1.6658,-1.6223,-1.5818,-1.5441,-1.5269,-1.5016,-1.494,-1.4704,-1.3933,-1.3237,-1.258,-1.2976,-1.3519,-1.3805,-1.4154,-1.4729,-1.512,-1.5139,-1.5106,-1.508,-1.5033,-1.5008,-1.4968,-1.4928,-4.4319,-4.4007,-4.334,-4.3066,-4.3049,-4.2108,-4.1801,-4.1732,-4.1681,-4.1938,-4.2603,-4.335,-4.3416,-4.2617,-4.2804,-4.2328,-4.1699,-4.1851,-4.2363,-4.2859,-4.3014,-4.2806,-4.2469,-4.1635,-4.1155,-4.0953,-4.0728,-4.0697,-4.0728,-4.0901,-4.1071,-4.1356,-4.1785,-4.1818,-4.1536,-4.1407,-4.0763,-3.9572,-3.8612,-3.7975,-3.7265,-3.6526,-3.5769,-3.5162,-3.3998,-3.2948,-3.1829,-3.1256,-3.0558,-2.9163,-2.8429,-2.8448,-2.8888,-2.8264,-2.8319,-2.881,-2.8975,-2.8975,-2.8975,-2.8975,-2.8975,-2.8975,-2.8975,-2.8975,-2.9017,-2.9085,-2.9108,-2.9108,-2.9134,-2.9178,-2.9181,-2.9249,-2.9054,-2.8596,-2.8408,-2.7754,-2.6792,-2.5817,-2.4992,-2.4236,-2.4083,-2.3078,-2.2102,-2.1367,-2.1023,-1.9898,-1.9468,-1.9247,-1.8827,-1.8217,-1.7827,-1.7647,-1.7077,-1.6385,-1.5988,-1.56,-1.5293,-1.508,-1.4962,-1.4437,-1.3761,-1.3322,-1.3456,-1.3733,-1.4133,-1.4447,-1.4787,-1.4992,-1.5019,-1.5019,-1.4992,-1.4944,-1.4904,-1.4859,-1.4804,-4.5192,-4.463,-4.4477,-4.4446,-4.426,-4.296,-4.2278,-4.2244,-4.1562,-4.1358,-4.1816,-4.2881,-4.3305,-4.3152,-4.3085,-4.3119,-4.2797,-4.26,-4.2807,-4.3596,-4.3698,-4.3594,-4.3151,-4.2158,-4.1216,-4.0788,-4.0583,-4.0485,-4.0436,-4.0566,-4.0741,-4.096,-4.1265,-4.149,-4.158,-4.1174,-4.0806,-4.0224,-3.9238,-3.8599,-3.8205,-3.7264,-3.6552,-3.6146,-3.4588,-3.3249,-3.2354,-3.1657,-3.0894,-3.0149,-2.9806,-2.9567,-2.9049,-2.8815,-2.8815,-2.8883,-2.8975,-2.8975,-2.8975,-2.8975,-2.8975,-2.8975,-2.8975,-2.8975,-2.8975,-2.8998,-2.9021,-2.9021,-2.904,-2.9067,-2.9112,-2.9134,-2.9092,-2.892,-2.8553,-2.8166,-2.7729,-2.67,-2.5872,-2.5424,-2.4531,-2.3347,-2.2336,-2.1585,-2.1009,-2.0177,-1.9867,-1.9764,-1.9373,-1.8897,-1.8678,-1.846,-1.7984,-1.7282,-1.6574,-1.6092,-1.5563,-1.5335,-1.5213,-1.512,-1.4428,-1.4295,-1.4478,-1.4521,-1.4551,-1.4785,-1.4849,-1.4857,-1.4866,-1.4885,-1.4904,-1.4859,-1.4813,-1.4756,-1.4717,-4.5433,-4.4737,-4.4682,-4.4737,-4.4521,-4.3124,-4.2375,-4.2155,-4.1171,-4.0882,-4.1288,-4.21,-4.2557,-4.2878,-4.2912,-4.3031,-4.3403,-4.3508,-4.3752,-4.4164,-4.4181,-4.4011,-4.3566,-4.2785,-4.1937,-4.0951,-4.0474,-4.0305,-4.0238,-4.0355,-4.0517,-4.0645,-4.0913,-4.1128,-4.1356,-4.1086,-4.0762,-4.0366,-3.9864,-3.9368,-3.888,-3.8148,-3.7147,-3.6656,-3.5259,-3.4262,-3.4029,-3.334,-3.2593,-3.1916,-3.1437,-3.0528,-2.9269,-2.8994,-2.8994,-2.8975,-2.8975,-2.8975,-2.8975,-2.8975,-2.8975,-2.8975,-2.8975,-2.8975,-2.8975,-2.8975,-2.8975,-2.8975,-2.8998,-2.8998,-2.9044,-2.9044,-2.9108,-2.9119,-2.883,-2.8637,-2.85,-2.747,-2.6412,-2.6103,-2.5295,-2.4209,-2.3201,-2.2133,-2.1349,-2.0684,-1.9906,-1.9771,-1.9787,-1.9367,-1.9322,-1.9111,-1.8768,-1.8177,-1.7341,-1.66,-1.5843,-1.5647,-1.5572,-1.5533,-1.5271,-1.5392,-1.5623,-1.5367,-1.5003,-1.4705,-1.4737,-1.4747,-1.4812,-1.4794,-1.4812,-1.4793,-1.4734,-1.4645,-1.4611,-4.5546,-4.4739,-4.4621,-4.457,-4.4333,-4.2946,-4.2303,-4.2083,-4.0713,-4.046,-4.1001,-4.1136,-4.1779,-4.2236,-4.2523,-4.2929,-4.3606,-4.4147,-4.4473,-4.449,-4.449,-4.4236,-4.3724,-4.3284,-4.2692,-4.1525,-4.0985,-4.0612,-4.0426,-4.0358,-4.0542,-4.0536,-4.0645,-4.0789,-4.0931,-4.099,-4.0741,-4.0266,-4.007,-3.9861,-3.9326,-3.8748,-3.7848,-3.6738,-3.5932,-3.5385,-3.5187,-3.4775,-3.4316,-3.3603,-3.2995,-3.1495,-2.9972,-2.9195,-2.9177,-2.92,-2.9104,-2.8975,-2.8975,-2.8975,-2.8975,-2.8975,-2.8975,-2.8975,-2.8975,-2.8975,-2.8975,-2.8975,-2.8975,-2.8975,-2.8975,-2.8998,-2.904,-2.9067,-2.9067,-2.9134,-2.9021,-2.8109,-2.725,-2.6289,-2.5691,-2.4762,-2.3662,-2.26,-2.188,-2.1189,-2.0406,-1.9892,-1.9931,-1.9763,-1.9607,-1.9538,-1.9182,-1.8652,-1.7845,-1.7064,-1.6321,-1.6172,-1.606,-1.6056,-1.6052,-1.6127,-1.6127,-1.5704,-1.5332,-1.518,-1.5095,-1.5202,-1.5176,-1.4913,-1.4699,-1.4643,-1.46,-1.4545,-1.4524,-4.6177,-4.5466,-4.484,-4.457,-4.4333,-4.2946,-4.2303,-4.2049,-4.0713,-4.0155,-4.0341,-4.0916,-4.1559,-4.2269,-4.298,-4.3623,-4.4164,-4.4502,-4.457,-4.457,-4.457,-4.4384,-4.4231,-4.3775,-4.3284,-4.2963,-4.2286,-4.166,-4.1119,-4.1035,-4.0748,-4.0474,-4.0387,-4.0485,-4.0566,-4.0597,-4.0611,-4.0285,-4.0048,-3.979,-3.9648,-3.9129,-3.831,-3.7143,-3.6465,-3.5954,-3.5488,-3.5316,-3.4727,-3.3467,-3.3361,-3.2392,-3.1206,-3.043,-3.0094,-2.9898,-2.9512,-2.9292,-2.914,-2.9067,-2.9012,-2.8975,-2.8975,-2.8975,-2.8975,-2.8975,-2.8975,-2.8975,-2.8975,-2.8975,-2.8975,-2.8975,-2.8998,-2.8998,-2.9021,-2.9044,-2.9038,-2.8735,-2.797,-2.6786,-2.6024,-2.517,-2.4001,-2.3056,-2.2446,-2.1779,-2.1108,-2.0678,-2.0629,-2.0155,-1.9609,-1.9564,-1.9504,-1.8916,-1.8269,-1.7512,-1.6848,-1.6829,-1.6761,-1.6748,-1.6728,-1.6698,-1.6552,-1.6518,-1.6373,-1.6263,-1.6115,-1.5864,-1.5698,-1.5564,-1.5104,-1.4607,-1.4787,-1.4952,-1.455,-4.6143,-4.5111,-4.4722,-4.457,-4.4299,-4.2946,-4.2303,-4.2066,-4.0747,-4.0087,-4.0172,-4.051,-4.1271,-4.2134,-4.2608,-4.3453,-4.4333,-4.457,-4.457,-4.457,-4.457,-4.457,-4.457,-4.4147,-4.4062,-4.3927,-4.3589,-4.2811,-4.1813,-4.1339,-4.1103,-4.0798,-4.0425,-4.0238,-4.0271,-4.0271,-4.0288,-4.0218,-4.0061,-3.9953,-4.0044,-3.9497,-3.8703,-3.7955,-3.7323,-3.6869,-3.6562,-3.5847,-3.5455,-3.4789,-3.4163,-3.3509,-3.2734,-3.191,-3.1166,-3.0821,-3.0411,-2.9989,-2.9714,-2.9622,-2.9452,-2.903,-2.8994,-2.8975,-2.8975,-2.8975,-2.8975,-2.8975,-2.8975,-2.8975,-2.8975,-2.8975,-2.8975,-2.8975,-2.8975,-2.8998,-2.9021,-2.9062,-2.819,-2.7073,-2.6483,-2.5541,-2.4173,-2.3399,-2.2921,-2.2385,-2.1793,-2.1514,-2.1327,-2.0511,-1.9763,-1.9693,-1.9645,-1.9199,-1.8647,-1.8049,-1.7504,-1.7485,-1.7439,-1.741,-1.749,-1.7491,-1.7762,-1.7941,-1.7736,-1.71,-1.6739,-1.6338,-1.6283,-1.6242,-1.5891,-1.5592,-1.5474,-1.5311,-1.4936,-4.6007,-4.479,-4.4637,-4.457,-4.4316,-4.2946,-4.2303,-4.1999,-4.073,-4.0087,-4.0087,-4.0172,-4.0849,-4.188,-4.2557,-4.3301,-4.4519,-4.457,-4.457,-4.457,-4.457,-4.457,-4.457,-4.457,-4.4502,-4.4418,-4.4401,-4.3859,-4.2675,-4.2083,-4.1677,-4.1356,-4.0764,-4.0392,-4.0443,-4.0493,-4.0273,-4.0138,-4.0188,-4.0238,-4.0167,-3.9751,-3.9272,-3.8648,-3.8165,-3.7818,-3.7415,-3.6799,-3.6169,-3.5685,-3.5048,-3.4378,-3.4177,-3.343,-3.2573,-3.1889,-3.1547,-3.1004,-3.0583,-3.0106,-2.9771,-2.9368,-2.908,-2.9012,-2.8975,-2.8975,-2.8975,-2.8975,-2.8975,-2.8975,-2.8975,-2.8975,-2.8975,-2.8975,-2.8975,-2.8998,-2.8998,-2.8796,-2.8172,-2.7371,-2.6896,-2.5774,-2.432,-2.3897,-2.3474,-2.318,-2.2609,-2.2206,-2.1892,-2.0698,-2.0016,-1.9887,-1.9743,-1.9402,-1.8992,-1.8638,-1.8261,-1.8172,-1.8109,-1.8063,-1.821,-1.8322,-1.8537,-1.8538,-1.8038,-1.7396,-1.7102,-1.6926,-1.6905,-1.6851,-1.6682,-1.6402,-1.5964,-1.5722,-1.5465,-4.6312,-4.55,-4.484,-4.457,-4.435,-4.2946,-4.2303,-4.21,-4.0713,-4.0087,-4.0087,-4.0121,-4.0578,-4.1559,-4.2794,-4.3724,-4.4367,-4.457,-4.457,-4.457,-4.457,-4.457,-4.457,-4.457,-4.457,-4.457,-4.457,-4.4096,-4.3386,-4.3098,-4.2726,-4.2219,-4.1931,-4.1711,-4.1102,-4.095,-4.073,-4.0223,-4.0155,-4.0188,-4.0186,-3.9754,-3.9409,-3.9179,-3.8706,-3.816,-3.774,-3.7274,-3.6817,-3.5828,-3.5709,-3.5048,-3.4335,-3.4717,-3.4078,-3.301,-3.1964,-3.1188,-3.0998,-3.064,-3.0184,-2.9837,-2.9375,-2.8997,-2.8929,-2.897,-2.8994,-2.8975,-2.8975,-2.8975,-2.8975,-2.8975,-2.8975,-2.8975,-2.8975,-2.8994,-2.8975,-2.848,-2.7857,-2.716,-2.6484,-2.5548,-2.4337,-2.4208,-2.4025,-2.3768,-2.3474,-2.3052,-2.2484,-2.1423,-2.042,-2.0327,-2.0238,-1.9914,-1.9739,-1.9325,-1.9111,-1.8949,-1.8861,-1.8787,-1.8873,-1.8958,-1.86,-1.8473,-1.8065,-1.7946,-1.7861,-1.7736,-1.7608,-1.7396,-1.7204,-1.6728,-1.615,-1.601,-1.5993,-4.5737,-4.5043,-4.4722,-4.457,-4.4367,-4.2946,-4.2303,-4.1982,-4.073,-4.0087,-4.0087,-4.0087,-4.0713,-4.1863,-4.2997,-4.3826,-4.4434,-4.457,-4.457,-4.457,-4.457,-4.457,-4.457,-4.457,-4.457,-4.457,-4.4553,-4.4485,-4.4028,-4.3606,-4.3183,-4.2963,-4.2523,-4.2134,-4.1796,-4.1407,-4.1068,-4.0679,-4.0358,-4.0138,-4.0103,-3.9932,-3.9778,-3.9761,-3.916,-3.8696,-3.8299,-3.7562,-3.718,-3.636,-3.6087,-3.5395,-3.4935,-3.4871,-3.4445,-3.3568,-3.2969,-3.2379,-3.1735,-3.1384,-3.0966,-3.0475,-2.9864,-2.9357,-2.9046,-2.8929,-2.897,-2.8975,-2.8975,-2.8975,-2.8975,-2.8975,-2.8975,-2.8975,-2.8994,-2.8952,-2.8787,-2.8105,-2.7519,-2.6805,-2.6072,-2.5155,-2.4405,-2.4205,-2.4096,-2.3968,-2.3821,-2.3601,-2.3197,-2.2574,-2.1625,-2.0789,-2.0735,-2.0589,-2.0493,-2.0289,-2.0078,-1.9929,-1.9847,-1.9745,-1.965,-1.9534,-1.9125,-1.8739,-1.8423,-1.842,-1.8577,-1.8316,-1.7946,-1.7803,-1.7695,-1.7285,-1.6896,-1.6595,-1.6454,-4.5094,-4.457,-4.457,-4.4468,-4.4164,-4.2844,-4.2168,-4.1847,-4.0646,-4.0087,-4.0138,-4.0307,-4.1119,-4.2236,-4.3064,-4.3842,-4.4553,-4.457,-4.457,-4.457,-4.457,-4.457,-4.457,-4.457,-4.457,-4.457,-4.457,-4.4519,-4.4367,-4.4079,-4.3775,-4.369,-4.3318,-4.2828,-4.2489,-4.2134,-4.1745,-4.1068,-4.0409,-4.0155,-4.0121,-4.0121,-4.0087,-3.9952,-3.9696,-3.9338,-3.8982,-3.8312,-3.7706,-3.6901,-3.6405,-3.5797,-3.5318,-3.5252,-3.4754,-3.4108,-3.3794,-3.3564,-3.2752,-3.2138,-3.1732,-3.108,-3.0297,-2.9507,-2.9223,-2.8998,-2.8863,-2.8929,-2.8947,-2.8929,-2.8952,-2.8952,-2.8952,-2.897,-2.8994,-2.8929,-2.8717,-2.7898,-2.7205,-2.6571,-2.5801,-2.4941,-2.4361,-2.4125,-2.4036,-2.4094,-2.4075,-2.4019,-2.3575,-2.3037,-2.2253,-2.1216,-2.0994,-2.0916,-2.0909,-2.087,-2.0807,-2.0772,-2.0657,-2.0471,-2.0223,-1.9935,-1.9596,-1.9212,-1.8898,-1.8984,-1.9211,-1.8724,-1.8266,-1.8058,-1.7919,-1.7997,-1.7776,-1.7363,-1.6965,-4.4621,-4.457,-4.457,-4.4181,-4.347,-4.2625,-4.1897,-4.1322,-4.046,-4.0087,-4.0172,-4.0781,-4.1474,-4.232,-4.3081,-4.3842,-4.457,-4.457,-4.457,-4.457,-4.457,-4.457,-4.457,-4.457,-4.457,-4.457,-4.457,-4.457,-4.4553,-4.4451,-4.4384,-4.4434,-4.4096,-4.3826,-4.342,-4.2895,-4.2134,-4.1322,-4.046,-4.0104,-4.0087,-4.0087,-4.0087,-4.0087,-4.0019,-3.9748,-3.9056,-3.8766,-3.8255,-3.7308,-3.6983,-3.6319,-3.571,-3.5877,-3.5423,-3.4506,-3.4601,-3.4332,-3.3611,-3.2491,-3.1611,-3.1053,-3.041,-2.9763,-2.9654,-2.9069,-2.8846,-2.9041,-2.9174,-2.8998,-2.8967,-2.8858,-2.8834,-2.8858,-2.8881,-2.8852,-2.8427,-2.7501,-2.6814,-2.6272,-2.5583,-2.4773,-2.4223,-2.4009,-2.3894,-2.3935,-2.3858,-2.378,-2.3271,-2.2751,-2.2221,-2.1547,-2.121,-2.1078,-2.1082,-2.1105,-2.1207,-2.1174,-2.1042,-2.0803,-2.0556,-2.0284,-2.0116,-1.993,-1.9726,-1.9772,-1.9679,-1.9154,-1.8648,-1.8263,-1.816,-1.842,-1.8155,-1.762,-1.7344,-4.457,-4.457,-4.457,-4.413,-4.3352,-4.2608,-4.188,-4.1153,-4.0426,-4.0087,-4.0189,-4.0882,-4.161,-4.2354,-4.3081,-4.3842,-4.4485,-4.457,-4.457,-4.457,-4.457,-4.457,-4.457,-4.457,-4.457,-4.457,-4.457,-4.457,-4.457,-4.457,-4.457,-4.457,-4.457,-4.4434,-4.4028,-4.3217,-4.2202,-4.139,-4.0544,-4.0087,-4.0087,-4.0087,-4.0087,-4.0087,-4.0087,-3.9969,-3.9631,-3.9208,-3.8732,-3.8255,-3.784,-3.7081,-3.6307,-3.6566,-3.5968,-3.4837,-3.505,-3.4672,-3.4083,-3.2991,-3.2196,-3.1243,-3.0804,-3.0427,-3.0245,-2.9971,-3.0026,-2.9989,-2.9616,-2.9406,-2.9414,-2.9032,-2.8705,-2.8737,-2.8718,-2.8687,-2.8243,-2.732,-2.6788,-2.6433,-2.5578,-2.4669,-2.4234,-2.3853,-2.3808,-2.3753,-2.3649,-2.349,-2.3048,-2.2734,-2.2329,-2.2083,-2.1815,-2.1755,-2.1773,-2.1749,-2.1713,-2.1584,-2.1429,-2.1318,-2.1165,-2.0943,-2.0798,-2.0645,-2.0407,-2.0246,-1.9951,-1.9479,-1.9157,-1.8981,-1.8965,-1.9087,-1.8589,-1.7919,-1.7658,-4.457,-4.4536,-4.4316,-4.3775,-4.3064,-4.2506,-4.1745,-4.0882,-4.0307,-4.0257,-4.046,-4.1187,-4.1948,-4.2675,-4.3436,-4.4012,-4.4485,-4.457,-4.457,-4.457,-4.457,-4.457,-4.457,-4.457,-4.457,-4.457,-4.457,-4.457,-4.457,-4.457,-4.457,-4.457,-4.457,-4.4536,-4.4198,-4.3115,-4.2033,-4.1474,-4.0612,-4.0104,-4.0087,-4.0087,-4.0087,-4.0087,-4.0087,-4.007,-3.9918,-3.9614,-3.9259,-3.8885,-3.8475,-3.7946,-3.7403,-3.6939,-3.645,-3.5786,-3.5189,-3.4832,-3.4301,-3.3355,-3.2535,-3.1498,-3.1078,-3.0873,-3.0796,-3.0642,-3.0337,-3.0507,-3.014,-2.9934,-2.9926,-2.9539,-2.9089,-2.9116,-2.8531,-2.8352,-2.8022,-2.7334,-2.6996,-2.6632,-2.5711,-2.4817,-2.4501,-2.4123,-2.3726,-2.3567,-2.3283,-2.3212,-2.3052,-2.28,-2.2726,-2.2563,-2.247,-2.2514,-2.2616,-2.2314,-2.2029,-2.2027,-2.1946,-2.2044,-2.1898,-2.1634,-2.1498,-2.1465,-2.1157,-2.0689,-2.0518,-2.0492,-2.0183,-1.9832,-1.9731,-1.9479,-1.9175,-1.8522,-1.8081,-4.457,-4.4485,-4.3775,-4.3047,-4.2405,-4.2286,-4.1474,-4.0341,-4.0206,-4.0527,-4.1136,-4.188,-4.2625,-4.3352,-4.4012,-4.4418,-4.4519,-4.457,-4.457,-4.457,-4.457,-4.457,-4.457,-4.457,-4.457,-4.457,-4.457,-4.457,-4.457,-4.457,-4.457,-4.457,-4.457,-4.457,-4.4434,-4.3064,-4.232,-4.2049,-4.0781,-4.0223,-4.0087,-4.0087,-4.0087,-4.0087,-4.0087,-4.0087,-4.002,-3.9969,-3.9631,-3.9225,-3.9156,-3.8631,-3.8021,-3.7411,-3.7017,-3.6746,-3.5989,-3.5571,-3.5362,-3.3649,-3.262,-3.1878,-3.1614,-3.122,-3.0957,-3.0668,-3.0476,-3.0849,-3.0375,-3.0313,-3.026,-3.0148,-2.9668,-2.9272,-2.8685,-2.8372,-2.8105,-2.773,-2.7449,-2.7052,-2.6044,-2.5132,-2.4833,-2.4441,-2.3833,-2.3423,-2.3015,-2.2868,-2.2885,-2.2773,-2.2694,-2.2659,-2.2605,-2.2579,-2.2542,-2.246,-2.2354,-2.2394,-2.2366,-2.231,-2.2299,-2.2079,-2.2029,-2.2147,-2.1844,-2.1267,-2.1478,-2.1766,-2.1064,-2.0334,-1.9947,-1.9704,-1.946,-1.9077,-1.8463,-4.457,-4.4502,-4.3741,-4.298,-4.2269,-4.1762,-4.1001,-4.029,-4.0578,-4.0984,-4.1424,-4.2455,-4.3132,-4.3623,-4.4164,-4.457,-4.457,-4.457,-4.457,-4.457,-4.457,-4.457,-4.457,-4.457,-4.457,-4.457,-4.457,-4.457,-4.457,-4.457,-4.457,-4.457,-4.457,-4.457,-4.4164,-4.3166,-4.2303,-4.2016,-4.095,-4.0087,-4.0087,-4.0087,-4.0087,-4.0087,-4.0087,-4.0087,-4.0087,-4.0087,-3.9884,-3.9648,-3.9614,-3.9292,-3.8751,-3.8176,-3.7956,-3.7516,-3.6789,-3.5859,-3.5199,-3.4033,-3.3641,-3.298,-3.2346,-3.2018,-3.2152,-3.1619,-3.1411,-3.12,-3.0851,-3.0795,-3.0707,-3.0132,-2.9677,-2.9519,-2.9138,-2.9068,-2.8801,-2.8362,-2.7989,-2.7503,-2.6726,-2.5661,-2.5097,-2.4883,-2.4362,-2.3857,-2.3491,-2.2951,-2.2823,-2.263,-2.2515,-2.2487,-2.2432,-2.2405,-2.2366,-2.2366,-2.2338,-2.2338,-2.231,-2.2327,-2.2299,-2.2225,-2.218,-2.2101,-2.1986,-2.1903,-2.1721,-2.1538,-2.1224,-2.071,-2.028,-2.0013,-1.9881,-1.9279,-1.8493,-4.4012,-4.3707,-4.2963,-4.2371,-4.188,-4.1407,-4.0899,-4.0595,-4.1018,-4.1457,-4.2117,-4.3047,-4.3606,-4.391,-4.4299,-4.457,-4.457,-4.457,-4.457,-4.457,-4.457,-4.457,-4.457,-4.457,-4.457,-4.457,-4.457,-4.457,-4.457,-4.457,-4.457,-4.457,-4.457,-4.457,-4.4181,-4.342,-4.2557,-4.2117,-4.1136,-4.0375,-4.0206,-4.0087,-4.0087,-4.0087,-4.0087,-4.0087,-4.0087,-4.0087,-4.0087,-4.0087,-4.0003,-3.9851,-3.9445,-3.9056,-3.8785,-3.8193,-3.7246,-3.6349,-3.5622,-3.4996,-3.4617,-3.433,-3.3495,-3.3071,-3.2968,-3.2431,-3.2196,-3.1906,-3.1476,-3.1235,-3.0993,-3.0352,-3.0145,-3.0007,-2.9799,-2.9696,-2.9214,-2.8785,-2.8254,-2.7826,-2.7192,-2.6202,-2.5504,-2.5207,-2.4938,-2.4475,-2.4015,-2.3477,-2.2925,-2.2722,-2.2598,-2.2553,-2.244,-2.2406,-2.2344,-2.2282,-2.2282,-2.2271,-2.2225,-2.2197,-2.2152,-2.2049,-2.2065,-2.2007,-2.1844,-2.1648,-2.1386,-2.115,-2.0863,-2.0654,-2.0432,-2.0273,-2.0241,-1.9673,-1.8905,-4.2963,-4.2219,-4.1508,-4.1271,-4.1221,-4.1136,-4.1085,-4.1136,-4.1238,-4.2033,-4.3284,-4.3318,-4.3876,-4.4418,-4.457,-4.457,-4.457,-4.457,-4.457,-4.457,-4.457,-4.457,-4.457,-4.457,-4.457,-4.457,-4.457,-4.457,-4.457,-4.457,-4.457,-4.457,-4.457,-4.457,-4.4282,-4.3859,-4.3115,-4.2472,-4.1525,-4.0815,-4.046,-4.0155,-4.0104,-4.0087,-4.0087,-4.0087,-4.0087,-4.0087,-4.0087,-4.0087,-4.0054,-4.0054,-3.9834,-3.9394,-3.9157,-3.8616,-3.7567,-3.6975,-3.6434,-3.5842,-3.552,-3.5125,-3.4372,-3.3896,-3.3444,-3.3048,-3.2627,-3.2325,-3.1863,-3.1661,-3.137,-3.1199,-3.0991,-3.0751,-3.0478,-3.0048,-2.9501,-2.9022,-2.8492,-2.7947,-2.7283,-2.6587,-2.6316,-2.6013,-2.5573,-2.5353,-2.491,-2.4384,-2.382,-2.3158,-2.3033,-2.2897,-2.275,-2.2468,-2.2389,-2.2348,-2.2123,-2.2094,-2.1991,-2.1961,-2.1869,-2.184,-2.1797,-2.1754,-2.1603,-2.1371,-2.1007,-2.0745,-2.0512,-2.0366,-2.0289,-2.0291,-2.0219,-2.0247,-1.9746,-4.2472,-4.2219,-4.1508,-4.1204,-4.1119,-4.0629,-4.0409,-4.0527,-4.1457,-4.232,-4.2675,-4.3775,-4.4333,-4.457,-4.457,-4.457,-4.457,-4.457,-4.457,-4.457,-4.457,-4.457,-4.457,-4.457,-4.457,-4.457,-4.457,-4.457,-4.457,-4.457,-4.457,-4.457,-4.457,-4.457,-4.4485,-4.4333,-4.3741,-4.298,-4.1931,-4.1221,-4.0713,-4.0341,-4.0206,-4.0087,-4.0087,-4.0087,-4.0087,-4.0087,-4.0087,-4.0087,-4.0087,-4.0087,-4.0037,-3.9851,-3.9648,-3.8954,-3.8091,-3.7364,-3.6772,-3.6062,-3.5639,-3.5639,-3.5159,-3.4769,-3.4227,-3.3626,-3.3022,-3.2598,-3.219,-3.193,-3.1521,-3.1261,-3.1193,-3.104,-3.0836,-3.0615,-3.0105,-2.9644,-2.9134,-2.8353,-2.7691,-2.7063,-2.681,-2.6539,-2.615,-2.6099,-2.5845,-2.5304,-2.4678,-2.4002,-2.3562,-2.3427,-2.3216,-2.303,-2.2639,-2.253,-2.2158,-2.1915,-2.1751,-2.1661,-2.1601,-2.157,-2.154,-2.1402,-2.1166,-2.0877,-2.0561,-2.0323,-2.022,-2.0166,-2.0104,-2.017,-2.0185,-2.0166,-2.0115,-4.1677,-4.1373,-4.095,-4.0764,-4.0679,-4.0257,-4.0087,-4.0358,-4.1644,-4.2422,-4.2878,-4.4028,-4.457,-4.457,-4.457,-4.457,-4.457,-4.457,-4.457,-4.457,-4.457,-4.457,-4.457,-4.457,-4.457,-4.457,-4.457,-4.457,-4.457,-4.457,-4.457,-4.457,-4.457,-4.457,-4.4536,-4.4485,-4.4333,-4.3521,-4.2608,-4.1677,-4.1035,-4.051,-4.0189,-4.0087,-4.0087,-4.0087,-4.0087,-4.0087,-4.0087,-4.0087,-4.0087,-4.0087,-4.0087,-4.0037,-3.9986,-3.9309,-3.8396,-3.7787,-3.7212,-3.6197,-3.5808,-3.5639,-3.5622,-3.5368,-3.4895,-3.4286,-3.3601,-3.2991,-3.2517,-3.2059,-3.1562,-3.119,-3.119,-3.1173,-3.1157,-3.1157,-3.0801,-3.0429,-2.9719,-2.8924,-2.8197,-2.7486,-2.7097,-2.6877,-2.6674,-2.6505,-2.6387,-2.6134,-2.5458,-2.4715,-2.4306,-2.4086,-2.3857,-2.3627,-2.3234,-2.2718,-2.225,-2.1817,-2.1355,-2.1261,-2.1261,-2.1182,-2.1087,-2.0893,-2.0646,-2.041,-2.0254,-2.008,-1.9975,-1.9955,-1.9919,-1.9919,-1.9955,-1.9955,-1.9884,-4.073,-4.0138,-4.0087,-4.0138,-4.0087,-4.0087,-4.0087,-4.024,-4.1542,-4.2591,-4.3284,-4.4113,-4.4451,-4.4536,-4.457,-4.457,-4.457,-4.457,-4.457,-4.457,-4.457,-4.457,-4.457,-4.457,-4.457,-4.457,-4.457,-4.457,-4.457,-4.457,-4.457,-4.457,-4.457,-4.457,-4.457,-4.457,-4.4367,-4.3842,-4.2861,-4.1897,-4.1271,-4.0663,-4.0087,-4.0087,-4.0087,-4.0087,-4.0087,-4.0087,-4.0087,-4.0087,-4.0087,-4.0087,-4.0087,-4.007,-4.0037,-3.9681,-3.8768,-3.8159,-3.7533,-3.6603,-3.591,-3.569,-3.5622,-3.5571,-3.5216,-3.4928,-3.4269,-3.3541,-3.3068,-3.2374,-3.185,-3.136,-3.119,-3.119,-3.119,-3.119,-3.1038,-3.0581,-2.9939,-2.9144,-2.8366,-2.7706,-2.7384,-2.713,-2.6657,-2.6657,-2.6607,-2.6505,-2.6118,-2.5344,-2.5041,-2.4753,-2.4424,-2.4113,-2.3603,-2.3079,-2.2378,-2.1843,-2.1325,-2.1066,-2.1175,-2.0933,-2.063,-2.0444,-2.0239,-2.017,-2.001,-1.9904,-1.9833,-1.9797,-1.9777,-1.9705,-1.9705,-1.9741,-1.9705,-4.024,-4.0087,-4.0087,-4.0087,-4.0087,-4.0087,-4.0087,-4.0155,-4.1035,-4.188,-4.2608,-4.3335,-4.3995,-4.435,-4.4451,-4.4468,-4.4485,-4.4536,-4.457,-4.4536,-4.4519,-4.4485,-4.4536,-4.4468,-4.4536,-4.457,-4.457,-4.457,-4.457,-4.457,-4.457,-4.457,-4.457,-4.457,-4.457,-4.4553,-4.4231,-4.3809,-4.2794,-4.2117,-4.1745,-4.0781,-4.0087,-4.0087,-4.0087,-4.0087,-4.0087,-4.0087,-4.0087,-4.0087,-4.0087,-4.0087,-4.0087,-4.0087,-4.0087,-3.9901,-3.9174,-3.8531,-3.7855,-3.7043,-3.6282,-3.5791,-3.5673,-3.5639,-3.5554,-3.5419,-3.5013,-3.4269,-3.3575,-3.2831,-3.2188,-3.1681,-3.1275,-3.1275,-3.1241,-3.1241,-3.1224,-3.0666,-3.0091,-2.936,-2.8549,-2.8091,-2.7769,-2.7313,-2.6791,-2.6572,-2.6554,-2.6486,-2.6297,-2.5812,-2.5643,-2.5344,-2.4978,-2.4595,-2.4064,-2.3416,-2.274,-2.2144,-2.1678,-2.1397,-2.1069,-2.0647,-2.0258,-2.003,-1.9869,-1.9869,-1.9869,-1.9797,-1.9726,-1.9726,-1.9726,-1.9669,-1.956,-1.9574,-1.9523,-4.0087,-4.0087,-4.0087,-4.0087,-4.0087,-4.0087,-4.0087,-4.0155,-4.0527,-4.1119,-4.1863,-4.2574,-4.3183,-4.369,-4.3876,-4.4062,-4.413,-4.4451,-4.4519,-4.4536,-4.4215,-4.4333,-4.4316,-4.4215,-4.4384,-4.4434,-4.4536,-4.457,-4.4519,-4.457,-4.457,-4.457,-4.457,-4.4536,-4.4502,-4.4282,-4.3859,-4.342,-4.2371,-4.1897,-4.1762,-4.0764,-4.0104,-4.0087,-4.0087,-4.0087,-4.0087,-4.0087,-4.0087,-4.0087,-4.0087,-4.0087,-4.0087,-4.0087,-4.0087,-3.9884,-3.9394,-3.8802,-3.8227,-3.7499,-3.6688,-3.6231,-3.5707,-3.5645,-3.5639,-3.547,-3.5148,-3.4489,-3.4218,-3.3558,-3.3034,-3.2527,-3.2104,-3.1952,-3.1799,-3.1698,-3.1427,-3.0954,-3.0644,-3.033,-2.9623,-2.9026,-2.8686,-2.8172,-2.7584,-2.6875,-2.6773,-2.6435,-2.628,-2.6167,-2.6065,-2.5811,-2.531,-2.4837,-2.4278,-2.3663,-2.3059,-2.2518,-2.2062,-2.1268,-2.07,-2.0233,-1.9854,-1.9797,-1.9762,-1.9762,-1.9726,-1.9726,-1.9705,-1.9726,-1.969,-1.9654,-1.9523,-1.9354,-1.9191,-4.0087,-4.0087,-4.0087,-4.0087,-4.0087,-4.0087,-4.0087,-4.0087,-4.0104,-4.0443,-4.1068,-4.1694,-4.2049,-4.2523,-4.2912,-4.3149,-4.3403,-4.3673,-4.4028,-4.3944,-4.3521,-4.3555,-4.3606,-4.3623,-4.3707,-4.3961,-4.4181,-4.4248,-4.4282,-4.4434,-4.457,-4.457,-4.4485,-4.4418,-4.4198,-4.3724,-4.3115,-4.2675,-4.1931,-4.1288,-4.0849,-4.046,-4.0189,-4.0087,-4.0087,-4.0087,-4.0087,-4.0087,-4.0087,-4.0087,-4.0087,-4.0087,-4.0087,-4.0087,-4.0087,-3.9918,-3.9648,-3.9191,-3.8717,-3.7922,-3.7246,-3.6671,-3.6079,-3.5729,-3.5695,-3.5442,-3.5121,-3.4901,-3.4631,-3.4286,-3.3761,-3.3288,-3.2882,-3.2452,-3.2266,-3.1911,-3.1489,-3.1134,-3.1021,-3.0908,-3.0381,-2.975,-2.9299,-2.8838,-2.8169,-2.7421,-2.6946,-2.6559,-2.6281,-2.6218,-2.611,-2.5806,-2.5369,-2.4875,-2.4388,-2.3901,-2.3336,-2.297,-2.2437,-2.1288,-2.0452,-2.0354,-2.0128,-1.9762,-1.9726,-1.9726,-1.9726,-1.9705,-1.9705,-1.9705,-1.9669,-1.9596,-1.9302,-1.9078,-1.8836,-4.0087,-4.0087,-4.0087,-4.0087,-4.0087,-4.0087,-4.0087,-4.0087,-4.0087,-4.0189,-4.0358,-4.0493,-4.1052,-4.2269,-4.2388,-4.2506,-4.2574,-4.2861,-4.276,-4.2608,-4.2625,-4.2675,-4.2777,-4.2912,-4.2675,-4.2963,-4.3403,-4.3623,-4.3826,-4.4248,-4.4536,-4.4485,-4.3792,-4.3623,-4.3504,-4.2946,-4.2286,-4.1863,-4.1508,-4.0899,-4.0443,-4.0189,-4.0138,-4.0087,-4.0087,-4.0087,-4.0087,-4.0087,-4.0087,-4.0087,-4.0087,-4.0087,-4.0087,-4.0087,-4.0087,-4.007,-3.9783,-3.9546,-3.9022,-3.8565,-3.8007,-3.7127,-3.654,-3.6043,-3.5828,-3.5463,-3.5227,-3.5172,-3.4931,-3.4648,-3.4158,-3.3753,-3.3347,-3.2816,-3.2488,-3.1782,-3.1211,-3.1043,-3.0918,-3.0677,-3.0262,-2.9786,-2.9321,-2.8788,-2.8127,-2.7559,-2.7331,-2.6935,-2.6589,-2.6382,-2.6199,-2.579,-2.5383,-2.4896,-2.4389,-2.4116,-2.3636,-2.3319,-2.2873,-2.1879,-2.1195,-2.0865,-2.0543,-2.0094,-1.9779,-1.969,-1.969,-1.9705,-1.9632,-1.9596,-1.9611,-1.9501,-1.9153,-1.8812,-1.8528]},{"header":{"parameterUnit":"m.s-1","parameterCategory":1,"la1":31.0,"la2":29.5877,"lo1":-88.7671,"lo2":-86.6584,"dy":0.0162,"dx":0.0185,"nx":115,"ny":88,"refTime":"2024-04-05T06:00:00:Z","depth":0,"parameterNumber":3,"parameterNumberName":"V-component_of_WINDS"},"data":[0.0,0.0,0.0,0.0,0.0,0.0,0.0,0.0,0.0,0.0,0.0,0.0,0.0,0.0,0.0,0.0,0.0,0.0,0.0,0.0,0.0,0.0,0.0,0.0,0.0,0.0,0.0,0.0,0.0,0.0,0.0,0.0,0.0,0.0,0.0,0.0,0.0,0.0,0.0,0.0,0.0,0.0,0.0,0.0,0.0,0.0,0.0,0.0,0.0,0.0,0.0,0.0,0.0,0.0,0.0,0.0,0.0,0.0,0.0,0.0,0.0,0.0,0.0,0.0,0.0,0.0,0.0,0.0,0.0,0.0,0.0,0.0,0.0,0.0,0.0,0.0,0.0,0.0,0.0,0.0,0.0,0.0,0.0,0.0,0.0,0.0,0.0,0.0,0.0,0.0,0.0,0.0,0.0,0.0,0.0,0.0,0.0,0.0,0.0,0.0,0.0,0.0,0.0,0.0,0.0,0.0,0.0,0.0,0.0,0.0,0.0,0.0,0.0,0.0,0.0,0.0,0.0,0.0,0.0,0.0,0.0,0.0,0.0,0.0,0.0,0.0,0.0,0.0,0.0,0.0,0.0,0.0,0.0,0.0,0.0,0.0,0.0,0.0,0.0,0.0,0.0,0.0,0.0,0.0,0.0,0.0,0.0,0.0,0.0,0.0,0.0,0.0,0.0,0.0,0.0,0.0,0.0,0.0,0.0,0.0,0.0,0.0,0.0,0.0,0.0,0.0,0.0,0.0,0.0,0.0,0.0,0.0,0.0,0.0,0.0,0.0,0.0,0.0,0.0,0.0,0.0,0.0,0.0,0.0,0.0,0.0,0.0,0.0,0.0,0.0,0.0,0.0,0.0,0.0,0.0,0.0,0.0,0.0,0.0,0.0,0.0,0.0,0.0,0.0,0.0,0.0,0.0,0.0,0.0,0.0,0.0,0.0,0.0,0.0,0.0,0.0,0.0,0.0,0.0,0.0,0.0,0.0,0.0,0.0,0.0,0.0,0.0,0.0,0.0,0.0,0.0,0.0,0.0,0.0,0.0,0.0,0.0,0.0,0.0,0.0,0.0,0.0,0.0,0.0,0.0,0.0,0.0,0.0,0.0,0.0,0.0,0.0,0.0,0.0,0.0,0.0,0.0,0.0,0.0,0.0,0.0,0.0,0.0,0.0,0.0,0.0,0.0,0.0,0.0,0.0,0.0,0.0,0.0,0.0,0.0,0.0,0.0,0.0,0.0,0.0,0.0,0.0,0.0,0.0,0.0,0.0,0.0,0.0,0.0,0.0,0.0,0.0,0.0,0.0,0.0,0.0,0.0,0.0,0.0,0.0,0.0,0.0,0.0,0.0,0.0,0.0,0.0,0.0,0.0,0.0,0.0,0.0,0.0,0.0,0.0,0.0,0.0,0.0,0.0,0.0,0.0,0.0,0.0,0.0,0.0,0.0,0.0,0.0,0.0,0.0,0.0,0.0,0.0,0.0,0.0,0.0,0.0,0.0,0.0,0.0,0.0,0.0,0.0,0.0,0.0,0.0,0.0,0.0,0.0,0.0,0.0,0.0,0.0,0.0,0.0,0.0,0.0,0.0,0.0,0.0,0.0,0.0,0.0,0.0,0.0,0.0,0.0,0.0,0.0,0.0,0.0,0.0,0.0,0.0,0.0,0.0,0.0,0.0,0.0,0.0,0.0,0.0,0.0,0.0,0.0,0.0,0.0,0.0,0.0,0.0,0.0,0.0,0.0,0.0,0.0,0.0,0.0,0.0,0.0,0.0,0.0,0.0,0.0,0.0,0.0,0.0,0.0,0.0,0.0,0.0,0.0,0.0,0.0,0.0,0.0,0.0,0.0,0.0,0.0,0.0,0.0,0.0,0.0,0.0,0.0,0.0,0.0,0.0,0.0,0.0,0.0,0.0,0.0,0.0,0.0,0.0,0.0,0.0,0.0,0.0,0.0,0.0,0.0,0.0,0.0,0.0,0.0,0.0,0.0,0.0,0.0,0.0,0.0,0.0,0.0,0.0,0.0,0.0,0.0,0.0,0.0,0.0,0.0,0.0,0.0,0.0,0.0,0.0,0.0,0.0,0.0,0.0,0.0,0.0,0.0,0.0,0.0,0.0,0.0,0.0,0.0,0.0,0.0,0.0,0.0,0.0,0.0,0.0,0.0,0.0,0.0,0.0,0.0,0.0,0.0,0.0,0.0,0.0,0.0,0.0,0.0,0.0,0.0,0.0,0.0,0.0,0.0,0.0,0.0,0.0,0.0,0.0,0.0,0.0,0.0,0.0,0.0,0.0,0.0,0.0,0.0,0.0,0.0,0.0,0.0,0.0,0.0,0.0,0.0,0.0,0.0,0.0,0.0,0.0,0.0,0.0,0.0,0.0,0.0,0.0,0.0,0.0,0.0,0.0,0.0,0.0,0.0,0.0,0.0,0.0,0.0,0.0,0.0,0.0,0.0,0.0,0.0,0.0,0.0,0.0,0.0,0.0,0.0,0.0,0.0,0.0,0.0,0.0,0.0,0.0,0.0,0.0,0.0,0.0,0.0,0.0,0.0,0.0,0.0,0.0,0.0,0.0,0.0,0.0,0.0,0.0,0.0,0.0,0.0,0.0,0.0,0.0,0.0,0.0,0.0,0.0,0.0,0.0,0.0,0.0,0.0,0.0,0.0,0.0,0.0,0.0,0.0,0.0,0.0,0.0,0.0,0.0,0.0,0.0,0.0,0.0,0.0,0.0,0.0,0.0,0.0,0.0,0.0,0.0,0.0,0.0,0.0,0.0,0.0,0.0,0.0,0.0,0.0,0.0,0.0,0.0,0.0,0.0,0.0,0.0,0.0,0.0,0.0,0.0,0.0,0.0,0.0,0.0,0.0,0.0,0.0,0.0,0.0,0.0,0.0,0.0,0.0,0.0,0.0,0.0,0.0,0.0,0.0,0.0,0.0,0.0,0.0,0.0,0.0,0.0,0.0,0.0,0.0,0.0,0.0,0.0,0.0,0.0,0.0,0.0,0.0,0.0,0.0,0.0,0.0,0.0,0.0,0.0,0.0,0.0,0.0,0.0,0.0,0.0,0.0,0.0,0.0,0.0,0.0,0.0,0.0,0.0,0.0,0.0,0.0,0.0,0.0,0.0,0.0,0.0,0.0,0.0,0.0,0.0,0.0,0.0,0.0,0.0,0.0,0.0,0.0,0.0,0.0,0.0,0.0,0.0,0.0,0.0,0.0,0.0,0.0,0.0,0.0,0.0,0.0,0.0,0.0,0.0,0.0,0.0,0.0,0.0,0.0,0.0,0.0,0.0,0.0,0.0,0.0,0.0,0.0,0.0,0.0,0.0,0.0,0.0,0.0,0.0,0.0,0.0,0.0,0.0,0.0,0.0,0.0,0.0,0.0,0.0,0.0,0.0,0.0,0.0,0.0,0.0,0.0,0.0,0.0,0.0,0.0,0.0,0.0,0.0,0.0,0.0,0.0,0.0,0.0,0.0,0.0,0.0,0.0,0.0,0.0,0.0,0.0,0.0,0.0,0.0,0.0,0.0,0.0,0.0,0.0,0.0,0.0,0.0,0.0,0.0,0.0,0.0,0.0,0.0,0.0,0.0,0.0,0.0,0.0,0.0,0.0,0.0,0.0,0.0,0.0,0.0,0.0,0.0,0.0,0.0,0.0,0.0,0.0,0.0,0.0,0.0,0.0,0.0,0.0,0.0,0.0,0.0,0.0,0.0,0.0,0.0,0.0,0.0,0.0,0.0,0.0,0.0,0.0,0.0,0.0,0.0,0.0,0.0,0.0,0.0,0.0,0.0,0.0,0.0,0.0,0.0,0.0,0.0,0.0,0.0,0.0,0.0,0.0,0.0,0.0,0.0,0.0,0.0,0.0,0.0,0.0,0.0,0.0,0.0,0.0,0.0,0.0,0.0,0.0,0.0,0.0,0.0,0.0,0.0,0.0,0.0,0.0,0.0,0.0,0.0,0.0,0.0,0.0,0.0,0.0,0.0,0.0,0.0,0.0,0.0,0.0,0.0,0.0,0.0,0.0,0.0,0.0,0.0,0.0,0.0,0.0,0.0,0.0,0.0,0.0,0.0,0.0,0.0,0.0,0.0,0.0,0.0,0.0,0.0,0.0,0.0,0.0,0.0,0.0,0.0,0.0,0.0,0.0,0.0,0.0,0.0,0.0,0.0,0.0,0.0,0.0,0.0,0.0,0.0,0.0,0.0,0.0,0.0,0.0,0.0,0.0,0.0,0.0,0.0,0.0,0.0,0.0,0.0,0.4662,0.0,0.0,0.0,0.0,0.0,0.0,0.0,0.0,0.0,0.0,0.0,0.0,0.0,0.0,0.0,0.0,0.0,0.0,0.0,0.0,0.0,0.0,0.0,0.0,0.0,0.0,0.0,0.0,0.0,0.0,0.0,0.0,0.0,0.0,0.0,0.0,0.0,0.0,0.0,0.0,0.0,0.0,0.0,0.0,0.0,0.0,0.0,0.0,0.0,0.0,0.0,0.0,0.0,0.0,0.0,0.0,0.0,0.0,0.0,0.0,0.0,0.0,0.0,0.0,0.0,0.0,0.0,0.0,0.0,0.0,0.0,0.0,0.0,0.0,0.0,0.0,0.0,0.0,0.0,0.0,0.0,0.0,0.0,0.0,0.0,0.0,0.0,0.0,0.0,0.0,0.0,0.0,0.0,0.0,0.0,0.0,0.0,0.0,0.0,0.0,0.0,0.0,0.0,0.0,0.0,0.0,0.0,0.0,0.0,0.0,0.4001,0.4191,0.4374,0.4564,0.4742,0.0,0.0,0.0,0.0,0.0,0.0,0.0,0.0,0.0,0.0,0.0,0.0,0.0,0.0,0.0,0.0,0.0,0.0,0.0,0.0,0.0,0.0,0.0,0.0,0.0,0.0,0.0,0.0,0.0,0.0,0.0,0.0,0.0,0.0,0.0,0.0,0.0,0.0,0.0,0.0,0.0,0.0,0.0,0.0,0.0,0.0,0.0,0.0,0.0,0.0,0.0,0.0,0.0,0.0,0.0,0.0,0.0,0.0,0.0,0.0,0.0,0.0,0.0,0.0,0.0,0.0,0.0,0.0,0.0,0.0,0.0,0.0,0.0,0.0,0.0,0.0,0.0,0.0,0.0,0.0,0.0,0.0,0.0,0.0,0.0,0.0,0.0,0.0,0.0,0.0,0.0,0.0,0.0,0.0,0.0,0.0,0.0,0.0,0.0,0.0,0.0,0.0,0.0,0.0,0.0,0.0,0.0,0.0,0.0,0.0,0.0,0.0,0.4504,0.4653,0.4753,0.0,0.0,0.0,0.0,0.0,0.0,0.0,0.0,0.0,0.0,0.0,0.0,0.0,0.0,0.0,0.0,0.0,0.0,0.0,0.0,0.0,0.0,0.0,0.0,0.0,0.0,0.0,0.0,0.0,0.0,0.0,0.0,0.0,0.0,0.0,0.0,0.0,0.0,0.0,0.0,0.0,0.0,0.0,0.0,0.0,0.0,0.0,0.0,0.0,0.0,0.0,0.0,0.0,0.0,0.0,0.0,0.0,0.0,0.0,0.0,0.0,0.0,0.0,0.0,0.0,0.0,0.0,0.0,0.0,0.0,0.0,0.0,0.0,0.0,0.0,0.0,0.0,0.0,0.0,0.0,0.0,0.0,0.0,0.0,0.0,0.0,0.0,0.0,0.0,0.0,0.0,0.0,0.0,0.0,0.0,0.0,0.0,0.0,0.0,0.0,0.0,0.0,0.0,0.0,0.0,0.0,0.0,0.0,0.0,0.0,0.4133,0.4391,0.4532,0.0,0.4702,0.0,0.0,0.0,0.0,0.0,0.0,0.0,0.0,0.0,0.0,0.0,0.0,0.0,0.0,0.0,0.0,0.0,0.0,0.0,0.0,0.0,0.0,0.0,0.0,0.0,0.0,0.0,0.0,0.0,0.0,0.0,0.0,0.0,0.0,0.0,0.0,0.0,0.0,0.0,0.0,0.0,0.0,0.0,0.0,0.0,0.0,0.0,0.0,0.0,0.0,0.0,0.0,0.0,0.0,0.0,0.0,0.0,0.0,0.0,0.0,0.0,0.0,0.0,0.0,0.0,0.0,0.0,0.0,0.0,0.0,0.0,0.0,0.0,0.0,0.0,0.0,0.0,0.0,0.0,0.0,0.0,0.0,0.0,0.0,0.0,0.0,0.0,0.0,0.0,0.0,0.0,0.0,0.0,0.0,0.0,0.0,0.0,0.0,0.0,0.0,0.0,0.0,0.0,0.0,0.0,0.0,0.0,0.0,0.0,0.0,0.4179,0.4342,0.4593,0.4722,0.0,0.0,0.0,0.0,0.0,0.0,0.0,0.0,0.0,0.0,0.0,0.0,0.0,0.0,0.0,0.0,0.0,0.0,0.0,0.0,0.0,0.0,0.0,0.0,0.0,0.0,0.0,0.0,0.0,0.0,0.0,0.0,0.0,0.0,0.0,0.0,0.0,0.0,0.0,0.0,0.0,0.0,0.0,0.0,0.0,0.0,0.0,0.0,0.0,0.0,0.0,0.0,0.0,0.0,0.0,0.0,0.0,0.0,0.0,0.0,0.0,0.0,0.0,0.0,0.0,0.0,0.0,0.0,0.0,0.0,0.0,0.0,0.0,0.0,0.0,0.0,0.0,0.0,0.0,0.0,0.0,0.0,0.0,0.0,0.0,0.0,0.0,0.0,0.0,0.0,0.0,0.0,0.0,0.0,0.0,0.0,0.0,0.0,0.0,0.0,0.0,0.0,0.0,0.0,0.0,0.0,0.0,0.0,0.0,0.0,0.4022,0.4219,0.4345,0.4604,0.4742,0.4702,0.0,0.0,0.0,0.0,0.0,0.0,0.0,0.0,0.0,0.0,0.0,0.0,0.0,0.0,0.0,0.0,0.0,0.0,0.0,0.0,0.0,0.0,0.0,0.0,0.0,0.0,0.0,0.0,0.0,0.0,0.0,0.0,0.0,0.0,0.0,0.0,0.0,0.0,0.0,0.0,0.0,0.0,0.0,0.0,0.0,0.0,0.0,0.0,0.0,0.0,0.0,0.0,0.0,0.0,0.0,0.0,0.0,0.0,0.0,0.0,0.0,0.0,0.0,0.0,0.0,0.0,0.0,0.0,0.0,0.0,0.0,0.0,0.0,0.0,0.0,0.0,0.0,0.0,0.0,0.0,0.0,0.0,0.0,0.0,0.0,0.0,0.0,0.0,0.0,0.0,0.0,0.0,0.0,0.0,0.0,0.0,0.0,0.0,0.0,0.0,0.0,0.0,0.0,0.0,0.0,0.0,0.0,0.0,0.3808,0.3926,0.4158,0.4475,0.4575,0.4633,0.0,0.0,0.0,0.0,0.0,0.0,0.0,0.0,0.0,0.0,0.0,0.0,0.0,0.0,0.0,0.0,0.0,0.0,0.0,0.0,0.0,0.0,0.0,0.0,0.0,0.0,0.0,0.0,0.0,0.0,0.0,0.0,0.0,0.0,0.0,0.0,0.0,0.0,0.0,0.0,0.0,0.0,0.0,0.0,0.0,0.0,0.0,0.0,0.0,0.0,0.0,0.0,0.0,0.0,0.0,0.0,0.0,0.0,0.0,0.0,0.0,0.0,0.0,0.0,0.0,0.0,0.0,0.0,0.0,0.0,0.0,0.0,0.0,0.0,0.0,0.0,0.0,0.0,0.0,0.0,0.0,0.0,0.0,0.0,0.0,0.0,0.0,0.0,0.0,0.0,0.0,0.0,0.0,0.0,0.0,0.0,0.0,0.0,0.0,0.0,0.0,0.0,0.0,0.0,0.0,0.0,0.0,0.0,0.0,0.3682,0.3856,0.4076,0.4366,0.4443,0.4512,0.0,0.0,0.0,0.0,0.0,0.0,0.0,0.0,0.0,0.0,0.0,0.0,0.0,0.0,0.0,0.0,0.0,0.0,0.0,0.0,0.0,0.0,0.0,0.0,0.0,0.0,0.0,0.0,0.0,0.0,0.0,0.0,0.0,0.0,0.0,0.0,0.0,0.0,0.0,0.0,0.0,0.0,0.0,0.0,0.0,0.0,0.0,0.0,0.0,0.0,0.0,0.0,0.0,0.0,0.0,0.0,0.0,0.0,0.0,0.0,0.0,0.0,0.0,0.0,0.0,0.0,0.0,0.0,0.0,0.0,0.0,0.0,0.0,0.0,0.0,0.0,0.0,0.0,0.0,0.0,0.0,0.0,0.0,0.0,0.0,0.0,0.0,0.0,0.0,0.0,0.0,0.0,0.0,0.0,0.0,0.0,0.0,0.0,0.0,0.0,0.0,0.0,0.0,0.0,0.0,0.0,0.0,0.0,0.0,0.3633,0.0,0.4014,0.4191,0.4281,0.4362,0.0,0.0,0.0,0.0,0.0,0.0,0.0,0.0,0.0,0.0,0.0,0.0,0.0,0.0,0.0,0.0,0.0,0.0,0.0,0.0,0.0,0.0,0.0,0.0,0.0,0.0,0.0,0.0,0.0,0.0,0.0,0.0,0.0,0.0,0.0,0.0,0.0,0.0,0.0,0.0,0.0,0.0,0.0,0.0,0.0,0.0,0.0,0.0,0.0,0.0,0.0,0.0,0.0,0.0,0.0,0.0,0.0,0.0,0.0,0.0,0.0,0.0,0.0,0.0,0.0,0.0,0.0,0.0,0.0,0.0,0.0,0.0,0.0,0.0,0.0,0.0,0.0,0.0,0.0,0.0,0.0,0.0,0.0,0.0,0.0,0.0,0.0,0.0,0.0,0.0,0.0,0.0,0.0,0.0,0.0,0.0,0.0,0.0,0.0,0.0,0.0,0.0,0.0,0.0,0.0,0.0,0.0,0.0,0.3576,0.3682,0.3828,0.3918,0.398,0.4104,0.4268,0.0,0.0,0.0,0.0,0.0,0.0,0.0,0.0,0.0,0.0,0.0,0.0,0.0,0.0,0.0,0.0,0.0,0.0,0.0,0.0,0.0,0.0,0.0,0.0,0.0,0.0,0.0,0.0,0.0,0.0,0.0,0.0,0.0,0.0,0.0,0.0,0.0,0.0,0.0,0.0,0.0,0.0,0.0,0.0,0.0,0.0,0.0,0.0,0.0,0.0,0.0,0.0,0.0,0.0,0.0,0.0,0.0,0.0,0.0,0.0,0.0,0.0,0.0,0.0,0.0,0.0,0.0,0.0,0.0,0.0,0.0,0.0,0.0,0.0,0.0,0.0,0.0,0.0,0.0,0.0,0.0,0.0,0.0,0.0,0.0,0.0,0.0,0.0,0.0,0.0,0.0,0.0,0.0,0.0,0.0,0.0,0.0,0.0,0.0,0.0,0.0,0.0,0.0,0.0,0.0,0.0,0.0,0.0,0.0,0.3647,0.3675,0.3744,0.3863,0.3939,0.4055,0.0,0.0,0.0,0.0,0.0,0.0,0.0,0.0,0.0,0.0,0.0,0.0,0.0,0.0,0.0,0.0,0.0,0.0,0.0,0.0,0.0,0.0,0.0,0.0,0.0,0.0,0.0,0.0,0.0,0.0,0.0,0.0,0.0,0.0,0.0,0.0,0.0,0.0,0.0,0.0,0.0,0.0,0.0,0.0,0.0,0.0,0.0,0.0,0.0,0.0,0.0,0.0,0.0,0.0,0.0,0.0,0.0,0.0,0.0,0.0,0.0,0.0,0.0,0.0,0.0,0.0,0.0,0.0,0.0,0.0,0.0,0.0,0.0,0.0,0.0,0.0,0.0,0.0,0.0,0.0,0.0,0.0,0.0,0.0,0.0,0.0,0.0,0.0,0.0,0.0,0.0,0.0,0.0,0.0,0.0,0.0,0.0,0.0,0.0,0.0,0.0,0.0,0.0,0.0,0.0,0.0,0.0,0.0,0.0,0.391,0.3917,0.393,0.3879,0.3966,0.4016,0.4035,0.0,0.0,0.0,0.0,0.0,0.0,0.0,0.0,0.0,0.0,0.0,0.0,0.0,0.0,0.0,0.0,0.0,0.0,0.0,0.0,0.0,0.0,0.0,0.0,0.0,0.0,0.0,0.0,0.0,0.0,0.0,0.0,0.0,0.0,0.0,0.0,0.0,0.0,0.0,0.0,0.0,0.0,0.0,0.0,0.0,0.0,0.0,0.0,0.0,0.0,0.0,0.0,0.0,0.0,0.0,0.0,0.0,0.0,0.0,0.0,0.0,0.0,0.0,0.0,0.0,0.0,0.0,0.0,0.0,0.0,0.0,0.0,0.0,0.0,0.0,0.0,0.0,0.0,0.0,0.0,0.0,0.0,0.0,0.0,0.0,0.0,0.0,0.0,0.0,0.0,0.0,0.0,0.0,0.0,0.0,0.0,0.0,0.0,0.0,0.0,0.0,0.0,0.0,0.0,0.0,0.0,0.0,0.0,0.4422,0.4502,0.4379,0.4046,0.4127,0.4079,0.0,0.0,0.0,0.0,0.0,0.0,0.0,0.0,0.0,0.0,0.0,0.0,0.0,0.0,0.0,0.0,0.0,0.0,0.0,0.0,0.0,0.0,0.0,0.0,0.0,0.0,0.0,0.0,0.0,0.0,0.0,0.0,0.0,0.0,0.0,0.0,0.0,0.0,0.0,0.0,0.0,0.0,0.0,0.0,0.0,0.0,0.0,0.0,0.0,0.0,0.0,0.0,0.0,0.0,0.0,0.0,0.0,0.0,0.0,0.0,0.0,0.0,0.0,0.0,0.0,0.0,0.0,0.0,0.0,0.0,0.0,0.0,0.0,0.0,0.0,0.0,0.0,0.0,0.0,0.0,0.0,0.0,0.0,0.0,0.0,0.0,0.0,0.0,0.0,0.0,0.0,0.0,0.0,0.0,0.0,0.0,0.0,0.0,0.0,0.0,0.0,0.0,0.0,0.0,0.0,0.0,0.0,0.0,0.0,0.4688,0.4973,0.4838,0.4328,0.4141,0.4055,0.0,0.0,0.0,0.0,0.0,0.0,0.0,0.0,0.0,0.0,0.0,0.0,0.0,0.0,0.0,0.0,0.0,0.0,0.0,0.0,0.0,0.0,0.0,0.0,0.0,0.0,0.0,0.0,0.0,0.0,0.0,0.0,0.0,0.0,0.0,0.0,0.0,0.0,0.0,0.0,0.0,0.0,0.0,0.0,0.0,0.0,0.0,0.0,0.0,0.0,0.0,0.0,0.0,0.0,0.0,0.0,0.0,0.0,0.0,0.0,0.0,0.0,0.0,0.0,0.0,0.0,0.0,0.0,0.0,0.0,0.0,0.0,0.0,0.0,0.0,0.0,0.0,0.0,0.0,0.0,0.0,0.0,0.0,0.0,0.0,0.0,0.0,0.0,0.0,0.0,0.0,0.0,0.0,0.0,0.0,0.0,0.0,0.0,0.0,0.0,0.0,0.0,0.0,0.0,0.0,0.0,0.0,0.0,0.4603,0.5017,0.519,0.5117,0.4776,0.4381,0.4148,0.0,0.0,0.0,0.0,0.0,0.0,0.0,0.0,0.0,0.0,0.0,0.0,0.0,0.0,0.0,0.0,0.0,0.0,0.0,0.0,0.0,0.0,0.0,0.0,0.0,0.0,0.0,0.0,0.0,0.0,0.0,0.0,0.0,0.0,0.0,0.0,0.0,0.0,0.0,0.0,0.0,0.0,0.0,0.0,0.0,0.0,0.0,0.0,0.0,0.0,0.0,0.0,0.0,0.0,0.0,0.0,0.0,0.0,0.0,0.0,0.0,0.0,0.0,0.0,0.0,0.0,0.0,0.0,0.0,0.0,0.0,0.0,0.0,0.0,0.0,0.0,0.0,0.0,0.0,0.0,0.0,0.0,0.0,0.0,0.0,0.0,0.0,0.0,0.0,0.0,0.0,0.0,0.0,0.0,0.0,0.0,0.0,0.0,0.0,0.0,0.0,0.0,0.0,0.0,0.0,0.0,0.0,0.0,0.4716,0.5295,0.5309,0.5309,0.5295,0.4743,0.4302,0.0,0.0,0.0,0.0,0.0,0.0,0.0,0.0,0.0,0.0,0.0,0.0,0.0,0.0,0.0,0.0,0.0,0.0,0.0,0.0,0.0,0.0,0.0,0.0,0.0,0.0,0.0,0.0,0.0,0.0,0.0,0.0,0.0,0.0,0.0,0.0,0.0,0.0,0.0,0.0,0.0,0.0,0.0,0.0,0.0,0.0,0.0,0.0,0.0,0.0,0.0,0.0,0.0,0.0,0.0,0.0,0.0,0.0,0.0,0.0,0.0,0.0,0.0,0.0,0.0,0.0,0.0,0.0,0.0,0.0,0.0,0.0,0.0,0.0,0.0,0.0,0.0,0.0,0.0,0.0,0.0,0.0,0.0,0.0,0.0,0.0,0.0,0.0,0.0,0.0,0.0,0.0,0.0,0.0,0.0,0.0,0.0,0.0,0.0,0.0,0.0,0.0,0.0,0.0,0.0,0.0,0.0,0.0,0.4887,0.5295,0.5309,0.5309,0.5309,0.493,0.4582,0.0,0.0,0.0,0.0,0.0,0.0,0.0,0.0,0.0,0.0,0.0,0.0,0.0,0.0,0.0,0.0,0.0,0.0,0.0,0.0,0.0,0.0,0.0,0.0,0.0,0.0,0.0,0.0,0.0,0.0,0.0,0.0,0.0,0.0,0.0,0.0,0.0,0.0,0.0,0.0,0.0,0.0,0.0,0.0,0.0,0.0,0.0,0.0,-0.0095,0.0,0.0,0.0,0.0,0.0,0.0,0.0,0.0,0.0,0.0,0.0,0.0,0.0,0.0,0.0,0.0,0.0,0.0,0.0,0.0,0.0,0.0,0.0,0.0,0.0,0.0,0.0,0.0,0.0,0.0,0.0,0.0,0.0,0.0,0.0,0.0,0.0,0.0,0.0,0.0,0.0,0.0,0.0,0.0,0.0,0.0,0.0,0.0,0.0,0.0,0.0,0.0,0.0,0.0,0.0,0.0,0.0,0.0,0.0,0.502,0.5464,0.5351,0.5376,0.5458,0.5033,0.4675,0.0,0.0,0.0,0.0,0.0,0.0,0.0,0.0,0.0,0.0,0.0,0.0,0.0,0.0,0.0,0.0,0.0,0.0,0.0,0.0,0.0,0.0,0.0,0.0,0.0,0.0,0.0,0.0,0.0,0.0,0.0,0.0,0.0,0.0,0.0,0.0,0.0,0.0,0.0,0.0,0.0,0.0,0.0,0.0,0.0,0.0,0.0,0.0,0.0,0.0,0.0,0.0,0.0,0.0,0.0,0.0,0.0,0.0,0.0,0.0,0.0,0.0,0.0,0.0,0.0,0.0,0.0,0.0,0.0,0.0,0.0,0.0,0.0,0.0,0.0,0.0,0.0,0.0,0.0,0.0,0.0,0.0,0.0,0.0,0.0,0.0,0.0,0.0,0.0,0.0,0.0,0.0,0.0,0.0,0.0,0.0,0.0,0.0,0.0,0.0,0.0,0.0,0.0,0.0,0.0,0.0,0.0,0.4748,0.5179,0.5678,0.5471,0.5464,0.5698,0.5113,0.4675,0.4409,0.0,0.0,0.0,0.0,0.0,0.0,0.0,0.0,0.0,0.0,0.0,0.0,0.0,0.0,0.0,0.0,0.0,0.0,0.0,0.0,0.0,0.0,0.0,0.0,0.0,0.0,0.0,0.0,0.0,0.0,0.0,0.0,0.0,0.0,0.0,0.0,0.0,0.0,-0.1453,-0.1711,0.0,0.0,0.0,0.0,0.0,0.0,0.0,0.0,-0.0142,0.0,0.0,0.0,0.0,0.0,0.0,0.0,0.0,0.0,0.0,0.0,0.0,0.0,0.0,0.0,0.0,0.0,0.0,0.0,0.0,0.0,0.0,0.0,0.0,0.0,0.0,0.0,0.0,0.0,0.0,0.0,0.0,0.0,0.0,0.0,0.0,0.0,0.0,0.0,0.0,0.0,0.0,0.0,0.0,0.0,0.0,0.0,0.0,0.0,0.0,0.0,0.0,0.0,0.0,0.0,0.0,0.4409,0.517,0.5578,0.5711,0.5665,0.5665,0.5691,0.5113,0.4668,0.4416,0.0,0.0,0.0,0.0,0.0,0.0,0.0,0.0,0.0,0.0,0.0,0.0,0.0,0.0,0.0,0.0,0.0,0.0,0.0,0.0,0.0,0.0,0.0,0.0,0.0,0.0,0.0,0.0,0.0,0.0,0.0,0.0,0.0,0.0,0.0,0.0,0.0,0.0,0.0,-0.189,-0.1988,0.0,0.0,0.0,0.0,0.0,0.0,0.0,0.0,-0.0171,0.0,0.0,0.0,0.0,0.0,0.0,0.0,0.0,0.0,0.0,0.0,0.0,0.0,0.0,0.0,0.0,0.0,0.0,0.0,0.0,0.0,0.0,0.0,0.0,0.0,0.0,0.0,0.0,0.0,0.0,0.0,0.0,0.0,0.0,0.0,0.0,0.0,0.0,0.0,0.0,0.0,0.0,0.0,0.0,0.0,0.0,0.0,0.0,0.0,0.0,0.0,0.0,0.0,0.0,0.0,0.4628,0.5312,0.583,0.6146,0.5865,0.5785,0.5919,0.5053,0.4515,0.0,0.0,0.0,0.0,0.0,0.0,0.0,0.0,0.0,0.0,0.0,0.0,0.0,0.0,0.0,0.0,0.0,0.0,0.0,0.0,0.0,0.0,0.0,0.0,0.0,0.0,0.0,0.0,0.0,0.0,0.0,0.0,0.0,0.0,0.0,0.0,0.0,0.0,0.0,0.0,-0.212,-0.2119,-0.205,0.0,0.0,0.0,0.0,0.0,0.0,-0.0553,-0.0332,0.0,0.0,0.0,0.0,0.0,0.0,0.0,0.0,0.0,0.0,0.0,0.0,0.0,0.0,0.0,0.0,0.0,0.0,0.0,0.0,0.0,0.0,0.0,0.0,0.0,0.0,0.0,0.0,0.0,0.0,0.0,0.0,0.0,0.0,0.0,0.0,0.0,0.0,0.0,0.0,0.0,0.0,0.0,0.0,0.0,0.0,0.0,0.0,0.0,0.0,0.0,0.0,0.0,0.0,0.0,0.49,0.5504,0.6052,0.6546,0.6132,0.5972,0.6162,0.5077,0.4462,0.0,0.0,0.0,0.0,0.0,0.0,0.0,0.0,0.0,0.0,0.0,0.0,0.0,0.0,0.0,0.0,0.0,0.0,0.0,0.0,0.0,0.0,0.0,0.0,0.0,0.0,0.0,0.0,0.0,0.0,0.0,0.0,0.0,0.0,0.0,0.0,0.0,0.0,0.0,0.0,0.0,-0.2264,-0.2148,-0.211,0.0,0.0,0.0,0.0,-0.0967,-0.075,0.0,0.0,0.0,0.0,0.0,0.0,0.0,0.0,0.0,0.0,0.0,0.0,0.0,0.0,0.0,0.0,0.0,0.0,0.0,0.0,0.0,0.0,0.0,0.0,0.0,0.0,0.0,0.0,0.0,0.0,0.0,0.0,0.0,0.0,0.0,0.0,0.0,0.0,0.0,0.0,0.0,0.0,0.0,0.0,0.0,0.0,0.0,0.0,0.0,0.0,0.0,0.0,0.0,0.0,0.0,0.0,0.5262,0.5846,0.6303,0.6573,0.6526,0.6379,0.6196,0.5264,0.4635,0.0,0.0,0.0,0.0,0.0,0.0,0.0,0.0,0.0,0.0,0.0,0.0,0.0,0.0,0.0,0.0,0.0,0.0,0.0,0.0,0.0,0.0,0.0,0.0,0.0,0.0,0.0,0.0,0.0,0.0,0.0,0.0,0.0,0.0,0.0,0.0,0.0,0.0,0.0,0.0,0.0,-0.2279,-0.2275,-0.2167,-0.2022,0.0,0.0,-0.1491,-0.1278,-0.1139,0.0,0.0,0.0,0.0,0.0,0.0,0.0,0.0,0.0,0.0,0.0,0.0,0.0,0.0,0.0,0.0,0.0,0.0,0.0,0.0,0.0,0.0,0.0,0.0,0.0,0.0,0.0,0.0,0.0,0.0,0.0,0.0,0.0,0.0,0.0,0.0,0.0,0.0,0.0,0.0,0.0,0.0,0.0,0.0,0.0,0.0,0.0,0.0,0.0,0.0,0.0,0.0,0.0,0.0,0.0,0.4907,0.5531,0.6266,0.6794,0.711,0.6921,0.6693,0.6406,0.5384,0.4675,0.0,0.0,0.0,0.0,0.0,0.0,0.0,0.0,0.0,0.0,0.0,0.0,0.0,0.0,0.0,0.0,0.0,0.0,0.0,0.0,0.0,0.0,0.0,0.0,0.0,0.0,0.0,0.0,0.0,0.0,0.0,0.0,0.0,0.0,0.0,0.0,0.0,0.0,0.0,0.0,0.0,0.0,-0.2254,-0.2096,0.0,0.0,0.0,-0.1684,-0.1593,0.0,0.0,0.0,0.0,0.0,0.0,0.0,0.0,0.0,0.0,0.0,0.0,0.0,0.0,0.0,0.0,0.0,0.0,0.0,0.0,0.0,0.0,0.0,0.0,0.0,0.0,0.0,0.0,0.0,0.0,0.0,0.0,0.0,0.0,0.0,0.0,0.0,0.0,0.0,0.0,0.0,0.0,0.0,0.0,0.0,0.0,0.0,0.0,0.0,0.0,0.0,0.0,0.0,0.0,0.0,0.0,0.0,0.5825,0.658,0.7161,0.7493,0.7248,0.6961,0.6587,0.5591,0.0,0.0,0.0,0.0,0.0,0.0,0.0,0.0,0.0,0.0,0.0,0.0,0.0,0.0,0.0,0.0,0.0,0.0,0.0,0.0,0.0,0.0,0.0,0.0,0.0,0.0,0.0,0.0256,0.0,0.0,0.0,0.0,0.0,0.0,0.0,0.0,0.0,0.0,0.0,0.0,0.0,0.0,-0.2311,-0.2198,-0.2026,-0.1952,0.0,0.0,-0.1877,-0.1897,-0.168,-0.1475,0.0,0.0,0.0,0.0,0.0,0.0,0.0,0.0,0.0,0.0,0.0,0.0,0.0,0.0,0.0,0.0,0.0,0.0,0.0,0.0,0.0,0.0,0.0,0.0,0.0,0.0,0.0,0.0,0.0,0.0,0.0,0.0,0.0,0.0,0.0,0.0,0.0,0.0,0.0,0.0,0.0,0.0,0.0,0.0,0.0,0.0,0.0,0.0,0.0,0.0,0.0,0.0,0.0,0.0,0.5571,0.6162,0.672,0.7174,0.75,0.75,0.7211,0.66,0.5979,0.5219,0.0,0.0,0.0,0.0,0.0,0.0,0.0,0.0,0.0,0.0,0.0,0.0,0.0,0.0,0.0,0.0,0.0,0.0,0.0,0.0,0.0,0.0,0.0,0.0,0.0,0.0,0.0,0.0,0.0,0.0,0.0,0.0,0.0,0.0,0.0,0.0,0.0,0.0,0.0,0.0,0.0,-0.2198,-0.2122,-0.1986,-0.1929,0.0,-0.2051,-0.2103,-0.2151,-0.1998,-0.1858,-0.1772,0.0,0.0,0.0,0.0,0.0,0.0,0.0,0.0,0.0,0.0,0.0,0.0,0.0,0.0,0.0,0.0,0.0,0.0,0.0,0.0,0.0,0.0,0.0,0.0,0.0,0.0,0.0,0.0,0.0,0.0,0.0,0.0,0.0,0.0,0.0,0.0,0.0,0.0,0.0,0.0,0.0,0.0,0.0,0.0,0.0,0.0,0.0,0.0,0.0,0.0,0.0,0.0,0.0,0.5745,0.6196,0.7101,0.7548,0.7527,0.7649,0.7375,0.6607,0.5803,0.5025,0.0,0.0,0.0,0.0,0.0,0.0,0.0,0.0,0.0,0.0,0.0,0.0,0.0,0.0,0.0,0.0,0.0,0.0,0.0,0.0,0.0,0.0,0.0,0.0,0.0,0.0,0.0,0.0,0.0059,-0.0136,-0.0357,0.0,0.0,0.0,0.0,0.0,0.0,0.0,0.0,0.0,0.0,-0.2048,-0.1986,-0.1894,0.0,0.0,-0.2008,-0.207,-0.2129,-0.2004,-0.1859,-0.1807,-0.1682,0.0,0.0,0.0,0.0,0.0,0.0,0.0,0.0,0.0,0.0,0.0,0.0,0.0,0.0,0.0,0.0,0.0,0.0,0.0,0.0,0.0,0.0,0.0,0.0,0.0,0.0,0.0,0.0,0.0,0.0,0.0,0.0,0.0,0.0,0.0,0.0,0.0,0.0,0.0,0.0,0.0,0.0,0.0,0.0,0.0,0.0,0.0,0.0,0.0,0.0,0.0,0.0,0.5981,0.6196,0.7235,0.7689,0.7513,0.7682,0.7408,0.6607,0.5749,0.4931,0.0,0.0,0.0,0.0,0.0,0.0,0.0,0.0,0.0,0.0,0.0,0.0,0.0,0.0,0.0,0.0,0.0,0.0,0.0,0.0,0.0,0.0,0.0,0.0,0.0,0.0,0.0,0.0,0.0029,-0.0171,-0.0456,0.0,0.0,0.0,0.0,0.0,0.0,0.0,0.0,0.0,0.0,-0.1964,-0.1916,-0.1828,-0.1861,-0.1963,-0.2011,-0.2014,-0.2105,-0.2041,-0.1973,-0.1918,0.0,0.0,0.0,0.0,0.0,0.0,0.0,0.0,0.0,0.0,0.0,0.0,0.0,0.0,0.0,0.0,0.0,0.0,0.0,0.0,0.0,0.0,0.0,0.0,0.0,0.0,0.0,0.7164,0.0,0.0,0.6091,0.0,0.0,0.0,0.0,0.0,0.0,0.0,0.0,0.0,0.0,0.0,0.0,0.0,0.0,0.0,0.0,0.0,0.0,0.0,0.0,0.0,0.0,0.6189,0.6209,0.7076,0.752,0.7506,0.752,0.7238,0.6593,0.5927,0.5125,0.4117,0.0,0.0,0.0,0.0,0.0,0.0,0.0,0.0,0.0,0.0,0.0,0.0,0.0,0.0,0.0,0.0,0.0,0.0,0.0,0.0,0.0,0.0,0.0,0.0,0.0,0.0,0.0112,-0.0078,-0.0276,0.0,0.0,0.0,0.0,0.0,0.0,0.0,0.0,0.0,0.0,-0.1894,-0.1898,-0.1898,-0.1854,-0.1871,-0.1994,-0.2015,-0.2065,-0.2191,-0.2207,-0.2204,0.0,0.0,0.0,0.0,0.0,0.0,0.0,0.0,0.0,0.0,0.0,0.0,0.0,0.0,0.0,0.0,0.0,0.0,0.0,0.0,0.0,0.0,0.0,0.0,0.0,0.0,0.0,0.7791,0.7559,0.0,0.0,0.0,0.0,0.0,0.0,0.0,0.0,0.0,0.0,0.0,0.7056,0.682,0.0,0.0,0.0,0.0,0.0,0.0,0.0,0.0,0.0,0.0,0.0,0.0,0.6196,0.6236,0.707,0.7412,0.7188,0.7412,0.7137,0.6357,0.5819,0.4809,0.3301,0.0,0.0,0.0,0.0,0.0,0.0,0.0,0.0,0.0,0.0,0.0,0.0,0.0,0.0,0.0,0.0,0.0,0.0,0.0,0.0,0.0,0.0,0.0,0.0,0.0,0.0174,0.0,0.0,0.0,0.0,0.0,0.0,0.0,0.0,0.0,0.0,0.0,-0.161,-0.1699,-0.1803,-0.1933,-0.1957,-0.2021,-0.208,0.0,0.0,0.0,0.0,0.0,0.0,0.0,0.0,0.0,0.0,0.0,0.0,0.0,0.0,-0.2072,-0.1995,-0.2019,-0.2141,-0.2433,0.0,0.0,0.0,0.0,0.0,0.0,0.0,0.0,0.0,0.0,0.0,0.0,0.0,0.0,0.8675,0.0,0.7891,0.0,0.0,0.0,0.0,0.0,0.0,0.0,0.0,0.7141,0.7315,0.7809,0.7482,0.7395,0.0,0.7201,0.68,0.0,0.0,0.0,0.0,0.0,0.0,0.0,0.0,0.6313,0.6371,0.7009,0.7214,0.7041,0.7208,0.7036,0.6364,0.5685,0.4611,0.313,0.2703,0.2373,0.0,0.0,0.0,0.0,0.0,0.0,0.0,0.0,0.0,0.0,0.0,0.0,0.0,0.0,0.0,0.0,0.0,0.0,0.0,0.0,0.0,0.0,0.0,0.0119,0.0,0.0,0.0,0.0,0.0,0.0,0.0,0.0,0.0,-0.1102,-0.1231,-0.1401,-0.1565,-0.173,-0.1899,-0.2031,0.0,0.0,0.0,0.0,0.0,0.0,0.0,-0.2313,-0.2313,-0.2383,-0.2422,-0.237,-0.2452,-0.2423,-0.2202,0.0,0.0,-0.2171,-0.213,-0.225,-0.2551,-0.2955,-0.3403,-0.4034,-0.4725,-0.5474,0.0,0.0,0.0,0.0,0.0,0.0,0.0,0.0,1.0399,1.0136,0.0,0.8715,0.0,0.0,0.0,0.0,0.0,0.7018,0.0,0.0,0.7915,0.813,0.839,0.813,0.813,0.837,0.8096,0.7789,0.7493,0.6673,0.0,0.0,0.0,0.0,0.0,0.0,0.6587,0.6587,0.688,0.6979,0.6972,0.6979,0.6874,0.656,0.5566,0.4583,0.3664,0.3237,0.2803,0.2346,0.2175,0.0,0.0,0.0,0.0,0.0,0.0,0.0,0.0,0.0,0.0,0.0,0.0,0.0,0.0,0.0,0.0,0.0,0.0,0.0,0.0,0.0224,0.0,0.0,0.0,0.0,0.0,0.0,0.0,0.0,0.0,0.0,-0.0765,-0.1016,-0.1253,-0.1454,0.0,0.0,0.0,0.0,-0.2227,-0.2227,-0.2227,-0.22,-0.2231,-0.2397,-0.2509,-0.2509,0.0,0.0,-0.2527,-0.2476,-0.2447,-0.2325,-0.2259,-0.2186,-0.2136,-0.2166,-0.2285,-0.249,-0.2734,-0.3074,-0.3577,-0.4098,-0.4614,1.2247,0.0,0.0,0.0,0.0,1.0171,1.0578,1.1072,1.0833,1.0717,1.0581,0.9506,0.0,0.0,0.0,0.0,0.0,0.0,0.819,0.8557,0.8718,0.9025,0.9354,0.9218,0.9118,0.8978,0.8691,0.8404,0.8151,0.7649,0.7101,0.6473,0.0,0.0,0.0,0.0,0.6587,0.6607,0.6874,0.6972,0.6972,0.6972,0.674,0.6186,0.5469,0.4783,0.4208,0.3776,0.3275,0.262,0.237,0.0,0.0,0.0,0.0,0.0,0.0,0.0,0.0,0.0,0.0,0.0,0.0,0.0,0.0,0.0,0.0,0.0,0.0,0.0,0.0267,0.0154,0.0072,0.0,0.0,0.0,0.0,0.0,0.0,0.0,0.0,0.0,-0.044,-0.0678,-0.0983,0.0,0.0,-0.1844,-0.2121,-0.2301,-0.2456,-0.255,-0.2554,0.0,-0.2554,-0.2527,-0.2509,-0.2509,-0.2405,-0.2321,-0.2278,-0.2299,-0.2276,-0.2259,-0.2269,-0.2275,-0.2315,-0.2289,-0.235,-0.2594,-0.2772,-0.3009,-0.3345,-0.3709,-0.418,1.3797,1.2756,1.1462,1.1059,1.1247,1.1358,1.1737,1.2195,1.1737,1.1539,1.1529,1.0275,0.9566,0.9274,0.8653,0.0,0.0,0.0,0.8878,0.9158,0.9332,0.9573,0.984,0.974,0.9593,0.9412,0.9118,0.8824,0.8544,0.825,0.7836,0.7301,0.0,0.0,0.6867,0.7034,0.7128,0.7128,0.7288,0.7321,0.7194,0.6967,0.6587,0.6098,0.5602,0.5151,0.4739,0.4353,0.385,0.3122,0.2667,0.2224,0.0,0.0,0.0,0.0,0.0,0.0,0.0,0.0,0.0,0.0,0.0,0.1133,0.0788,0.0,0.0,0.0,0.0513,0.0389,0.0219,0.0164,0.0,0.0,0.0,0.0,0.0,0.0,0.0,-0.0116,-0.0117,-0.0147,-0.0211,-0.0362,-0.0628,-0.1109,-0.1443,-0.1738,-0.2065,0.0,-0.251,-0.2613,-0.2679,-0.2692,-0.2634,-0.2544,-0.2492,-0.2403,-0.2268,-0.2184,-0.213,-0.212,-0.2118,-0.2137,-0.216,-0.2266,-0.2426,-0.2442,-0.2507,-0.2702,-0.288,-0.3052,-0.3296,-0.3672,-0.4141,1.4952,1.4802,1.3202,1.2453,1.2456,1.2621,1.2978,1.3346,1.2829,1.2553,1.2362,1.1038,1.0247,0.9887,0.924,0.0,0.9256,0.9276,0.9479,0.9713,0.974,0.9886,1.0134,0.988,0.974,0.9713,0.9419,0.9125,0.8838,0.855,0.8404,0.8454,0.8156,0.7961,0.7915,0.7963,0.7928,0.8003,0.7928,0.7809,0.7513,0.6914,0.6473,0.6203,0.5927,0.5564,0.5214,0.4883,0.4404,0.3725,0.3028,0.2357,0.1754,0.0,0.0,0.0,0.0,0.0,0.0,0.0,0.0,0.0,0.0,0.0,0.0,0.0,0.0,0.0,0.044,0.0,0.0235,0.023,0.0,0.0,0.0,0.0097,0.0,0.0,0.0,0.0,0.0,0.0,-0.01,-0.0101,-0.0296,-0.0875,-0.1243,-0.1584,-0.1935,-0.2211,-0.2408,-0.2474,-0.2596,-0.2644,-0.252,-0.2455,-0.2373,-0.2211,-0.2147,-0.211,-0.2021,-0.1991,-0.1984,-0.2001,-0.2056,-0.2188,-0.2451,-0.2572,-0.2719,-0.2789,-0.2961,-0.3159,-0.3357,-0.3757,-0.4207,1.5281,1.5228,1.4583,1.4014,1.3523,1.3354,1.353,1.3873,1.3344,1.3112,1.2913,1.1871,1.1019,1.0403,1.0268,1.0053,0.992,1.014,1.016,1.0033,1.0247,1.045,1.0517,1.0388,1.0234,1.0007,0.9719,0.9426,0.9132,0.8844,0.8704,0.8711,0.8851,0.8704,0.829,0.8263,0.8383,0.8597,0.8377,0.8009,0.7482,0.7108,0.668,0.6209,0.6129,0.5846,0.5297,0.5179,0.4693,0.3807,0.3355,0.2724,0.1838,0.1763,0.0,0.0,0.0,0.0,0.0,0.0,0.0,0.0,0.0,0.1139,0.0643,0.0,0.0424,0.0,0.0461,0.0472,0.0433,0.0483,0.0,0.0,0.0301,0.0194,0.009,0.003,0.0,0.0,0.0,0.0,-0.0034,-0.0067,-0.0201,-0.0462,-0.079,-0.1224,-0.1709,-0.1978,-0.2247,-0.2435,-0.2517,-0.2527,-0.2469,-0.2287,-0.2069,-0.1937,-0.1916,-0.1876,-0.1868,-0.1835,-0.187,-0.1924,-0.2034,-0.2188,-0.2381,-0.2572,-0.2767,-0.2912,-0.3068,-0.3202,-0.3323,-0.359,-0.3956,1.5585,1.5565,1.5277,1.4892,1.4379,1.4074,1.4029,1.4054,1.367,1.3443,1.332,1.2356,1.1559,1.0955,1.0942,1.0855,1.0708,1.0735,1.0661,1.0514,1.0548,1.0618,1.0618,1.0618,1.0408,1.012,0.9953,0.9726,0.9439,0.9279,0.9198,0.9205,0.9352,0.9339,0.9152,0.9025,0.9031,0.9192,0.8784,0.8277,0.7682,0.7248,0.68,0.6404,0.6129,0.5846,0.5484,0.5312,0.4857,0.4064,0.3736,0.3176,0.2358,0.2318,0.2345,0.0,0.0,0.0,0.0,0.0,0.0,0.0,0.0,0.0,0.0,0.0,0.0525,0.0585,0.0615,0.0653,0.0719,0.0739,0.0703,0.0623,0.0505,0.039,0.0191,0.0128,0.0032,0.0,0.0,0.0,0.0,-0.0034,-0.0101,-0.0202,-0.0471,-0.0873,-0.1343,-0.1713,-0.1996,-0.2165,-0.232,-0.2372,-0.2286,-0.2062,-0.1906,-0.1823,-0.1803,-0.1803,-0.1803,-0.1803,-0.1803,-0.1894,-0.1986,-0.2118,-0.2289,-0.2442,-0.2616,-0.281,-0.2961,-0.3089,-0.3254,-0.3516,-0.3871,1.5825,1.5805,1.5558,1.5284,1.4997,1.4703,1.4389,1.4068,1.3808,1.3681,1.3512,1.2779,1.2118,1.1597,1.1597,1.1557,1.1463,1.1223,1.1082,1.1035,1.0748,1.0678,1.0678,1.0645,1.0483,1.0174,1.0134,0.998,0.974,0.9699,0.9686,0.9686,0.9726,0.9866,1.01,0.99,0.976,0.9679,0.9138,0.8564,0.7895,0.7375,0.6921,0.6587,0.6092,0.5805,0.5765,0.5491,0.5072,0.4406,0.4103,0.3674,0.3068,0.3148,0.3164,0.0,0.3331,0.0,0.0,0.0,0.0,0.0,0.0,0.0,0.0,0.07,0.0749,0.0887,0.0908,0.098,0.1115,0.108,0.1025,0.0965,0.0806,0.0573,0.0367,0.0202,0.0067,0.0,0.0,0.0,0.0,0.0,-0.0034,-0.0101,-0.0235,-0.0538,-0.0942,-0.1377,-0.1679,-0.1766,-0.2031,-0.2138,-0.1947,-0.1832,-0.1724,-0.1762,-0.174,-0.1762,-0.174,-0.1762,-0.1781,-0.185,-0.1916,-0.2026,-0.2154,-0.2285,-0.2442,-0.2637,-0.2745,-0.2896,-0.315,-0.3419,-0.3725,1.5825,1.5825,1.5765,1.5578,1.5291,1.5003,1.4576,1.4082,1.4028,1.3868,1.3614,1.3213,1.2839,1.258,1.2492,1.2231,1.1784,1.173,1.157,1.1329,1.1049,1.0909,1.0902,1.0675,1.0591,1.0461,1.0234,1.0087,1.0027,0.98,0.9686,0.9686,0.9913,1.0067,1.0127,0.0,0.0,0.0,0.9332,0.8758,0.7915,0.7575,0.717,0.6613,0.648,0.0,0.6115,0.5792,0.5359,0.4822,0.4489,0.0,0.0,0.0,0.0,0.0,0.0,0.0,0.0,0.0,0.0,0.0,0.1667,0.1338,0.0995,0.097,0.1151,0.1484,0.1593,0.1669,0.1795,0.1809,0.1687,0.1392,0.1158,0.0898,0.0639,0.0269,0.0034,0.0067,0.0034,0.0,0.0,0.0,0.0,0.0,-0.0101,-0.0235,-0.0437,-0.1007,-0.1447,-0.161,-0.1746,-0.1735,-0.1533,-0.1513,-0.1496,-0.1474,-0.1477,-0.1499,-0.1544,-0.1566,-0.161,-0.1714,-0.1803,-0.1872,-0.2004,-0.2154,-0.2263,-0.2442,-0.2594,-0.2745,-0.288,-0.3061,-0.3241,1.5825,0.0,1.5825,1.5658,0.0,1.5237,1.4843,1.4295,1.4148,1.3921,1.3552,1.3487,1.3253,1.2966,1.2896,1.2661,1.2358,1.1997,1.1784,1.163,1.1343,1.1202,1.1202,1.1056,1.0989,1.0982,1.0842,1.0704,1.0748,1.0468,1.0327,1.0334,1.0334,1.0334,1.0341,1.0488,1.0335,0.9693,0.9532,0.8965,0.7935,0.7782,0.7408,0.6827,0.666,0.0,0.0,0.0,0.0,0.0,0.0,0.0,0.0,0.466,0.0,0.4603,0.4613,0.4407,0.3827,0.3383,0.2948,0.2539,0.2215,0.1859,0.1429,0.1585,0.1794,0.2029,0.2077,0.2172,0.2304,0.2246,0.205,0.1847,0.1544,0.1209,0.0908,0.0505,0.0235,0.0202,0.0134,0.0034,0.0,0.0,0.0,0.0,-0.0067,-0.0101,-0.0235,-0.0689,-0.1158,-0.142,-0.1412,-0.1384,-0.1359,-0.1341,-0.1341,-0.1363,-0.1341,-0.1366,-0.1388,-0.141,-0.1477,-0.1629,-0.1718,-0.1781,-0.1916,-0.2004,-0.2088,-0.2206,-0.2337,-0.2403,-0.2446,-0.2665,-0.2866,1.5825,1.5825,1.5825,1.5698,1.5471,1.5418,1.5064,1.4502,0.0,0.0,0.0,1.3721,1.3561,1.3273,1.3026,1.2956,1.2876,1.2331,1.2078,1.2011,1.1724,1.155,1.151,1.145,1.143,1.143,1.143,1.143,1.1416,1.1182,1.1069,1.1042,1.0775,1.0678,1.0624,1.0618,1.0329,0.9719,0.9686,0.9138,0.8056,0.8009,0.7742,0.7151,0.6954,0.6827,0.682,0.6586,0.6354,0.6156,0.5964,0.5849,0.5764,0.5659,0.5533,0.5375,0.5218,0.4872,0.4354,0.3792,0.3342,0.3048,0.2841,0.2487,0.1994,0.222,0.2429,0.2512,0.2515,0.2599,0.2784,0.2594,0.2416,0.2317,0.1976,0.1607,0.1265,0.089,0.0582,0.0405,0.0235,0.0134,0.0034,0.0,0.0,0.0,-0.0034,-0.01,-0.0132,-0.0471,-0.0822,-0.1066,-0.1045,-0.1031,-0.1118,-0.1121,-0.1163,-0.1118,-0.1118,-0.1163,-0.1208,-0.1252,-0.1366,-0.1499,-0.1607,-0.1718,-0.1828,-0.1872,-0.1942,-0.2034,-0.2078,-0.2078,-0.2078,-0.2254,-0.2498,1.5825,1.5825,1.5825,1.5805,1.5745,1.5504,1.5064,1.4502,1.4215,1.4062,1.4028,1.4021,1.3861,1.3574,1.3534,1.338,1.314,1.3053,1.2879,1.2688,1.2318,1.2051,1.1797,1.1543,1.143,1.143,1.143,1.143,1.1423,1.139,1.1363,1.1336,1.1076,1.0808,1.0575,1.0618,1.0335,0.9699,0.9686,0.9239,0.8343,0.831,0.8156,0.7829,0.7709,0.7742,0.7742,0.7435,0.7288,0.7163,0.6764,0.6611,0.6787,0.649,0.6339,0.634,0.5901,0.5335,0.4735,0.4029,0.3482,0.3171,0.3333,0.324,0.2656,0.2599,0.2753,0.3056,0.3075,0.3095,0.3202,0.3095,0.2951,0.2799,0.248,0.2125,0.1731,0.1383,0.1041,0.0681,0.0471,0.0303,0.0134,0.0101,0.0067,0.0034,0.0,-0.0033,-0.0126,-0.0296,-0.0481,-0.06,-0.0592,-0.0591,-0.0651,-0.0607,-0.0651,-0.0606,-0.063,-0.0718,-0.0805,-0.0914,-0.1072,-0.1296,-0.1455,-0.1563,-0.1692,-0.1803,-0.1872,-0.192,-0.1942,-0.1964,-0.1898,-0.1942,-0.2039,1.5825,1.5825,1.5825,1.5825,1.5805,1.5524,1.5244,1.497,1.4689,1.4382,1.4095,1.4088,1.4008,1.3874,1.3714,1.3486,1.344,1.328,1.3133,1.2993,1.2859,1.2726,1.2579,1.2285,1.2231,1.2378,1.2218,1.2225,1.2351,1.2064,1.1904,1.1857,1.1303,1.0922,1.0795,1.0705,1.0335,0.9706,0.9686,0.9314,0.8404,0.8377,0.8237,0.7888,0.7929,0.7929,0.7929,0.7796,0.7722,0.7682,0.7321,0.7171,0.7245,0.6924,0.67,0.6707,0.6229,0.5743,0.5257,0.4528,0.394,0.3625,0.3744,0.3762,0.3447,0.3344,0.3327,0.3423,0.3427,0.343,0.347,0.3314,0.3197,0.3095,0.2948,0.2686,0.2201,0.1908,0.1579,0.1163,0.0855,0.0572,0.0336,0.0303,0.0202,0.0067,0.0,-0.0033,-0.0062,-0.0146,-0.0248,-0.0345,-0.0412,-0.0409,-0.0428,-0.0428,-0.0428,-0.0451,-0.0451,-0.0494,-0.056,-0.0694,-0.0895,-0.1141,-0.1296,-0.1433,-0.1563,-0.1677,-0.1724,-0.1702,-0.1699,-0.1677,-0.1591,-0.1616,-0.1738,1.5825,1.5825,1.5825,1.5832,1.5906,1.5685,1.5557,1.5555,1.5332,1.4858,1.4401,1.4368,1.4289,1.4255,1.3975,1.3841,1.3801,1.354,1.3373,1.3313,1.3307,1.3273,1.3193,1.2953,1.2979,1.3166,1.2966,1.2979,1.3126,1.2732,1.2432,1.2251,1.1617,1.1196,1.0989,1.0775,1.0367,0.982,0.978,0.9359,0.851,0.847,0.8363,0.8156,0.813,0.8074,0.813,0.8081,0.813,0.8081,0.7873,0.7726,0.7677,0.7333,0.7031,0.6877,0.6432,0.5987,0.5447,0.4835,0.4372,0.4172,0.4151,0.4158,0.4114,0.3982,0.3836,0.3704,0.3683,0.3683,0.3676,0.3541,0.3413,0.341,0.3351,0.3147,0.2674,0.2387,0.2074,0.1608,0.1298,0.0992,0.0708,0.0572,0.0437,0.0202,0.0067,0.0033,0.0032,0.0,-0.0083,-0.0156,-0.0216,-0.0248,-0.0315,-0.0315,-0.0292,-0.0292,-0.0292,-0.0337,-0.0405,-0.0517,-0.0697,-0.0918,-0.1116,-0.1252,-0.1388,-0.1477,-0.1502,-0.1499,-0.1433,-0.1363,-0.1188,-0.1235,-0.143,1.5825,1.5825,1.5825,1.5933,1.6123,1.6089,1.6106,1.5957,1.5837,1.5547,1.515,1.4966,1.4877,1.4836,1.4563,1.4422,1.4402,1.4135,1.3868,1.3641,1.3601,1.3467,1.3273,1.3193,1.3186,1.3233,1.32,1.3213,1.326,1.316,1.2839,1.2358,1.2218,1.177,1.1102,1.0975,1.0661,1.0094,1.0074,0.9653,0.8831,0.8764,0.8758,0.8731,0.8717,0.8724,0.8691,0.8731,0.8717,0.8724,0.8593,0.8436,0.8285,0.7858,0.7435,0.7105,0.6556,0.5844,0.5056,0.4797,0.47,0.4656,0.4601,0.4611,0.4481,0.4287,0.4093,0.4012,0.3978,0.3955,0.3978,0.3944,0.3862,0.3842,0.3711,0.3468,0.3231,0.2938,0.2534,0.202,0.1814,0.1563,0.1162,0.0911,0.0707,0.0437,0.0269,0.0133,0.0098,0.006,0.0028,0.0,-0.0025,-0.0046,0.0,0.0,0.0,0.0,0.0,0.0,-0.0202,-0.0337,-0.0471,-0.0628,-0.0806,-0.1027,-0.1116,-0.123,-0.1296,-0.123,-0.1139,-0.105,-0.0825,-0.079,-0.0979,1.5825,1.5825,1.5825,1.5933,1.6224,1.6224,1.6243,1.6392,1.6313,1.6144,1.5855,1.5763,1.5481,1.4963,1.4836,1.4783,1.4776,1.4656,1.4543,1.4429,1.4422,1.4269,1.3995,1.3801,1.3728,1.3728,1.3728,1.3734,1.3701,1.3554,1.3247,1.2832,1.2492,1.2111,1.1757,1.1423,1.0962,1.0401,1.0381,1.0033,0.9399,0.9152,0.8985,0.8824,0.8804,0.8804,0.8804,0.8804,0.8804,0.8804,0.8685,0.8573,0.8527,0.8109,0.7676,0.7461,0.6856,0.6178,0.5458,0.5413,0.5315,0.5144,0.5026,0.4935,0.4784,0.4597,0.4443,0.4294,0.4128,0.4019,0.4026,0.4019,0.4019,0.3963,0.3867,0.3726,0.3493,0.3309,0.2977,0.2598,0.2299,0.2026,0.1659,0.1269,0.0944,0.074,0.0571,0.0433,0.0353,0.0297,0.025,0.0238,0.0193,0.0114,0.0,0.0,0.0,0.0,0.0,0.0,-0.009,-0.018,-0.0315,-0.0406,-0.0561,-0.0693,-0.0779,-0.0825,-0.087,-0.0847,-0.0738,-0.0582,-0.0471,-0.0403,-0.0479,1.5927,1.5933,1.5927,1.6116,1.6414,1.6414,1.6595,1.6871,1.6871,1.6777,1.6501,1.6407,1.5985,1.542,1.5214,1.5084,1.5077,1.4997,1.506,1.506,1.506,1.4843,1.4629,1.4436,1.4322,1.4329,1.4329,1.4329,1.4295,1.4028,1.3734,1.3414,1.2926,1.2545,1.2278,1.1857,1.1376,1.0848,1.0786,1.0428,0.9953,0.9633,0.9305,0.8971,0.8925,0.8891,0.8811,0.8804,0.8804,0.8804,0.8692,0.8633,0.8573,0.8215,0.7878,0.7618,0.7048,0.6549,0.6093,0.604,0.5961,0.5716,0.5528,0.5354,0.5188,0.4949,0.4742,0.4587,0.4328,0.4206,0.4144,0.4141,0.4141,0.4141,0.4114,0.3973,0.3733,0.3589,0.3382,0.3034,0.2769,0.2501,0.2105,0.1635,0.1209,0.1108,0.0941,0.0765,0.0666,0.0601,0.0507,0.0473,0.044,0.0324,0.0136,0.0,0.0045,0.0,0.0,0.0,-0.0067,-0.0135,-0.018,-0.027,-0.0315,-0.0382,-0.047,-0.0491,-0.0427,-0.0336,-0.0247,-0.0158,-0.009,-0.0022,0.0045,1.6218,1.6218,1.6224,1.6508,1.6979,1.6979,1.7167,1.7535,1.7628,1.7535,1.7145,1.677,1.6386,1.6129,1.5677,1.5378,1.5344,1.5124,1.5113,1.5113,1.51,1.4963,1.4943,1.493,1.491,1.485,1.487,1.489,1.4883,1.4603,1.4335,1.4035,1.3667,1.3133,1.2478,1.2291,1.1971,1.143,1.1142,1.0828,1.0584,1.0227,0.9813,0.9256,0.917,0.9098,0.8864,0.8811,0.8811,0.8811,0.8752,0.8745,0.858,0.8328,0.7967,0.7504,0.6986,0.6793,0.6818,0.6595,0.6392,0.6333,0.6077,0.5813,0.5693,0.5333,0.5079,0.4691,0.465,0.4579,0.445,0.4453,0.446,0.4457,0.4307,0.4123,0.3976,0.3842,0.3614,0.3308,0.3118,0.2902,0.2466,0.1974,0.1695,0.1518,0.1315,0.1107,0.1092,0.0919,0.0835,0.0785,0.0706,0.061,0.0367,0.0202,0.0135,0.009,0.0067,0.0022,-0.0022,-0.0045,-0.0067,-0.0091,-0.0092,-0.0138,-0.0181,-0.0135,-0.0046,0.0046,0.0092,0.0183,0.0293,0.036,0.0427,1.6595,1.6697,1.6494,1.6777,1.7153,1.7073,1.7261,1.7721,1.7721,1.7636,1.7535,1.7145,1.6965,1.669,1.6115,1.5772,1.5665,1.5758,1.5803,1.581,1.5982,1.5793,1.5531,1.5524,1.5325,1.51,1.5157,1.5244,1.5177,1.4763,1.4469,1.4302,1.3874,1.346,1.3146,1.2772,1.2378,1.2004,1.1703,1.1323,1.0882,1.0728,1.0401,0.984,0.9619,0.9379,0.9044,0.903,0.8998,0.8818,0.8804,0.8752,0.8712,0.8654,0.8343,0.7903,0.7832,0.7678,0.7476,0.7297,0.7164,0.7095,0.6776,0.6454,0.616,0.5767,0.5363,0.5111,0.4896,0.4769,0.4629,0.458,0.4519,0.4453,0.4416,0.4321,0.4147,0.406,0.3919,0.3638,0.3394,0.3061,0.2819,0.2444,0.2189,0.2108,0.1853,0.1653,0.1597,0.1499,0.1403,0.1354,0.1223,0.1047,0.093,0.0532,0.0292,0.0225,0.018,0.018,0.0157,0.0135,0.009,0.0182,0.0163,0.0219,0.0219,0.0351,0.0449,0.0534,0.0581,0.0583,0.0701,0.0746,0.0809,1.6965,1.7167,1.6965,1.7145,1.752,1.7441,1.7542,1.7916,1.8001,1.8094,1.7994,1.7792,1.752,1.7246,1.6784,1.6407,1.6218,1.6218,1.6224,1.6312,1.6595,1.6577,1.623,1.6109,1.5899,1.5572,1.5708,1.581,1.567,1.5224,1.4858,1.4717,1.4155,1.3738,1.3594,1.314,1.2746,1.2438,1.2071,1.1657,1.1296,1.1082,1.0815,1.0428,1.012,0.9726,0.9216,0.9176,0.9105,0.8858,0.8804,0.8804,0.8718,0.8806,0.8714,0.8429,0.8514,0.8432,0.8133,0.803,0.7922,0.7792,0.7466,0.7136,0.6812,0.6353,0.5888,0.5523,0.5294,0.5107,0.4952,0.4798,0.4685,0.4532,0.4463,0.4402,0.4217,0.4194,0.4043,0.3819,0.353,0.3294,0.3102,0.2838,0.2634,0.2549,0.2318,0.2131,0.2045,0.1953,0.1879,0.1841,0.1669,0.1492,0.1329,0.1015,0.0579,0.0457,0.0337,0.0337,0.036,0.0315,0.0339,0.0436,0.0527,0.0608,0.0715,0.082,0.0948,0.1024,0.1009,0.0974,0.1061,0.1115,0.1198,1.7426,1.7721,1.7426,1.7613,1.8079,1.8087,1.828,1.8473,1.8682,1.8798,1.8806,1.8589,1.8443,1.8109,1.7673,1.7268,1.6972,1.6595,1.6494,1.6683,1.6885,1.7066,1.6936,1.6727,1.6626,1.6497,1.656,1.6567,1.6518,1.6019,1.5645,1.5287,1.4791,1.4188,1.3681,1.3387,1.306,1.2712,1.2231,1.1904,1.1797,1.1329,1.1029,1.0915,1.0668,1.014,0.9269,0.9216,0.9152,0.8878,0.8811,0.8745,0.8705,0.8906,0.8991,0.9026,0.8944,0.8947,0.8965,0.8694,0.8511,0.8447,0.8187,0.7842,0.7553,0.7033,0.6509,0.6121,0.5828,0.5638,0.5479,0.5329,0.5052,0.4605,0.4532,0.446,0.4304,0.4197,0.4134,0.3863,0.367,0.352,0.3329,0.3102,0.2937,0.2784,0.2606,0.2437,0.2343,0.2194,0.209,0.2043,0.199,0.1859,0.1692,0.1504,0.1061,0.0722,0.0546,0.0471,0.0539,0.0561,0.0606,0.0709,0.0819,0.0895,0.1095,0.1209,0.1302,0.1375,0.1366,0.1393,0.1484,0.153,0.1566,1.8265,1.8465,1.8172,1.835,1.8827,1.8635,1.8643,1.8767,1.9268,1.9568,1.9796,1.9898,1.9874,1.9584,1.9075,1.8473,1.7994,1.7621,1.734,1.7239,1.7527,1.7628,1.7535,1.7426,1.7239,1.6878,1.6878,1.6965,1.6994,1.6572,1.626,1.6,1.5198,1.4695,1.4457,1.3843,1.336,1.306,1.2679,1.2365,1.1982,1.1697,1.141,1.1022,1.0895,1.0528,0.9834,0.9653,0.9406,0.9118,0.8911,0.8838,0.905,0.9329,0.9505,0.9607,0.9637,0.9623,0.9512,0.9344,0.921,0.9145,0.8888,0.8635,0.8371,0.7782,0.7293,0.6974,0.6711,0.6446,0.6283,0.6137,0.5779,0.4926,0.4696,0.4567,0.4389,0.4257,0.411,0.3978,0.3816,0.367,0.352,0.3333,0.3146,0.3,0.2864,0.2717,0.2595,0.2523,0.251,0.2485,0.238,0.2218,0.2053,0.1881,0.1587,0.1209,0.0989,0.0809,0.0824,0.0852,0.0897,0.1019,0.1127,0.125,0.1423,0.1561,0.1657,0.1748,0.1783,0.1838,0.1916,0.1951,0.1992,1.9204,1.9289,1.906,1.9096,1.9471,1.9379,1.9371,1.9428,1.9951,2.0389,2.0661,2.1052,2.1104,2.0815,2.0372,1.969,1.9112,1.8727,1.8357,1.8164,1.8265,1.8272,1.8087,1.8079,1.7885,1.7621,1.7721,1.79,1.7963,1.7505,1.7066,1.6784,1.5906,1.5143,1.4843,1.4132,1.3667,1.336,1.2953,1.264,1.2231,1.1984,1.1697,1.1343,1.1109,1.0815,1.0434,1.006,0.9713,0.9412,0.9125,0.9118,0.9385,0.9586,0.9754,0.9925,1.0063,1.004,0.9983,0.9792,0.9722,0.9658,0.9466,0.921,0.9017,0.8431,0.8042,0.7842,0.7512,0.7274,0.7158,0.6989,0.6529,0.5839,0.5251,0.4815,0.4584,0.4385,0.4233,0.4063,0.3927,0.3788,0.3615,0.351,0.3329,0.3185,0.308,0.2934,0.2801,0.275,0.27,0.2676,0.2583,0.2434,0.238,0.223,0.207,0.1783,0.1473,0.1309,0.1243,0.1192,0.1192,0.1384,0.1531,0.1645,0.1812,0.1891,0.1988,0.2081,0.2184,0.2286,0.2335,0.2346,0.2395,2.0337,2.0287,1.9954,1.9946,2.0129,2.0286,2.0369,2.0394,2.083,2.1206,2.1573,2.2167,2.22,2.1853,2.1529,2.1098,2.0369,1.9637,1.9504,1.952,1.9252,1.9076,1.8928,1.8819,1.8719,1.8619,1.8904,1.9188,1.9171,1.8672,1.8179,1.7735,1.6708,1.5833,1.5182,1.4532,1.4045,1.3716,1.3198,1.2903,1.2802,1.2318,1.1924,1.185,1.1383,1.1056,1.0848,1.0414,1.0,0.9693,0.9399,0.9399,0.9646,0.9713,0.9866,1.0099,1.0227,1.0275,1.0238,1.0174,1.0047,1.0047,0.9919,0.9734,0.953,0.9145,0.8759,0.8624,0.8306,0.8107,0.805,0.781,0.7423,0.6973,0.5842,0.508,0.4598,0.4512,0.4378,0.4117,0.4016,0.3917,0.374,0.3633,0.3487,0.3316,0.3172,0.3045,0.294,0.2832,0.2727,0.2723,0.2749,0.2729,0.2666,0.2627,0.2462,0.2342,0.2035,0.1813,0.1668,0.1592,0.1648,0.1825,0.1977,0.2099,0.2141,0.2258,0.2347,0.241,0.2536,0.265,0.2743,0.2737,0.2859,2.1751,2.1742,2.1637,2.1593,2.1541,2.1582,2.144,2.1401,2.2017,2.2348,2.2726,2.3519,2.3731,2.3493,2.2962,2.2455,2.1715,2.0949,2.0629,2.0744,2.0703,2.0172,1.9696,1.9637,1.9629,1.953,1.9712,1.9903,2.0175,1.9712,1.9289,1.8926,1.7781,1.6965,1.6364,1.543,1.4767,1.4462,1.3926,1.3584,1.3267,1.2864,1.2479,1.2164,1.1895,1.1423,1.1035,1.0641,1.0194,0.9726,0.9619,0.9699,0.9967,1.0,1.0107,1.0381,1.0494,1.0491,1.0491,1.0428,1.0428,1.0434,1.0238,1.011,1.011,0.9734,0.9542,0.9408,0.9268,0.9069,0.9064,0.8756,0.8265,0.7374,0.6263,0.5277,0.4793,0.4625,0.4551,0.4421,0.4245,0.4139,0.4012,0.3868,0.3662,0.3482,0.3389,0.3232,0.3159,0.3053,0.3018,0.2971,0.2973,0.2974,0.2955,0.2936,0.2902,0.2843,0.2622,0.2316,0.2171,0.2053,0.2197,0.2395,0.2576,0.2658,0.2634,0.2646,0.2716,0.2779,0.2842,0.2931,0.3119,0.3217,0.3384,2.2921,2.2981,2.2826,2.2753,2.269,2.2511,2.2337,2.2373,2.2741,2.3057,2.342,2.4181,2.4439,2.4136,2.3776,2.3362,2.2784,2.208,2.1934,2.2149,2.2119,2.1635,2.095,2.0659,2.0546,2.0718,2.0718,2.1006,2.1087,2.0718,2.0348,1.977,1.8696,1.7804,1.7078,1.6424,1.5705,1.5212,1.4795,1.4321,1.394,1.3478,1.3099,1.2798,1.2417,1.1925,1.1243,1.1015,1.0655,1.0174,0.996,1.0,1.0254,1.0174,1.0254,1.0591,1.0618,1.0555,1.0618,1.0618,1.0618,1.0561,1.0498,1.0434,1.0371,1.0187,0.9989,0.9989,0.9856,0.9722,0.9652,0.9396,0.8828,0.8037,0.7104,0.6195,0.5268,0.4953,0.4834,0.4692,0.4573,0.4477,0.4404,0.4176,0.4047,0.3863,0.3757,0.3637,0.3497,0.3391,0.3353,0.3351,0.3337,0.3362,0.3353,0.3315,0.3192,0.3176,0.3159,0.2835,0.2633,0.2531,0.264,0.2812,0.3061,0.3203,0.3131,0.3076,0.308,0.3142,0.3171,0.3298,0.3499,0.3663,0.3826,2.3938,2.4143,2.3777,2.3627,2.3495,2.3341,2.317,2.3133,2.3104,2.3366,2.3737,2.4402,2.4563,2.4111,2.4217,2.3948,2.3592,2.3079,2.3121,2.3271,2.3355,2.3,2.2344,2.1789,2.1653,2.166,2.1998,2.2097,2.1998,2.1633,2.1266,2.0619,1.9596,1.8728,1.806,1.747,1.6781,1.6391,1.5797,1.5343,1.4961,1.4388,1.391,1.3586,1.2966,1.2319,1.1742,1.1376,1.1122,1.0615,1.0347,1.0354,1.0514,1.0287,1.0307,1.0557,1.0618,1.0618,1.0618,1.0618,1.0618,1.0618,1.0618,1.0618,1.0561,1.0371,1.0308,1.0308,1.0174,1.0047,0.9977,0.9716,0.937,0.8743,0.8348,0.7502,0.637,0.5546,0.5198,0.5096,0.5064,0.4905,0.4799,0.4688,0.4613,0.4366,0.4227,0.4047,0.3959,0.3914,0.3871,0.3872,0.3825,0.3783,0.3765,0.3709,0.3566,0.3447,0.3523,0.3366,0.3082,0.2984,0.3014,0.3202,0.3622,0.3736,0.3584,0.3565,0.3536,0.3536,0.3565,0.3761,0.3993,0.4086,0.421,2.5309,2.4994,2.4908,2.4764,2.4534,2.4059,2.3798,2.3779,2.3635,2.3638,2.39,2.4633,2.4876,2.4789,2.475,2.4769,2.4584,2.4102,2.3973,2.4041,2.4098,2.4165,2.3796,2.3129,2.2612,2.2377,2.2264,2.2441,2.253,2.2255,2.1891,2.1436,2.0799,2.0124,1.9389,1.8873,1.8596,1.8225,1.7368,1.6783,1.6315,1.5531,1.4954,1.4604,1.3712,1.2846,1.2177,1.1757,1.1397,1.1048,1.0848,1.0762,1.0645,1.0488,1.0488,1.0584,1.0618,1.0618,1.0618,1.0618,1.0618,1.0618,1.0618,1.0618,1.0618,1.0555,1.0491,1.0491,1.0498,1.0364,1.0238,1.0174,0.9875,0.9466,0.914,0.8746,0.7886,0.6905,0.6271,0.6045,0.5833,0.5659,0.5517,0.5382,0.519,0.4891,0.4678,0.4517,0.4473,0.445,0.4441,0.4432,0.4567,0.455,0.4402,0.4312,0.4097,0.3966,0.397,0.4016,0.3731,0.3697,0.3846,0.4061,0.431,0.4274,0.4048,0.4016,0.3983,0.3988,0.3993,0.4156,0.4318,0.4441,0.457,2.5836,2.544,2.5538,2.544,2.5189,2.4523,2.422,2.4094,2.365,2.3603,2.3838,2.4307,2.457,2.4756,2.4775,2.4844,2.5059,2.4993,2.488,2.4987,2.4996,2.49,2.4774,2.433,2.3727,2.3169,2.2782,2.2803,2.2882,2.2715,2.2344,2.2069,2.1526,2.1069,2.0619,2.015,1.9881,1.9579,1.8908,1.8357,1.7924,1.6984,1.6056,1.5465,1.4605,1.3843,1.3319,1.2882,1.243,1.2012,1.1676,1.1262,1.0725,1.0624,1.0624,1.0618,1.0618,1.0618,1.0618,1.0618,1.0618,1.0618,1.0618,1.0618,1.0618,1.0618,1.0618,1.0618,1.0555,1.0555,1.0428,1.0428,1.0308,1.0098,0.9857,0.9512,0.8986,0.8007,0.7077,0.6872,0.6719,0.6544,0.638,0.6138,0.5971,0.5736,0.5474,0.5298,0.5163,0.5144,0.5087,0.5121,0.5337,0.5341,0.5137,0.4957,0.4693,0.4598,0.4576,0.4638,0.456,0.4633,0.4814,0.4845,0.4766,0.4672,0.4505,0.4473,0.4458,0.4452,0.4458,0.4523,0.4646,0.4794,0.496,2.6032,2.583,2.5762,2.5732,2.5596,2.4795,2.4424,2.4297,2.3506,2.3359,2.3672,2.375,2.4121,2.4385,2.4551,2.4785,2.5176,2.5488,2.5548,2.5557,2.5557,2.5411,2.5244,2.499,2.4648,2.3975,2.3543,2.3329,2.3222,2.3066,2.2821,2.247,2.2069,2.1802,2.1535,2.1338,2.1096,2.0738,2.0307,1.9765,1.9393,1.8482,1.7549,1.6453,1.5717,1.5111,1.4575,1.4138,1.3604,1.3068,1.2583,1.1854,1.1132,1.0698,1.0692,1.0628,1.0665,1.0618,1.0618,1.0618,1.0618,1.0618,1.0618,1.0618,1.0618,1.0618,1.0618,1.0618,1.0618,1.0618,1.0618,1.0555,1.0498,1.0364,1.0364,1.0174,0.9781,0.8863,0.8266,0.7662,0.7549,0.7453,0.7178,0.691,0.6794,0.658,0.6336,0.6082,0.5951,0.5761,0.5669,0.5695,0.5865,0.5926,0.5755,0.5503,0.5264,0.5216,0.518,0.5256,0.5332,0.5475,0.5475,0.514,0.5019,0.5043,0.5051,0.4976,0.4931,0.4918,0.4882,0.4864,0.4992,0.5151,0.5322,2.666,2.625,2.5889,2.5732,2.5596,2.4795,2.4424,2.4277,2.3506,2.3184,2.3291,2.3623,2.3994,2.4404,2.4814,2.5185,2.5498,2.5693,2.5732,2.5732,2.5732,2.5625,2.5537,2.5273,2.499,2.4805,2.4414,2.4053,2.374,2.3573,2.3289,2.2782,2.2618,2.2441,2.2255,2.2157,2.205,2.1873,2.1406,2.0934,2.053,1.983,1.8892,1.7716,1.7004,1.6385,1.5707,1.5173,1.4562,1.3777,1.331,1.2678,1.1901,1.1302,1.1028,1.0882,1.0742,1.0661,1.0678,1.0651,1.0631,1.0618,1.0618,1.0618,1.0618,1.0618,1.0618,1.0618,1.0618,1.0618,1.0618,1.0618,1.0555,1.0555,1.0491,1.0428,1.0212,0.9894,0.9291,0.8574,0.8393,0.8239,0.7856,0.7603,0.7456,0.7234,0.6961,0.6769,0.6603,0.6355,0.6136,0.6215,0.6337,0.6375,0.6335,0.6073,0.5842,0.5836,0.5853,0.589,0.6006,0.6202,0.6147,0.6012,0.5838,0.5799,0.5746,0.5579,0.5521,0.555,0.5386,0.5208,0.5455,0.5739,0.5695,2.6641,2.6045,2.582,2.5732,2.5576,2.4795,2.4424,2.4287,2.3525,2.3144,2.3193,2.3389,2.3828,2.4326,2.46,2.5088,2.5596,2.5732,2.5732,2.5732,2.5732,2.5732,2.5732,2.5488,2.5439,2.5361,2.5166,2.4717,2.4141,2.3867,2.3611,2.3318,2.3105,2.2882,2.2784,2.2784,2.2794,2.2639,2.232,2.2032,2.1742,2.1112,2.0147,1.9339,1.8507,1.7883,1.7439,1.6526,1.5971,1.5307,1.459,1.388,1.3142,1.2409,1.173,1.137,1.1069,1.0915,1.0815,1.0782,1.0792,1.0638,1.0624,1.0618,1.0618,1.0618,1.0618,1.0618,1.0618,1.0618,1.0618,1.0618,1.0618,1.0618,1.0618,1.0555,1.0491,1.0434,0.9914,0.9322,0.9054,0.8732,0.8324,0.8114,0.806,0.7817,0.7557,0.7408,0.7291,0.6962,0.6613,0.6637,0.6716,0.6752,0.6787,0.6659,0.6501,0.6494,0.6563,0.6639,0.6758,0.7022,0.7131,0.7158,0.6986,0.6736,0.6425,0.6271,0.625,0.6194,0.618,0.6142,0.6174,0.6264,0.6302,2.6562,2.5859,2.5771,2.5732,2.5586,2.4795,2.4424,2.4248,2.3516,2.3144,2.3144,2.3193,2.3584,2.418,2.457,2.5,2.5703,2.5732,2.5732,2.5732,2.5732,2.5732,2.5732,2.5732,2.5693,2.5644,2.5635,2.5322,2.4639,2.4297,2.4062,2.3877,2.3535,2.332,2.3232,2.3261,2.3252,2.3057,2.2969,2.2882,2.261,2.2034,2.1323,2.0875,2.008,1.9477,1.9064,1.8247,1.7446,1.6735,1.5972,1.5127,1.4507,1.3762,1.2913,1.2082,1.1716,1.1438,1.1283,1.1107,1.1057,1.0907,1.0728,1.0631,1.0618,1.0618,1.0618,1.0618,1.0618,1.0618,1.0618,1.0618,1.0618,1.0618,1.0618,1.0555,1.0555,1.0481,1.0254,0.9827,0.959,0.919,0.8672,0.8521,0.837,0.8322,0.8062,0.7973,0.7806,0.7432,0.7137,0.7091,0.7088,0.711,0.7148,0.7201,0.7147,0.7158,0.7317,0.7482,0.7636,0.7872,0.7964,0.8061,0.7937,0.77,0.7347,0.7011,0.6959,0.6937,0.7038,0.7047,0.7024,0.7041,0.7088,2.6738,2.6269,2.5889,2.5732,2.5605,2.4795,2.4424,2.4307,2.3506,2.3144,2.3144,2.3164,2.3428,2.3994,2.4707,2.5244,2.5615,2.5732,2.5732,2.5732,2.5732,2.5732,2.5732,2.5732,2.5732,2.5732,2.5732,2.5459,2.5049,2.4883,2.4668,2.4375,2.4209,2.4082,2.373,2.3643,2.3516,2.3223,2.3067,2.2969,2.2736,2.2149,2.1845,2.1494,2.1015,2.0504,2.0172,1.9507,1.8861,1.7961,1.732,1.6436,1.5557,1.5276,1.4641,1.3757,1.2752,1.1894,1.1899,1.1685,1.1511,1.1379,1.1056,1.0841,1.0744,1.0688,1.0624,1.0618,1.0618,1.0618,1.0618,1.0618,1.0618,1.0618,1.0618,1.0624,1.0618,1.0436,1.0208,0.9952,0.9639,0.9299,0.8858,0.8811,0.8744,0.8651,0.8544,0.8447,0.835,0.801,0.7736,0.765,0.7718,0.7744,0.7975,0.7955,0.8063,0.8044,0.825,0.8463,0.8651,0.884,0.8822,0.8861,0.8762,0.856,0.8187,0.7896,0.7702,0.77,0.784,0.7845,0.7833,0.7852,0.7887,2.6406,2.6006,2.582,2.5732,2.5615,2.4795,2.4424,2.4238,2.3516,2.3144,2.3144,2.3144,2.3506,2.417,2.4824,2.5303,2.5654,2.5732,2.5732,2.5732,2.5732,2.5732,2.5732,2.5732,2.5732,2.5732,2.5723,2.5684,2.542,2.5176,2.4932,2.4805,2.4551,2.4326,2.4131,2.3906,2.3711,2.3486,2.3301,2.3057,2.2921,2.2708,2.2505,2.2496,2.1931,2.156,2.1229,2.0501,1.9977,1.9231,1.8487,1.7647,1.6945,1.6446,1.5788,1.5121,1.4593,1.3744,1.2902,1.2521,1.2354,1.2004,1.1689,1.1269,1.0932,1.0744,1.0688,1.0618,1.0618,1.0618,1.0618,1.0618,1.0618,1.0618,1.0624,1.0681,1.062,1.0438,1.022,0.9955,0.9683,0.9405,0.9125,0.899,0.889,0.8842,0.8788,0.8765,0.8731,0.8665,0.841,0.8294,0.8377,0.8528,0.8805,0.898,0.9256,0.9346,0.952,0.9684,0.9744,0.9846,0.9745,0.96,0.9488,0.9234,0.896,0.8736,0.856,0.8587,0.863,0.8665,0.8656,0.8685,0.8703,2.6035,2.5732,2.5732,2.5674,2.5498,2.4736,2.4346,2.416,2.3467,2.3144,2.3174,2.3271,2.374,2.4385,2.4863,2.5312,2.5723,2.5732,2.5732,2.5732,2.5732,2.5732,2.5732,2.5732,2.5732,2.5732,2.5732,2.5703,2.5615,2.5449,2.5273,2.5225,2.501,2.4727,2.4531,2.4326,2.4102,2.3711,2.333,2.3067,2.3047,2.3047,2.3028,2.295,2.2688,2.237,2.2167,2.1566,2.1009,2.0245,1.9561,1.8834,1.819,1.7672,1.7139,1.6636,1.63,1.592,1.484,1.4057,1.347,1.2953,1.2395,1.1847,1.1291,1.1059,1.0863,1.0744,1.0751,1.0744,1.0681,1.0681,1.0681,1.0688,1.0624,1.0744,1.0808,1.0709,1.0443,1.0133,0.9904,0.9637,0.9351,0.9201,0.9106,0.9008,0.9001,0.904,0.9109,0.9249,0.9104,0.8951,0.9074,0.9203,0.9364,0.9732,1.0092,1.047,1.0696,1.0714,1.064,1.06,1.0529,1.0377,1.0261,1.0307,1.0215,0.9799,0.9408,0.9301,0.9229,0.9419,0.9502,0.9526,0.9598,2.5762,2.5732,2.5732,2.5508,2.5098,2.4609,2.4189,2.3857,2.3359,2.3144,2.3193,2.3545,2.3945,2.4434,2.4873,2.5312,2.5732,2.5732,2.5732,2.5732,2.5732,2.5732,2.5732,2.5732,2.5732,2.5732,2.5732,2.5732,2.5723,2.5664,2.5625,2.5654,2.5459,2.5303,2.5068,2.4766,2.4326,2.3857,2.3359,2.3154,2.3144,2.3144,2.3144,2.3144,2.2989,2.2833,2.2549,2.2269,2.1864,2.1,2.05,1.9925,1.9288,1.8976,1.8538,1.8058,1.7916,1.7587,1.6849,1.5584,1.4657,1.4234,1.3619,1.271,1.2056,1.1524,1.129,1.122,1.1199,1.1059,1.0975,1.0933,1.0996,1.0933,1.087,1.1003,1.1126,1.1181,1.0902,1.0415,1.0142,1.0009,0.991,0.9761,0.9472,0.9368,0.9458,0.9547,0.9758,0.9833,0.9778,0.9706,0.9834,0.9885,0.9831,1.0237,1.0864,1.114,1.1306,1.1295,1.1219,1.1186,1.1208,1.1219,1.1104,1.1301,1.1305,1.0727,1.023,0.9916,0.986,1.0158,1.0272,1.0224,1.0421,2.5732,2.5732,2.5732,2.5478,2.5029,2.46,2.418,2.376,2.334,2.3144,2.3086,2.3603,2.4023,2.4453,2.4873,2.5312,2.5684,2.5732,2.5732,2.5732,2.5732,2.5732,2.5732,2.5732,2.5732,2.5732,2.5732,2.5732,2.5732,2.5732,2.5732,2.5732,2.5732,2.5654,2.542,2.4951,2.4365,2.3896,2.3408,2.3144,2.3144,2.3144,2.3144,2.3144,2.3144,2.3076,2.2881,2.2637,2.2249,2.1864,2.1409,2.0766,2.0229,2.0165,1.9631,1.9013,1.903,1.8825,1.8313,1.6991,1.5877,1.507,1.4446,1.3866,1.3072,1.2568,1.2284,1.2116,1.1891,1.1732,1.166,1.1509,1.138,1.1247,1.124,1.1373,1.1483,1.1667,1.1717,1.1357,1.0923,1.0663,1.0537,1.0434,1.0044,0.9718,0.9917,1.0092,1.0322,1.0541,1.0531,1.0592,1.0699,1.0906,1.0915,1.1262,1.1667,1.178,1.194,1.1939,1.1853,1.1849,1.1827,1.1859,1.1841,1.1807,1.1693,1.1417,1.1116,1.0794,1.0784,1.0964,1.1004,1.0981,1.125,2.5732,2.5713,2.5586,2.5273,2.4863,2.4541,2.4102,2.3603,2.3271,2.3242,2.3359,2.3779,2.4219,2.4639,2.5078,2.541,2.5684,2.5732,2.5732,2.5732,2.5732,2.5732,2.5732,2.5732,2.5732,2.5732,2.5732,2.5732,2.5732,2.5732,2.5732,2.5732,2.5732,2.5713,2.5518,2.4893,2.4268,2.3945,2.3447,2.3154,2.3144,2.3144,2.3144,2.3144,2.3144,2.3135,2.3047,2.2871,2.2666,2.2337,2.199,2.1578,2.1269,2.0899,2.0413,2.0041,1.9707,1.9507,1.9014,1.8016,1.6937,1.6049,1.5495,1.4892,1.4279,1.3723,1.3349,1.3107,1.2871,1.2706,1.2626,1.2538,1.2348,1.2284,1.1964,1.2035,1.2257,1.2457,1.2445,1.2348,1.1921,1.1572,1.1556,1.1442,1.1001,1.074,1.0795,1.0947,1.1057,1.1306,1.1455,1.1559,1.1697,1.1908,1.2089,1.2115,1.2148,1.2272,1.2416,1.2599,1.2579,1.249,1.2412,1.2393,1.2338,1.2248,1.2268,1.2313,1.2067,1.174,1.1681,1.1646,1.1808,1.1857,1.2138,2.5732,2.5684,2.5273,2.4853,2.4482,2.4414,2.3945,2.3291,2.3213,2.3398,2.375,2.418,2.4609,2.5029,2.541,2.5644,2.5703,2.5732,2.5732,2.5732,2.5732,2.5732,2.5732,2.5732,2.5732,2.5732,2.5732,2.5732,2.5732,2.5732,2.5732,2.5732,2.5732,2.5732,2.5654,2.4863,2.4434,2.4277,2.3545,2.3223,2.3144,2.3144,2.3144,2.3144,2.3144,2.3144,2.3105,2.3076,2.2881,2.2646,2.2493,2.2191,2.1841,2.1491,2.1157,2.1002,2.0673,2.0537,2.0313,1.8941,1.7896,1.7218,1.6633,1.5993,1.5519,1.4958,1.4455,1.4303,1.4164,1.3974,1.395,1.3819,1.3599,1.334,1.3073,1.3005,1.3255,1.345,1.3536,1.3414,1.2985,1.2668,1.2653,1.252,1.2078,1.1806,1.179,1.1778,1.1787,1.1918,1.2067,1.2175,1.2274,1.2323,1.2431,1.2578,1.2647,1.2735,1.2783,1.2881,1.2939,1.2812,1.2782,1.2851,1.2867,1.2842,1.3097,1.3338,1.3099,1.283,1.2343,1.2253,1.2457,1.2687,1.2928,2.5732,2.5693,2.5254,2.4814,2.4404,2.4111,2.3672,2.3262,2.3428,2.3662,2.3916,2.4512,2.4902,2.5185,2.5498,2.5732,2.5732,2.5732,2.5732,2.5732,2.5732,2.5732,2.5732,2.5732,2.5732,2.5732,2.5732,2.5732,2.5732,2.5732,2.5732,2.5732,2.5732,2.5732,2.5498,2.4922,2.4424,2.4258,2.3643,2.3144,2.3144,2.3144,2.3144,2.3144,2.3144,2.3144,2.3144,2.3144,2.3027,2.2891,2.2871,2.2685,2.2373,2.2041,2.1914,2.166,2.124,2.0703,2.0322,1.9451,1.9033,1.8375,1.7746,1.7204,1.6827,1.6285,1.5919,1.5556,1.5382,1.5186,1.5143,1.4941,1.4716,1.4637,1.4528,1.4493,1.4675,1.4843,1.4882,1.4547,1.4136,1.3644,1.3415,1.344,1.309,1.2752,1.2689,1.2332,1.2199,1.2351,1.248,1.2529,1.2627,1.2676,1.2783,1.2783,1.2832,1.2832,1.2881,1.2891,1.2939,1.3027,1.3065,1.3084,1.3276,1.3488,1.3705,1.392,1.4114,1.3969,1.3487,1.3183,1.3347,1.3499,1.3622,2.541,2.5234,2.4805,2.4463,2.418,2.3906,2.3613,2.3437,2.3682,2.3935,2.4316,2.4853,2.5176,2.5352,2.5576,2.5732,2.5732,2.5732,2.5732,2.5732,2.5732,2.5732,2.5732,2.5732,2.5732,2.5732,2.5732,2.5732,2.5732,2.5732,2.5732,2.5732,2.5732,2.5732,2.5508,2.5068,2.457,2.4316,2.375,2.331,2.3213,2.3144,2.3144,2.3144,2.3144,2.3144,2.3144,2.3144,2.3144,2.3144,2.3096,2.3008,2.2773,2.2549,2.2393,2.2051,2.1504,2.0986,2.0566,2.0205,1.9885,1.9522,1.8854,1.8332,1.7993,1.7426,1.7119,1.6875,1.656,1.6347,1.622,1.5969,1.5944,1.5871,1.5761,1.579,1.5615,1.571,1.5581,1.5266,1.4918,1.4449,1.4137,1.4189,1.4109,1.3777,1.3518,1.308,1.2707,1.279,1.285,1.289,1.289,1.2871,1.29,1.2929,1.2929,1.2988,1.3027,1.3075,1.3113,1.3248,1.3258,1.3354,1.3583,1.3858,1.4222,1.4468,1.4744,1.4869,1.4709,1.4461,1.4371,1.4359,1.4441,2.4805,2.4375,2.3965,2.3828,2.3799,2.375,2.3721,2.375,2.3809,2.4268,2.499,2.501,2.5332,2.5644,2.5732,2.5732,2.5732,2.5732,2.5732,2.5732,2.5732,2.5732,2.5732,2.5732,2.5732,2.5732,2.5732,2.5732,2.5732,2.5732,2.5732,2.5732,2.5732,2.5732,2.5566,2.5322,2.4893,2.4521,2.3975,2.3564,2.3359,2.3184,2.3154,2.3144,2.3144,2.3144,2.3144,2.3144,2.3144,2.3144,2.3125,2.3125,2.2998,2.2744,2.2607,2.2295,2.1689,2.1348,2.1035,2.0693,2.0508,2.0177,1.9645,1.9178,1.8826,1.8413,1.8086,1.7826,1.7571,1.737,1.721,1.7116,1.709,1.6958,1.6807,1.6656,1.6353,1.617,1.5957,1.5651,1.5358,1.5042,1.4965,1.4943,1.469,1.4564,1.4237,1.3937,1.3546,1.3169,1.3231,1.3153,1.3135,1.3037,1.3057,1.3164,1.3162,1.321,1.3344,1.3392,1.3467,1.3515,1.3621,1.3726,1.3962,1.428,1.4777,1.5142,1.5457,1.5487,1.5428,1.536,1.5098,1.5257,1.5428,2.4521,2.4375,2.3965,2.3789,2.374,2.3457,2.333,2.3398,2.3935,2.4434,2.4639,2.5273,2.5596,2.5732,2.5732,2.5732,2.5732,2.5732,2.5732,2.5732,2.5732,2.5732,2.5732,2.5732,2.5732,2.5732,2.5732,2.5732,2.5732,2.5732,2.5732,2.5732,2.5732,2.5732,2.5684,2.5596,2.5254,2.4814,2.4209,2.3799,2.3506,2.3291,2.3213,2.3144,2.3144,2.3144,2.3144,2.3144,2.3144,2.3144,2.3144,2.3144,2.3115,2.3008,2.2891,2.249,2.1992,2.1572,2.123,2.082,2.0576,2.0576,2.0197,1.9973,1.9662,1.9219,1.8778,1.8537,1.8305,1.7973,1.7743,1.7687,1.7648,1.7562,1.7446,1.7321,1.7033,1.6857,1.6567,1.6123,1.5827,1.5468,1.5478,1.5322,1.5098,1.5068,1.4922,1.4609,1.4248,1.3857,1.3603,1.3525,1.3539,1.3431,1.3402,1.3471,1.3446,1.343,1.3658,1.38,1.3894,1.3941,1.3988,1.4233,1.4547,1.496,1.5424,1.5736,1.5869,1.5969,1.592,1.5901,1.5913,1.5969,1.6001,2.4062,2.3887,2.3643,2.3535,2.3486,2.3242,2.3144,2.3301,2.4043,2.4492,2.4756,2.542,2.5732,2.5732,2.5732,2.5732,2.5732,2.5732,2.5732,2.5732,2.5732,2.5732,2.5732,2.5732,2.5732,2.5732,2.5732,2.5732,2.5732,2.5732,2.5732,2.5732,2.5732,2.5732,2.5713,2.5684,2.5596,2.5127,2.46,2.4062,2.3691,2.3389,2.3203,2.3144,2.3144,2.3144,2.3144,2.3144,2.3144,2.3144,2.3144,2.3144,2.3144,2.3115,2.3086,2.2695,2.2168,2.1816,2.1484,2.0898,2.0674,2.0576,2.0566,2.042,2.0146,1.9795,1.9302,1.8951,1.8679,1.8416,1.8223,1.8008,1.8008,1.7998,1.7988,1.7988,1.7783,1.7568,1.7158,1.6699,1.6279,1.5869,1.5644,1.5518,1.54,1.5303,1.5234,1.5164,1.4772,1.4341,1.4033,1.3906,1.3913,1.3918,1.3892,1.399,1.4039,1.41,1.4269,1.4408,1.4408,1.449,1.4628,1.4903,1.5277,1.5591,1.5824,1.6044,1.6175,1.6231,1.6275,1.6275,1.6231,1.6231,1.6318,2.3516,2.3174,2.3144,2.3174,2.3144,2.3144,2.3144,2.3232,2.3984,2.459,2.499,2.5469,2.5664,2.5713,2.5732,2.5732,2.5732,2.5732,2.5732,2.5732,2.5732,2.5732,2.5732,2.5732,2.5732,2.5732,2.5732,2.5732,2.5732,2.5732,2.5732,2.5732,2.5732,2.5732,2.5732,2.5732,2.5615,2.5312,2.4746,2.4189,2.3828,2.3477,2.3144,2.3144,2.3144,2.3144,2.3144,2.3144,2.3144,2.3144,2.3144,2.3144,2.3144,2.3135,2.3115,2.291,2.2383,2.2031,2.167,2.1133,2.0732,2.0605,2.0566,2.0537,2.0332,2.0166,1.9785,1.9365,1.9092,1.8691,1.8389,1.8105,1.8008,1.8008,1.8008,1.8008,1.792,1.7656,1.7285,1.6826,1.6377,1.5996,1.589,1.5822,1.5546,1.5468,1.5517,1.5535,1.5385,1.4929,1.475,1.4508,1.4603,1.4704,1.4749,1.4774,1.4812,1.4873,1.5071,1.5165,1.5314,1.5349,1.5266,1.5546,1.5812,1.5901,1.6132,1.6262,1.6349,1.6392,1.6448,1.6534,1.6534,1.6491,1.6534,2.3232,2.3144,2.3144,2.3144,2.3144,2.3144,2.3144,2.3184,2.3691,2.418,2.46,2.5019,2.54,2.5605,2.5664,2.5674,2.5684,2.5713,2.5732,2.5713,2.5703,2.5684,2.5713,2.5674,2.5713,2.5732,2.5732,2.5732,2.5732,2.5732,2.5732,2.5732,2.5732,2.5732,2.5732,2.5723,2.5537,2.5293,2.4707,2.4316,2.4102,2.3545,2.3144,2.3144,2.3144,2.3144,2.3144,2.3144,2.3144,2.3144,2.3144,2.3144,2.3144,2.3144,2.3144,2.3037,2.2617,2.2246,2.1855,2.1387,2.0947,2.0664,2.0596,2.0576,2.0527,2.0449,2.0215,1.9785,1.9385,1.8955,1.8584,1.8291,1.8057,1.8057,1.8037,1.8037,1.8027,1.7705,1.7373,1.7037,1.6566,1.6382,1.6276,1.6089,1.5781,1.573,1.5798,1.5836,1.6036,1.5818,1.5869,1.5684,1.5533,1.5593,1.5553,1.572,1.5775,1.5941,1.6114,1.6197,1.624,1.5987,1.5756,1.6076,1.6306,1.6306,1.6306,1.6392,1.6479,1.6479,1.6479,1.6577,1.6705,1.6718,1.6748,2.3144,2.3144,2.3144,2.3144,2.3144,2.3144,2.3144,2.3184,2.3398,2.374,2.417,2.458,2.4932,2.5225,2.5332,2.5439,2.5478,2.5664,2.5703,2.5713,2.5527,2.5596,2.5586,2.5527,2.5625,2.5654,2.5713,2.5732,2.5703,2.5732,2.5732,2.5732,2.5732,2.5713,2.5693,2.5566,2.5322,2.5068,2.4463,2.4189,2.4111,2.3535,2.3154,2.3144,2.3144,2.3144,2.3144,2.3144,2.3144,2.3144,2.3144,2.3144,2.3144,2.3144,2.3144,2.3027,2.2744,2.2402,2.207,2.165,2.1182,2.0918,2.0615,2.0683,2.0576,2.0478,2.0293,1.9912,1.9756,1.9375,1.9072,1.8779,1.8535,1.8447,1.8359,1.8301,1.8144,1.7871,1.7782,1.7777,1.7362,1.7183,1.7066,1.7011,1.6739,1.655,1.6567,1.6519,1.6582,1.6831,1.6846,1.6842,1.6752,1.6439,1.6222,1.6569,1.6908,1.7046,1.7159,1.6842,1.6614,1.6384,1.6293,1.6392,1.6436,1.6436,1.6479,1.6479,1.6534,1.6479,1.6522,1.6565,1.6748,1.6973,1.7128,2.3144,2.3144,2.3144,2.3144,2.3144,2.3144,2.3144,2.3144,2.3154,2.335,2.3711,2.4072,2.4277,2.4551,2.4775,2.4912,2.5059,2.5215,2.542,2.5371,2.5127,2.5146,2.5176,2.5185,2.5234,2.5381,2.5508,2.5547,2.5566,2.5654,2.5732,2.5732,2.5684,2.5644,2.5518,2.5244,2.4893,2.4639,2.4209,2.3838,2.3584,2.3359,2.3203,2.3144,2.3144,2.3144,2.3144,2.3144,2.3144,2.3144,2.3144,2.3144,2.3144,2.3144,2.3144,2.3047,2.2891,2.2627,2.2353,2.1894,2.1504,2.1172,2.083,2.0732,2.0713,2.0566,2.0379,2.0252,2.0095,1.9795,1.9492,1.9219,1.8984,1.8831,1.8723,1.8517,1.8272,1.8066,1.8182,1.8297,1.8075,1.7875,1.7866,1.7758,1.7687,1.7554,1.7499,1.7413,1.7478,1.7851,1.8113,1.807,1.8012,1.7662,1.7235,1.7445,1.7906,1.8027,1.8007,1.7471,1.701,1.6853,1.6666,1.6436,1.6479,1.6479,1.6479,1.6534,1.6534,1.6534,1.6577,1.6663,1.7002,1.7253,1.7488,2.3144,2.3144,2.3144,2.3144,2.3144,2.3144,2.3144,2.3144,2.3144,2.3203,2.3301,2.3379,2.3701,2.4404,2.4473,2.4541,2.458,2.4746,2.4687,2.46,2.4609,2.4639,2.4697,2.4775,2.4639,2.4805,2.5059,2.5185,2.5303,2.5547,2.5713,2.5684,2.5283,2.5185,2.5117,2.4795,2.4414,2.417,2.3965,2.3613,2.335,2.3203,2.3174,2.3144,2.3144,2.3144,2.3144,2.3144,2.3144,2.3144,2.3144,2.3144,2.3144,2.3144,2.3144,2.3135,2.2969,2.2832,2.2529,2.2266,2.1943,2.1435,2.1203,2.1125,2.1104,2.0994,2.0854,2.0718,2.0473,2.0105,1.9821,1.9585,1.935,1.933,1.9232,1.8815,1.8476,1.8377,1.8395,1.8342,1.8273,1.8342,1.868,1.8606,1.8617,1.8589,1.8784,1.8773,1.8791,1.908,1.9298,1.9259,1.9215,1.9017,1.8715,1.8589,1.8885,1.8967,1.8772,1.8196,1.7706,1.743,1.7237,1.6861,1.6597,1.6522,1.6522,1.6534,1.662,1.6663,1.6675,1.6803,1.717,1.7543,1.7814]}]]